     2              OBSERVATION DATA    GPS                 RINEX VERSION / TYPE
ASRINEXO V2.4.4 UX USGS 06-FEB-98 12:42                     PGM / RUN BY / DATE
                                                            COMMENT
Original Marker Name: sanh Sand_Hill_1939_1981_USC&GS       COMMENT
Campaign Name: usgs.landers.pro                             COMMENT
4-Character Station Name: SANH                              COMMENT
6-Character Antenna Code: DMRCHT                            COMMENT
Vertical Measurement Point: BCR                             COMMENT
Vertical Offset to Rinex Ref. Point: 0.0348                 COMMENT
Radial Measurement Point: ECF                               COMMENT
Radial Offset to Rinex Ref. Point: 0.1897                   COMMENT
Antenna Height from Field Measurement: 1.3345 m             COMMENT
Additional Antenna Identification Info.:                    COMMENT
Turborogue and Ashtech Choke Ring                           COMMENT
Original XYZ: -2336806.3337 -4732623.4304 3570292.6328      COMMENT
New XYZ position is based on association with SCEC monument COMMENT
E1F2G8K4+0012. Position of that monument is believed to be  COMMENT
valid to within 1 m horizontally; vertical accuracy         COMMENT
should be no worse than 3-times this value.                 COMMENT
                                                            COMMENT
Revised Rinex header created by UCSD GPS archive for        COMMENT
GSAC on 11-Nov-1999 (1999:315) 15:51:14 GMT                 COMMENT
For assistance contact dagnew@ucsd.edu or hjohnson@ucsd.edu COMMENT
                                                            COMMENT
SANH SAND_HILL_1939_1981_USC&GS                             MARKER NAME
GDH US GEOLOGICAL SURVEY                                    OBSERVER / AGENCY
600 ASHTECH Z-XII3 1E95                                     REC # / TYPE / VERS
333 DORNE-MARGOL. TYPE T                                    ANT # / TYPE
 -2336820.0000 -4732587.0000  3570330.0000                  APPROX POSITION XYZ
        1.2861        0.0000        0.0000                  ANTENNA: DELTA H/E/N
     1     1     0                                          WAVELENGTH FACT L1/2
     5    C1    L1    L2    P1    P2                        # / TYPES OF OBSERV
    30                                                      INTERVAL
  1998     1    30    16    44   30.000000                  TIME OF FIRST OBS
  1998     1    30    23    30   30.000000                  TIME OF LAST OBS
                                                            END OF HEADER
 98  1 30 16 44 30.0000000  0  5 22 19 16 18 14
  22132249.625      540186.77749    400177.96549  22132249.5024   22132256.2064
  22910859.845       34050.01349     24888.32149  22910859.2324   22910866.9504
  20882271.408      331431.42649    243837.95249  20882270.7554   20882277.7914
  21726450.256                                    21726449.862    21726392.5904
  21355172.933       86766.74449                  21355172.612    21355179.4134
 98  1 30 16 45  0.0000000  0  5 22 19 16 18 14
  22158298.210      677071.92449    506841.67649  22158297.8104   22158304.2114
  22911853.492       39273.07149     28958.24649  22911852.9544   22911859.8664
  20897986.929      414017.07349    308190.37349  20897986.5354   20897993.4814
  21727276.967                                    21727276.569    21727307.3284
  21381681.309      724842.22159    195314.39649  21381681.0404   21381687.9264
 98  1 30 16 45 30.0010000  0  7 22 19  3 29 16 18 14
  22184122.014      812776.32649    612585.33349  22184121.3324   22184128.1964
  22912564.236       43008.56249     31869.03649  22912564.2424   22912570.8904
  24904554.281        3151.08649                  24904554.835    24904562.2354
  24600629.640      331483.39549                  24600630.008    24600637.4864
  20913496.404      495519.97449    371699.10149  20913495.9384   20913502.7934
  21727820.234                                    21727819.853    21727802.7734
  21407967.602      862977.85449    302952.48349  21407967.5024   21407974.2854
 98  1 30 16 46  0.0010000  0  7 22 19  3 29 16 18 14
  22209727.745      947334.91449    717436.15049  22209727.2964   22209734.0734
  22913000.900       45303.47849     33657.29349  22913000.6204   22913008.1604
  24904360.379        3707.99959      2356.97449  24904359.9104   24904368.7664
  24628234.425      613984.70159    444512.06849  24628233.9084   24628240.6294
  20928805.939      575972.22549    434389.14249  20928805.4104   20928812.3724
  21728089.333         455.63159                  21728088.917    21728095.3344
  21434037.925      999978.34149    409706.05549  21434037.9344   21434044.9534
 98  1 30 16 46 30.0010000  0  7 22 19  3 29 16 18 14
  22235111.656     1080727.98549    821378.76649  22235111.1434   22235117.8304
  22913158.000       46129.30649     34300.80049  22913158.0714   22913164.8294
  24903874.382        1152.84349       365.96549  24903873.8574   24903882.1004
  24655556.026      757561.79349    556390.16449  24655555.2844   24655562.4804
  20943909.197      655340.17949    496234.27449  20943908.6244   20943915.6954
  21728082.183       39825.64359       426.54149  21728081.6924   21728088.2834
  21459884.156     1135801.00149    515541.83649  21459884.1514   21459891.1454
 98  1 30 16 47  0.0010000  0  7 22 19  3 29 16 18 14
  22260267.168     1212920.90449    924386.20349  22260266.8184   22260273.4454
  22913031.900       45466.96749     33784.71549  22913031.2594   22913038.8854
  24903091.712       -2960.44849     -2839.20849  24903091.3394   24903101.8064
  24682592.614      899640.65449    667100.77949  24682592.9964   24682599.7964
  20958800.917      733596.73649    557213.38549  20958800.6944   20958807.5624
  21727794.059       38311.67749      -753.17449  21727794.0114   21727799.9624
  21485501.772     1270422.36649    620441.54749  21485501.5374   21485508.7404
 98  1 30 16 47 30.0010000  0  7 22 19  3 29 16 18 14
  22285183.761     1343858.15349   1026415.19049  22285183.2294   22285190.2394
  22912611.166       43255.93149     32061.83249  22912611.2494   22912618.7944
  24902005.257       -8669.86049     -7288.11449  24902005.5204   24902014.5974
  24709332.938     1040162.20649    776597.94349  24709333.4644   24709341.7464
  20973467.979      810672.26749    617272.21149  20973467.6214   20973474.5504
  21727212.808       35257.02449     -3133.42549  21727212.4744   21727218.8554
  21510875.958     1403764.51249    724344.45249  21510875.6714   21510883.0044
 98  1 30 16 48  0.0010000  0  7 22 19  3 29 16 18 14
  22309856.243     1473512.76949   1127444.72149  22309855.5784   22309862.4974
  22911890.045       39466.59749     29109.12049  22911890.0094   22911896.8904
  24900611.470      -15994.52849    -12995.62949  24900610.9164   24900621.4194
  24735769.387     1179086.50949    884850.50249  24735769.3434   24735778.0484
  20987904.668      886537.60849    676388.03549  20987904.2764   20987911.3494
  21726332.551       30631.29649     -6737.89649  21726332.2834   21726338.6344
  21535997.801     1535780.54249    827214.02249  21535997.7994   21536005.0664
 98  1 30 16 48 30.0010000  0  7 22 19  3 29 16 18 14
  22334282.347     1601872.84649   1227465.51849  22334281.9484   22334288.4294
  22910870.091       34106.77249     24932.63949  22910870.2954   22910877.4164
  24898908.347      -24944.30449    -19969.44349  24898907.8854   24898917.7724
  24761899.832     1316402.45949    991849.75949  24761900.2734   24761908.3614
  21002113.598      961205.86049    734571.06149  21002113.2704   21002120.2234
  21725152.910       24432.13049    -11568.41749  21725152.8404   21725158.7764
  21560866.646     1666466.89749    929047.48249  21560866.6934   21560873.9434
 98  1 30 16 49  0.0010000  0  7 22 19  3 29 16 18 14
  22358458.470     1728918.84049   1326462.35049  22358457.9024   22358464.5414
  22909551.654       27178.23849     19533.79649  22909552.3174   22909558.6654
  24896896.047      -35518.96349    -28209.42249  24896897.3274   24896905.9774
  24787720.351     1452090.16449   1097580.26549  24787720.4084   24787729.8724
  21016094.851     1034677.55749    791821.71149  21016094.5704   21016101.6584
  21723669.443       16636.35349    -17643.05149  21723669.5864   21723675.5154
  21585481.306     1795817.50749   1029840.10049  21585481.5424   21585488.7824
 98  1 30 16 49 30.0010000  0  7 22 19  3 29 16 18 14
  22382385.033     1854653.65549   1424437.48649  22382384.5484   22382391.3464
  22907939.127       18704.38949     12930.82149  22907939.4644   22907946.2154
  24894578.523      -47697.63249    -37699.30549  24894577.5934   24894588.2364
  24813233.659     1586163.73549   1202053.01849  24813234.3354   24813242.2484
  21029852.152     1106972.33049    848155.27249  21029851.7774   21029858.8674
  21721884.561        7256.32849    -24952.17749  21721884.3824   21721890.4304
  21609843.499     1923841.48849   1129598.96849  21609843.3674   21609850.8284
 98  1 30 16 50  0.0010000  0  7 22 19  3 29 16 18 14
  22406066.625     1979101.30949   1521409.64049  22406066.0834   22406073.0924
  22906041.632        8732.84449      5160.80249  22906041.5374   22906048.8664
  24891958.566      -61464.96749    -48427.08449  24891957.7964   24891968.4314
  24838448.425     1718667.88049   1305302.84249  24838448.5904   24838457.7874
  21043396.545     1178148.44849    903617.15749  21043396.1904   21043403.1994
  21719804.966       -3672.27349    -33467.98049  21719804.8724   21719810.6834
  21633960.789     2050578.29549   1228354.84649  21633960.9214   21633968.3784
 98  1 30 16 50 30.0010000  0  7 22 19  3 29 16 18 14
  22429496.642     2102226.53049   1617351.33549  22429495.9734   22429503.1144
  22903853.266       -2767.39549     -3800.41249  22903853.5924   22903860.7134
  24889029.119      -76858.86949    -60422.31549  24889028.7044   24889039.0744
  24863363.153     1849595.41149   1407324.12149  24863363.2624   24863373.1344
  21056725.200     1248190.85049    958195.62749  21056724.9034   21056731.9104
  21717426.548      -16171.18849    -43207.40149  21717426.6784   21717432.3544
  21657830.069     2176012.01849   1326095.33549  21657830.1864   21657837.4114
 98  1 30 16 51  0.0010000  0  7 22 19  3 29 16 18 14
  22452679.263     2224051.88749   1712280.14549  22452678.8644   22452685.5034
  22901374.172      -15795.08249    -13951.83249  22901374.1294   22901381.3284
  24885795.860      -93849.30449    -73661.60649  24885795.1724   24885806.3184
  24887982.910     1978973.05849   1508137.70349  24887982.5484   24887991.9224
  21069837.668     1317096.92749   1011888.65049  21069837.4354   21069844.3584
  21714753.180      -30220.09249    -54154.60549  21714753.1594   21714758.9744
  21681455.113     2300162.29449   1422835.73849  21681455.1514   21681462.6994
 98  1 30 16 51 30.0010000  0  7 22 19  3 29 16 18 14
  22475624.938     2344631.74649   1806238.45049  22475624.3194   22475631.0014
  22898610.978      -30315.76149    -25266.62549  22898610.7924   22898618.2144
  24882269.111     -112382.87449    -88103.35949  24882268.4744   24882278.2414
  24912319.589     2106862.94549   1607792.00449  24912321.3194   24912329.1594
  21082739.330     1384895.34649   1064718.56449  21082739.0634   21082746.1244
  21711797.515      -45752.38449    -66257.69749  21711797.1164   21711803.3284
  21704845.373     2423078.81449   1518614.78249  21704845.5284   21704852.7794
 98  1 30 16 52  0.0010000  0  7 22 19  3 29 16 18 14
  22498344.140     2464021.44449   1899269.35249  22498343.6714   22498350.4894
  22895571.860      -46286.27049    -37711.16249  22895572.1854   22895579.1634
  24878459.336     -132403.19049   -103703.57349  24878457.9024   24878468.5704
  24936381.578     2233308.21549   1706320.61949  24936381.5224   24936391.8104
  21095438.081     1451627.73549   1116717.80449  21095437.7324   21095444.7834
  21708571.907      -62703.12649    -79466.07249  21708571.7094   21708577.9464
  21728010.934     2544814.24049   1613473.49049  21728011.0914   21728018.5794
 98  1 30 16 52 30.0010000  0  7 22 19  3 29 16 18 14
  22520850.859     2582294.79449   1991430.37049  22520850.5304   22520857.0074
  22892269.860      -63638.22449    -51232.14349  22892269.9414   22892277.0764
  24874383.536     -153821.23549   -120392.92849  24874382.2834   24874392.4924
  24960181.894     2358378.95049   1803778.14949  24960182.4354   24960191.9754
  21107944.279     1517348.04249   1167928.41149  21107943.9344   21107950.9004
  21705092.067      -80989.71149    -93715.36349  21705092.0774   21705098.0554
  21750966.355     2665445.50549   1707471.81249  21750966.4694   21750973.7804
 98  1 30 16 53  0.0010000  0  7 22 19  3 29 16 18 14
  22543160.147     2699530.76649   2082783.04349  22543159.5254   22543166.8934
  22888720.596      -82289.81949    -65765.83049  22888720.6084   22888727.7124
  24870058.716     -176548.38449   -138102.38049  24870059.1564   24870067.1924
  24983731.168     2482131.00849   1900208.14849  24983732.0324   24983741.6334
  21120271.337     1582126.95149   1218405.45849  21120270.9814   21120278.1304
  21701372.996     -100533.82949   -108944.55249  21701372.7324   21701379.0324
  21773723.167     2785033.13349   1800656.90649  21773723.5054   21773730.7454
 98  1 30 16 53 30.0010000  0  7 22 19  3 29 16 18 14
  22565284.793     2815796.25949   2173379.49249  22565283.8794   22565291.3634
  22884939.907     -102157.38949    -81247.03149  22884939.5664   22884947.3944
  24865495.505     -200528.46149   -156788.12249  24865495.2364   24865506.3334
  25007040.899     2604623.67349   1995656.78049  25007040.8964   25007051.1474
  21132435.016     1646047.47349   1268213.63449  21132434.5504   21132441.7224
  21697428.651     -121261.64149   -125096.10349  21697428.5134   21697434.8454
  21796291.822     2903631.79549   1893071.37949  21796292.0014   21796299.5454
 98  1 30 16 54  0.0010000  0  7 22 19  3 29 16 18 14
  22587235.267     2931146.47949   2263262.74049  22587235.3724   22587241.4684
  22880939.268     -123180.74649    -97628.84549  22880939.2254   22880946.1564
  24860701.648     -225720.36249   -176418.13149  24860701.4944   24860710.9954
  25030118.832     2725898.47949   2090156.48249  25030119.0394   25030128.6444
  21144450.370     1709188.50249   1317414.41149  21144450.1424   21144457.2194
  21693266.751     -143132.49249   -142138.32649  21693266.7644   21693272.9534
  21818681.602     3021290.65549   1984753.54149  21818682.0014   21818689.2004
 98  1 30 16 54 30.0010000  0  7 22 19  3 29 16 18 14
  22609021.847     3045635.31649   2352474.78649  22609021.5304   22609028.0994
  22876729.881     -145301.31149   -114865.62549  22876729.8104   22876736.6874
  24855685.739     -252079.06549   -196957.33549  24855685.9674   24855696.3044
  25052975.610     2846011.31449   2183750.72749  25052975.8464   25052986.3234
  21156328.082     1771606.08249   1366051.46249  21156327.8894   21156334.9594
  21688895.945     -166101.40249   -160036.17949  21688896.1204   21688902.1134
  21840901.417     3138056.23249   2075739.63749  21840901.5384   21840908.6084
 98  1 30 16 55  0.0010000  0  7 22 19  3 29 16 18 14
  22630651.581     3159300.25249   2441044.82649  22630651.2864   22630657.7104
  22872317.925     -168486.41849   -132931.92049  22872317.7644   22872325.1644
  24850455.939     -279561.40449   -218372.13849  24850455.0984   24850466.1864
  25075617.893     2964996.60149   2276466.34649  25075618.3914   25075629.6224
  21168075.640     1833339.73549   1414155.58249  21168075.4064   21168082.4844
  21684321.269     -190141.57549   -178768.78549  21684321.1374   21684327.5774
  21862956.351     3253955.48249   2166050.66649  21862956.6404   21862963.9674
 98  1 30 16 55 30.0010000  0  7 22 19  3 29 16 18 14
  22652132.782     3272184.45149   2529006.49749  22652132.2854   22652138.9974
  22867711.577     -192692.94749   -151794.12549  22867711.3034   22867718.4774
  24845022.514     -308114.17149   -240621.00949  24845023.7884   24845032.8384
  25098058.213     3082920.51849   2368354.94249  25098058.0664   25098069.0424
  21179700.696     1894429.52849   1461757.99249  21179700.3994   21179707.5364
  21679551.510     -215206.83749   -198300.16349  21679551.4094   21679557.3664
  21884856.446     3369040.85549   2255727.50849  21884856.6294   21884864.2824
 98  1 30 16 56  0.0010000  0  6 22 19  3 16 18 14
  22673472.871     3384327.34849   2616390.52949  22673472.4424   22673479.1894
  22862919.548     -217875.19649   -171416.62849  22862919.2404   22862926.8154
  24839399.725     -337662.35849   -263645.53849  24839399.3224   24839410.2344
  21191212.307     1954923.28349   1508895.96049  21191211.8894   21191218.9344
  21674597.322     -241241.17349   -218586.66049  21674597.3094   21674603.4484
  21906615.209     3483383.56549   2344825.65349  21906615.4464   21906622.9374
 98  1 30 16 56 30.0010000  0  6 22 19  3 16 18 14
  22694679.142     3495766.89649   2703226.49349  22694678.6514   22694685.7154
  22857950.572     -243987.48149   -191763.83749  22857950.7804   22857957.4204
  24833599.304     -368143.66549   -287397.18749  24833598.6074   24833609.3144
  21202616.000     2014850.00249   1555592.07749  21202615.8154   21202622.9374
  21669469.480     -268188.27649   -239584.40249  21669469.4484   21669475.6244
  21928239.311     3597018.61549   2433372.37349  21928239.5964   21928247.0644
 98  1 30 16 57  0.0010000  0  6 22 19  3 16 18 14
  22715758.528     3606539.49549   2789542.76049  22715758.1684   22715765.1654
  22852812.168     -270990.15049   -212804.86249  22852811.8884   22852819.2524
  24827631.168     -399505.78049   -311835.17149  24827631.2094   24827641.4624
  21213921.238     2074259.14149   1601884.88749  21213921.1384   21213928.2014
  21664177.050     -296000.25349   -261256.07349  21664176.8824   21664183.2934
  21949735.506     3709981.43449   2521395.27649  21949735.6144   21949743.0444
 98  1 30 16 57 30.0010000  0  6 22 19  3 16 18 14
  22736717.461     3716679.09349   2875365.78149  22736716.9884   22736723.6504
  22847512.977     -298837.74749   -234504.27349  22847513.0564   22847520.2544
  24821503.310     -431707.60649   -336927.46749  24821502.9414   24821512.6944
  21225137.564     2133201.18349   1647813.72449  21225137.2434   21225144.4564
  21658731.473     -324617.08149   -283554.90349  21658731.6624   21658737.7974
  21971112.456     3822317.58749   2608929.87049  21971113.0054   21971120.2304
 98  1 30 16 58  0.0010000  0  6 22 19  3 16 18 14
  22757560.375     3826209.31449   2960713.95349  22757559.8194   22757566.3874
  22842059.737     -327494.46549   -256834.16049  22842059.6514   22842067.0834
  24815222.750     -464712.05549   -362645.21649  24815222.4994   24815233.2044
  21236272.815     2191717.23049   1693410.62349  21236272.4644   21236279.5564
  21653138.913     -354006.46949   -306455.72349  21653138.7944   21653144.8564
  21992377.509     3934065.82549   2696006.35649  21992377.3444   21992385.1694
 98  1 30 16 58 30.0010000  0  6 22 19  3 16 18 14
  22778294.226     3935166.14149   3045615.33449  22778293.7654   22778300.5754
  22836458.722     -356927.67849   -279769.11749  22836458.7194   22836465.9514
  24808794.687     -498491.63749   -388966.94849  24808793.8094   24808804.3114
  21247334.653     2249847.47149   1738706.88849  21247334.3864   21247341.4114
  21647404.956     -384138.66149   -329935.35649  21647404.9334   21647411.0624
  22013534.488     4045246.27749   2782640.40449  22013534.5074   22013542.2104
 98  1 30 16 59  0.0010000  0  6 22 19  3 16 18 14
  22798924.170     4043576.86149   3130091.17249  22798923.5044   22798930.3934
  22830713.006     -387121.33549   -303296.62949  22830713.0764   22830719.8724
  24802224.321     -533019.16949   -415871.50349  24802224.3674   24802233.8074
  21258330.679     2307631.80649   1783733.61549  21258330.3244   21258337.4934
  21641536.134     -414979.71649   -353967.35349  21641536.1964   21641542.0464
  22034592.951     4155908.93649   2868870.98149  22034593.5484   22034600.6674
 98  1 30 16 59 30.0010000  0  6 22 19  3 16 18 14
  22819457.266     4151478.69649   3214170.47449  22819457.0694   22819463.7324
  22824828.721     -418043.52349   -327391.83149  22824829.0204   22824835.8344
  24795518.147     -568260.76349   -443332.48649  24795517.8004   24795527.7354
  21269265.974     2365097.04649   1828511.69849  21269265.7344   21269272.9374
  21635537.605     -446502.27549   -378530.39349  21635537.4694   21635543.7344
  22055561.220     4266097.61249   2954732.22049  22055561.4234   22055569.1494
 98  1 30 17  0  0.0010000  0  6 22 19  3 16 18 14
  22839903.780     4258925.45749   3297895.17749  22839903.6944   22839910.4324
  22818815.500     -449643.42349   -352015.10849  22818815.9324   22818822.7244
  24788683.242     -604178.73549   -471320.51349  24788683.4324   24788692.9384
  21280148.975     2422287.46849   1873075.63749  21280148.7704   21280155.8394
  21629417.342     -478664.44849   -403591.83349  21629417.1764   21629423.4054
  22076445.535     4375845.09449   3040249.67249  22076445.9544   22076453.3554
 98  1 30 17  0 30.0010000  0  6 22 19  3 16 18 14
  22860271.550     4365958.41949   3381297.43649  22860271.1144   22860277.6214
  22812677.048     -481901.53649   -377151.28049  22812676.9924   22812684.2824
  24781724.060     -640750.06649   -499817.62249  24781724.4694   24781734.0844
  21290983.065     2479220.74649   1917439.20449  21290982.6694   21290990.1634
  21623183.262     -511424.67849   -429119.29449  21623183.2324   21623189.3814
  22097246.436     4485154.14649   3125425.48449  22097246.6344   22097254.2484
 98  1 30 17  1  0.0010000  0  6 22 19  3 16 18 14
  22880547.685     4472510.01749   3464324.60749  22880547.3374   22880553.8484
  22806401.982     -514877.35749   -402846.71549  22806401.5574   22806408.9454
  24774628.812     -678036.02249   -528871.59849  24774628.7414   24774638.2174
  21301754.157     2535822.95349   1961544.79349  21301753.9134   21301761.1254
  21616822.855     -544848.80049   -455164.07349  21616822.9254   21616828.8234
  22117950.857     4593956.24749   3210206.27349  22117951.2314   22117958.6984
 98  1 30 17  1 30.0010000  0  6 22 19  3 16 18 14
  22900732.694     4578582.77049   3546978.65549  22900732.5734   22900739.1304
  22799996.690     -548537.19649   -429075.15549  22799996.3714   22800003.6324
  24767399.655     -716025.63749   -558473.89349  24767399.2464   24767409.9494
  21312461.660     2592091.10749   2005390.08349  21312461.6004   21312468.7204
  21610338.238     -578925.82449   -481717.61049  21610338.1744   21610344.4964
  22138556.794     4702240.86049   3294583.82349  22138556.9564   22138564.6524
 98  1 30 17  2  0.0010000  0  6 22 19  3 16 18 14
  22920852.491     4684312.69949   3629365.57049  22920851.9744   22920858.6834
  22793487.499     -582742.95949   -455728.98649  22793487.7274   22793494.6164
  24760064.755     -754570.65349   -588508.95749  24760064.5244   24760074.2094
  21323131.742     2648162.74849   2049082.24649  21323131.4834   21323138.6354
  21603758.393     -613503.09649   -508660.94549  21603758.3894   21603764.5314
  22159090.396     4810145.51449   3378665.31249  22159090.3414   22159098.1044
 98  1 30 17  2 30.0010000  0  6 22 19  3 16 18 14
  22940908.524     4789707.59549   3711491.42849  22940907.5804   22940914.8794
  22786877.323     -617479.42149   -482796.34649  22786877.6334   22786884.6964
  24752631.798     -793631.00349   -618945.59849  24752631.9794   24752641.7214
  21333767.883     2704055.89249   2092635.31849  21333767.7004   21333774.9044
  21597085.801     -648568.06649   -535984.30449  21597085.8494   21597092.0834
  22179558.347     4917705.06049   3462477.87049  22179558.6714   22179566.0914
 98  1 30 17  3  0.0010000  0  6 22 19  3 16 18 14
  22960895.056     4894737.36549   3793332.76549  22960894.3244   22960901.6004
  22780166.533     -652745.06949   -510276.05549  22780166.7494   22780173.8194
  24745102.324     -833198.52749   -649777.43849  24745102.6624   24745111.6214
  21344368.669     2759763.19549   2136043.57749  21344368.3914   21344375.6104
  21590317.080     -684138.18149   -563701.28449  21590317.2544   21590323.2794
  22199960.668     5024919.69449   3546021.68049  22199960.8974   22199968.5944
 98  1 30 17  3 30.0010000  0  6 22 19  3 16 18 14
  22980806.350     4999371.85349   3874866.09849  22980806.2094   22980812.5704
  22773348.647     -688573.36149   -538194.19149  22773348.5094   22773355.7994
  24737472.277     -873294.94849   -681021.38349  24737472.3144   24737482.7184
  21354930.172     2815264.05349   2179290.97049  21354929.9304   21354937.1924
  21583448.738     -720231.90649   -591826.26849  21583448.6194   21583454.7434
  22220290.836     5131754.99749   3629269.91349  22220291.0834   22220298.4704
 98  1 30 17  4  0.0020000  0  6 22 19  3 16 18 14
  23000631.165     5103551.70349   3956045.17249  23000630.8554   23000637.7654
  22766409.053     -725041.36849   -566610.80449  22766409.2134   22766415.9134
  24729733.212     -913964.45449   -712711.87849  24729733.4424   24729742.7864
  21365443.709     2870512.85149   2222341.95049  21365443.5014   21365450.6884
  21576467.480     -756918.65049   -620413.34649  21576467.3824   21576473.4614
  22240537.963     5238154.00349   3712178.15649  22240538.1964   22240545.8964
 98  1 30 17  4 30.0020000  0  6 22 19  3 16 18 14
  23020368.372     5207271.08449   4036865.43549  23020367.8114   23020374.9894
  22759351.013     -762131.55749   -595512.24049  22759351.2294   22759357.9624
  24721887.967     -955191.50749   -744836.83449  24721887.6334   24721898.0894
  21375908.749     2925506.82549   2265194.37149  21375908.5064   21375915.7304
  21569375.180     -794189.02449   -649455.20149  21569375.0124   21569381.3094
  22260699.401     5344102.83249   3794735.60649  22260699.4184   22260707.2674
 98  1 30 17  5  0.0020000  0  6 22 19  3 16 18 14
  23040027.030     5310577.62449   4117364.00449  23040026.6114   23040032.7274
  22752181.368     -799808.34049   -624870.75049  22752181.0034   22752188.3254
  24713941.410     -996950.92549   -777376.64649  24713942.0544   24713950.9514
  21386331.600     2980279.16649   2307874.09249  21386331.5114   21386338.5754
  21562180.358     -831997.99449   -678916.74049  21562180.2934   21562186.5344
  22280779.825     5449626.07049   3876961.44249  22280779.8474   22280787.8834
 98  1 30 17  5 30.0020000  0  6 22 19  3 16 18 14
  23059618.330     5413530.42749   4197586.93849  23059618.0194   23059624.7954
  22744909.352     -838022.99949   -654648.39449  22744909.2674   22744916.4724
  24705899.989    -1039208.99349   -810304.99549  24705899.5824   24705909.7264
  21396720.684     3034873.94049   2350415.44849  21396720.5194   21396727.8894
  21554892.436     -870296.24849   -708759.53949  21554892.3694   21554898.5544
  22300789.442     5554777.04149   3958897.20249  22300789.5254   22300797.6104
 98  1 30 17  6  0.0020000  0  6 22 19  3 16 18 14
  23079152.283     5516181.92549   4277575.08849  23079152.2554   23079158.4114
  22737545.950     -876718.19149   -684800.47149  22737545.5854   22737553.0964
  24697774.552    -1081908.38349   -843577.21549  24697773.7974   24697784.2884
  21407081.627     3089320.75249   2392841.51049  21407081.6464   21407088.7734
  21547520.729     -909034.97849   -738945.56149  21547520.8024   21547526.9164
  22320739.632     5659615.63449   4040589.55349  22320739.5444   22320748.1474
 98  1 30 17  6 30.0020000  0  6 22 19  3 16 18 14
  23098640.882     5618595.08249   4357377.50749  23098640.3844   23098647.4624
  22730103.616     -915827.82649   -715275.48849  22730104.0164   22730110.9884
  24689574.084    -1125001.82249   -877156.48349  24689574.2334   24689583.3574
  21417423.676     3143668.11149   2435190.07249  21417423.4664   21417430.4794
  21540078.841     -948142.50749   -769418.96249  21540078.7844   21540085.0584
  22340641.527     5764200.48949   4122084.17549  22340641.5364   22340649.8504
 98  1 30 17  7  0.0020000  0  6 22 19  3 16 18 14
  23118086.448     5720781.94949   4437003.60249  23118085.8824   23118093.3224
  22722583.640     -955345.48749   -746068.45649  22722583.4234   22722590.2434
  24681301.280    -1168475.37549   -911031.94649  24681301.4314   24681310.7144
  21427752.297     3197945.30249   2477483.96549  21427751.9464   21427759.4234
  21532569.329     -987605.33849   -800169.22449  21532569.3124   21532575.2954
  22360500.404     5868559.31149   4203402.67849  22360500.7474   22360508.4694
 98  1 30 17  7 30.0020000  0  6 22 19  3 16 18 14
  23137494.572     5822772.13449   4516476.43749  23137493.9364   23137501.1974
  22714994.150     -995228.61849   -777146.21149  22714994.1774   22715001.0944
  24672965.774    -1212278.72249   -945164.39949  24672966.4214   24672975.8644
  21438076.020     3252196.86349   2519757.88349  21438075.8994   21438082.9224
  21524998.025    -1027393.03749   -831172.63349  21524998.0844   21525004.0864
  22380324.091     5972733.23149   4284577.10149  22380324.4644   22380332.1394
 98  1 30 17  8  0.0020000  0  6 22 19  3 16 18 14
  23156866.122     5924570.26049   4595799.62249  23156866.0754   23156872.5524
  22707334.209    -1035482.25649   -808512.66649  22707334.0004   22707340.6394
  24664569.805    -1256399.89349   -979544.49249  24664569.7444   24664579.5164
  21448397.858     3306438.41549   2562024.00149  21448397.7534   21448404.8924
  21517368.621    -1067486.02749   -862413.92649  21517368.5464   21517374.7674
  22400111.333     6076715.49249   4365602.17049  22400111.6054   22400119.3224
 98  1 30 17  8 30.0020000  0  6 22 19  3 16 18 14
  23176204.152     6026192.19249   4674985.49149  23176203.6484   23176211.1284
  22699608.314    -1076081.88049   -840148.71849  22699608.0184   22699614.7924
  24656117.112    -1300819.37749  -1014157.04549  24656117.4554   24656126.2274
  21458725.600     3360711.04949   2604314.33649  21458725.4534   21458732.6434
  21509687.234    -1107851.99649   -893867.93349  21509687.1134   21509693.3164
  22419863.610     6180513.83449   4446483.92849  22419863.7914   22419871.6904
 98  1 30 17  9  0.0020000  0  6 22 19  3 16 18 14
  23195509.305     6127641.19649   4754036.62249  23195508.8134   23195515.7254
  22691817.642    -1117021.75649   -872049.90049  22691817.7314   22691824.7064
  24647610.930    -1345519.56249  -1048988.29849  24647611.1744   24647620.5014
  21469061.331     3415025.43649   2646637.21149  21469061.0384   21469068.4054
  21501954.756    -1148486.50449   -925531.18649  21501954.7464   21501960.9094
  22439581.049     6284129.50549   4527223.34449  22439581.3214   22439589.1094
 98  1 30 17  9 30.0020000  0  6 22 19  3 16 18 14
  23214785.550     6228938.51049   4832969.55549  23214784.5394   23214792.2854
  22683968.272    -1158270.23349   -904191.55749  22683968.2664   22683975.2094
  24639057.660    -1390467.18049  -1084012.36349  24639058.1554   24639067.1714
  21479407.467     3469394.65249   2689002.80349  21479407.2664   21479414.5654
  21494177.872    -1189354.32649   -957376.24849  21494177.8004   21494184.0134
  22459265.774     6387572.93549   4607828.54049  22459265.9344   22459273.9294
 98  1 30 17 10  0.0020000  0  6 22 19  3 16 18 14
  23234039.406     6330117.96949   4911810.64749  23234039.1894   23234046.2464
  22676068.447    -1199784.27149   -936540.14949  22676068.6744   22676075.7814
  24630465.296    -1435620.13849  -1119196.42949  24630465.1444   24630474.9494
  21489770.661     3523853.47649   2731438.22049  21489770.4914   21489777.7114
  21486366.371    -1230404.07949   -989363.07349  21486366.4084   21486372.5524
  22478924.839     6490881.78749   4688328.87849  22478925.0944   22478932.7874
 98  1 30 17 10 30.0020000  0  6 22 19  3 16 18 14
  23253257.837     6431111.20649   4990506.62349  23253257.4454   23253264.6834
  22668108.626    -1241613.69449   -969134.49949  22668108.6454   22668115.6974
  24621824.407    -1481028.26149  -1154579.32549  24621823.6564   24621833.0444
  21500137.922     3578333.64749   2773890.27149  21500137.7944   21500144.8474
  21478506.206    -1271709.82949  -1021549.37749  21478505.9404   21478512.0844
  22498549.070     6594007.35649   4768686.40749  22498549.7484   22498557.2774
 98  1 30 17 11  0.0020000  0  6 22 19  3 16 18 14
  23272436.029     6531893.22749   5069038.02949  23272435.5584   23272442.6894
  22660081.238    -1283798.02749  -1002005.40349  22660081.1024   22660087.9864
  24613130.240    -1526715.85049  -1190180.00049  24613129.7954   24613138.7634
  21510503.474     3632804.67649   2816335.20249  21510503.3584   21510510.7574
  21470591.055    -1313303.96649  -1053960.39149  21470590.9694   21470597.1394
  22518135.259     6696933.13949   4848888.25849  22518135.5794   22518143.6344
 98  1 30 17 11 30.0020000  0  6 22 19  3 16 18 14
  23291575.464     6632471.39549   5147410.58249  23291574.9384   23291582.7854
  22651990.000    -1326317.76649  -1035137.65449  22651989.9744   22651996.9394
  24604385.110    -1572671.26349  -1225989.33849  24604383.7704   24604394.3694
  21520868.830     3687274.74649   2858779.38549  21520868.6534   21520875.9704
  21462625.521    -1355163.19549  -1086577.97149  21462625.4544   21462631.5564
  22537687.486     6799680.29649   4928950.92049  22537687.4744   22537696.0864
 98  1 30 17 12  0.0020000  0  6 22 19  3 16 18 14
  23310679.631     6732864.20649   5225638.70049  23310679.3034   23310686.3644
  22643838.669    -1369153.25249  -1068515.95349  22643838.5874   22643845.9184
  24595589.816    -1618890.53549  -1262004.30349  24595589.2684   24595598.7874
  21531237.900     3741764.33749   2901238.77949  21531237.5744   21531245.0394
  21454612.053    -1397274.19249  -1119391.73549  21454612.2414   21454618.3034
  22557209.762     6902270.31949   5008891.13849  22557209.8394   22557217.9334
 98  1 30 17 12 30.0020000  0  6 22 19  3 16 18 14
  23329751.985     6833089.96049   5303736.64649  23329751.1094   23329758.0494
  22635627.576    -1412302.62749  -1102138.83649  22635627.5114   22635634.8084
  24586746.810    -1665360.60549  -1298214.72049  24586745.9304   24586756.3094
  21541613.330     3796287.54449   2943724.36549  21541613.2114   21541620.3714
  21446554.203    -1439618.67149  -1152387.43749  21446554.4794   21446560.7034
  22576702.440     7004704.63849   5088710.03049  22576702.4644   22576710.9034
 98  1 30 17 13  0.0020000  0  6 22 19  3 16 18 14
  23348792.964     6933150.66049   5381705.97549  23348792.9674   23348799.4074
  22627357.913    -1455760.20249  -1136001.88349  22627357.8864   22627364.7664
  24577856.974    -1712076.64849  -1334616.80349  24577856.3944   24577865.7724
  21551996.080     3850849.10349   2986239.83749  21551995.9244   21552003.2234
  21438455.588    -1482177.18049  -1185549.91249  21438455.4964   21438461.8004
  22596163.442     7106972.73449   5168399.38249  22596163.1924   22596171.6344
 98  1 30 17 13 30.0020000  0  6 22 19  3 16 18 14
  23367803.668     7033052.30649   5459551.37649  23367803.3464   23367810.1404
  22619032.118    -1499512.67149  -1170094.71349  22619031.7804   22619038.9104
  24568921.504    -1759032.74949  -1371205.92449  24568921.3504   24568930.7104
  21562386.280     3905449.70449   3028785.72849  21562386.1314   21562393.4334
  21430317.983    -1524940.61349  -1218872.07049  21430317.9304   21430324.1314
  22615592.277     7209072.08449   5247957.24949  22615592.7414   22615600.8944
 98  1 30 17 14  0.0020000  0  6 22 19  3 16 18 14
  23386784.775     7132798.59049   5537275.70749  23386784.3464   23386792.4324
  22610647.554    -1543573.81149  -1204428.05849  22610647.6044   22610654.6614
  24559941.749    -1806221.58349  -1407976.41749  24559941.8164   24559950.6784
  21572784.847     3960094.35749   3071365.94649  21572784.7024   21572791.8994
  21422141.262    -1567909.55949  -1252354.36049  21422141.2704   21422147.4844
  22634985.741     7310985.29649   5327370.07149  22634986.1354   22634994.1484
 98  1 30 17 14 30.0020000  0  6 22 19  3 16 18 14
  23405737.978     7232398.17449   5614885.72949  23405737.3454   23405744.7194
  22602206.355    -1587932.52949  -1238993.28349  22602206.5284   22602213.0454
  24550925.264    -1853603.55149  -1444897.40949  24550925.5284   24550935.4984
  21583194.026     4014794.64149   3113989.51249  21583193.7664   21583201.0304
  21413929.159    -1611064.42849  -1285981.52949  21413929.2354   21413935.2874
  22654346.746     7412728.02049   5406650.05249  22654346.9424   22654355.1574
 98  1 30 17 15  0.0020000  0  7 22 19  3 31 16 18 14
  23424667.517     7331873.49149   5692398.91449  23424667.5004   23424674.5334
  22593715.860    -1632550.62449  -1273760.62649  22593716.0464   22593722.6494
  24541878.663    -1901143.70249  -1481941.67749  24541879.1414   24541887.4954
  25281917.289    -3318312.78849  -2584063.78849  25281917.4234   25281928.7354
  21593618.565     4069575.76049   3156676.06649  21593618.4494   21593625.5494
  21405687.646    -1654374.09749  -1319729.32049  21405687.6414   21405693.8824
  22673682.698     7514338.81449   5485827.23849  22673682.7764   22673691.3204
 98  1 30 17 15 30.0020000  0  7 22 19  3 31 16 18 14
  23443593.088     7431327.65449   5769895.61549  23443592.7984   23443599.4454
  22585194.732    -1677329.52249  -1308653.26249  22585194.6854   22585201.8054
  24532823.186    -1948730.89449  -1519022.59949  24532822.5304   24532832.4264
  25266448.137    -3399605.29149  -2647408.54749  25266448.4624   25266459.1804
  21604079.335     4124547.38749   3199511.07149  21604079.0774   21604086.3724
  21397436.554    -1697733.92049  -1353516.19249  21397436.4234   21397442.5744
  22693012.377     7615916.73649   5564978.79849  22693012.5244   22693020.5554
 98  1 30 17 16  0.0020000  0  7 22 19  3 31 16 18 14
  23462503.985     7530704.79549   5847332.28849  23462503.3174   23462511.2174
  22576633.659    -1722318.09349  -1343709.28549  22576633.5124   22576640.5754
  24523752.745    -1996396.74049  -1556164.80649  24523752.7594   24523761.6084
  25250895.698    -3481333.54149  -2711092.69749  25250895.3794   25250907.3774
  21614567.084     4179660.79749   3242456.55649  21614566.8074   21614574.2514
  21389166.318    -1741194.15249  -1387381.31049  21389166.2284   21389172.4754
  22712326.689     7717413.97349   5644067.49049  22712326.8934   22712335.1114
 98  1 30 17 16 30.0020000  0  7 22 19  3 31 16 18 14
  23481405.977     7630035.18549   5924732.54249  23481405.1714   23481413.0584
  22568040.706    -1767474.18649  -1378895.84949  22568040.8304   22568047.7844
  24514673.772    -2044106.96849  -1593341.57649  24514674.1444   24514683.5154
  25235266.910    -3563463.81149  -2775090.19749  25235266.6284   25235278.4184
  21625087.206     4234944.19049   3285534.49549  21625086.9444   21625094.2774
  21380883.015    -1784723.08249  -1421299.96249  21380882.6934   21380889.0584
  22731633.507     7818871.87149   5723125.52349  22731633.6774   22731641.4754
 98  1 30 17 17  0.0020000  0  7 22 19  3 31 16 18 14
  23500289.923     7729270.74549   6002058.90649  23500289.7284   23500297.1754
  22559404.552    -1812857.38149  -1414259.36349  22559404.7094   22559411.4734
  24505574.708    -2091922.78949  -1630600.61649  24505574.3044   24505584.4564
  25219554.181    -3646033.93649  -2839430.34749  25219554.2964   25219565.1144
  21635629.653     4290345.01149   3328703.93849  21635629.5354   21635636.8634
  21372577.073    -1828371.05449  -1455311.37149  21372577.1834   21372583.3224
  22750920.276     7920224.18349   5802101.29149  22750920.5854   22750928.7844
 98  1 30 17 17 30.0020000  0  7 22 19  3 31 16 18 14
  23519147.720     7828368.89649   6079278.19749  23519147.0634   23519155.1044
  22550715.982    -1858516.21149  -1449837.65549  22550715.8844   22550723.0444
  24496447.312    -2139887.59849  -1667975.74849  24496447.6024   24496456.5924
  25203750.493    -3729082.28049  -2904143.26349  25203747.9784   25203762.0134
  21646186.108     4345819.40249   3371930.69949  21646185.7974   21646193.1374
  21364238.463    -1872190.95849  -1489456.74949  21364238.5154   21364244.4884
  22770178.971     8021428.93949   5880962.08649  22770179.6134   22770187.5024
 98  1 30 17 18  0.0020000  0  7 22 19  3 31 16 18 14
  23537984.040     7927354.23249   6156409.57849  23537984.1034   23537991.3784
  22541980.189    -1904423.31949  -1485609.41449  22541980.4424   22541986.8174
  24487296.475    -2187975.34749  -1705446.65849  24487297.1874   24487305.5574
  25187855.447    -3812610.09249  -2969229.62949  25187855.9804   25187867.4394
  21656756.849     4401368.89049   3415215.97649  21656756.6594   21656763.8904
  21355870.684    -1916163.99149  -1523721.45249  21355870.7084   21355876.9274
  22789415.857     8122519.02449   5959733.52449  22789415.9764   22789424.5734
 98  1 30 17 18 30.0020000  0  7 22 19  3 31 16 18 14
  23556802.721     8026246.72149   6233468.61849  23556802.2254   23556808.7504
  22533203.803    -1950543.81249  -1521547.44749  22533203.7184   22533210.9964
  24478126.944    -2236161.47949  -1742994.23349  24478126.9254   24478136.6074
  25171873.293    -3896596.56849  -3034673.50949  25171870.9564   25171884.3514
  21667345.353     4457011.74349   3458574.00749  21667345.0894   21667352.3714
  21347481.292    -1960250.59249  -1558074.65049  21347481.3464   21347487.6464
  22808635.365     8223518.05349   6038434.00349  22808635.6104   22808644.0224
 98  1 30 17 19  0.0020000  0  7 22 19  3 31 16 18 14
  23575597.293     8125012.65349   6310429.04349  23575596.4544   23575604.2064
  22524384.490    -1996889.56249  -1557661.00949  22524384.4834   22524391.4194
  24468935.715    -2284461.86549  -1780630.83349  24468935.1994   24468944.2644
  25155798.651    -3981068.66649  -3100495.75149  25155798.6334   25155809.5734
  21677946.707     4512722.21749   3501984.72949  21677946.4404   21677953.8254
  21339066.309    -2004471.69549  -1592532.65649  21339066.3224   21339072.5314
  22827834.324     8324408.88649   6117050.16849  22827834.5894   22827842.8664
 98  1 30 17 19 30.0020000  0  7 22 19  3 31 16 18 14
  23594370.697     8223667.38549   6387302.81749  23594369.5184   23594377.8454
  22515529.407    -2043422.94149  -1593920.77949  22515529.2434   22515536.1524
  24459729.253    -2332842.01049  -1818329.57349  24459728.9624   24459738.2244
  25139636.593    -4066000.12649  -3166675.98349  25139636.0124   25139646.6324
  21688566.009     4568526.84049   3545468.81749  21688565.9284   21688573.1984
  21330631.482    -2048797.23949  -1627072.04349  21330631.1814   21330637.5854
  22847018.383     8425221.31449   6195605.24249  22847018.6984   22847027.0614
 98  1 30 17 20  0.0020000  0  7 22 19  3 31 16 18 14
  23613141.139     8322306.60749   6464164.51249  23613140.4534   23613148.2814
  22506659.959    -2090031.96449  -1630239.48549  22506659.6444   22506667.2034
  24450531.857    -2381174.18649  -1855990.90749  24450532.1994   24450541.0964
  25123411.358    -4151264.19449  -3233115.40449  25123411.2444   25123422.6364
  21699224.840     4624539.09349   3589114.69449  21699224.7794   21699232.4344
  21322202.166    -2093093.57949  -1661588.67049  21322202.0674   21322208.4254
  22866205.941     8526052.28149   6274174.76549  22866206.3454   22866214.8824
 98  1 30 17 20 30.0020000  0  7 22 19  3 31 16 18 14
  23631905.298     8420912.73049   6541000.39949  23631904.8834   23631911.8214
  22497773.977    -2136728.17849  -1666626.12949  22497774.1254   22497780.9584
  24441342.368    -2429465.27949  -1893620.24849  24441341.8514   24441351.0214
  25107126.654    -4236840.03749  -3299797.73549  25107126.1584   25107137.5094
  21709924.950     4680768.44749   3632929.73449  21709924.6124   21709932.1514
  21313781.467    -2137344.71449  -1696070.07749  21313781.4664   21313787.5744
  22885394.435     8626888.06649   6352748.03649  22885394.4414   22885403.3814
 98  1 30 17 21  0.0020000  0  7 22 19  3 31 16 18 14
  23650657.528     8519456.17849   6617787.46349  23650657.1714   23650665.0244
  22488863.291    -2183554.39649  -1703114.07249  22488863.3044   22488870.3214
  24432155.661    -2477741.69249  -1931238.13049  24432155.5514   24432164.7374
  25090780.293    -4322740.76149  -3366733.33949  25090779.9154   25090791.2124
  21720662.456     4737194.29149   3676897.88649  21720662.1584   21720669.6444
  21305362.811    -2181585.16949  -1730543.15949  21305362.9644   21305369.0514
  22904577.090     8727693.30049   6431297.49749  22904576.9014   22904585.4574
 98  1 30 17 21 30.0020000  0  7 22 19  3 31 16 18 14
  23669398.875     8617942.45349   6694529.96349  23669398.1574   23669404.9574
  22479924.192    -2230529.72549  -1739718.20849  22479924.1824   22479931.2124
  24422970.520    -2526009.56149  -1968849.37149  24422969.4904   24422979.1094
  25074373.563    -4408958.21249  -3433915.59749  25074373.3834   25074384.9824
  21731436.171     4793810.50149   3721014.37049  21731435.9204   21731443.4804
  21296946.306    -2225814.42349  -1765007.51349  21296946.3814   21296952.2484
  22923750.380     8828449.28649   6509808.58549  22923750.6384   22923758.6914
 98  1 30 17 22  0.0020000  0  7 22 19  3 31 16 18 14
  23688126.544     8716356.76249   6771216.39549  23688125.2624   23688133.4594
  22470953.282    -2277672.07949  -1776452.49549  22470953.2834   22470960.2644
  24413782.466    -2574292.51849  -2006472.37049  24413782.1104   24413791.3154
  25057900.758    -4495523.54449  -3501369.03049  25057899.9674   25057910.9734
  21742242.464     4850597.66849   3765264.07049  21742242.2394   21742249.5994
  21288528.365    -2270050.95749  -1799477.54249  21288528.3884   21288534.4494
  22942911.187     8929139.75249   6588268.62349  22942911.4234   22942919.5704
 98  1 30 17 22 30.0020000  0  8 22 19  3 31 16 18 27 14
  23706843.764     8814716.18649   6847860.05449  23706843.7344   23706850.9424
  22461951.980    -2324973.99849  -1813311.12249  22461952.0444   22461958.7874
  24404589.017    -2622604.16349  -2044117.71749  24404589.0954   24404598.3994
  25041361.126    -4582439.34449  -3569095.45049  25041361.0174   25041372.1424
  21753082.171     4907560.66449   3809650.78049  21753082.0754   21753089.4194
  21280107.452    -2314303.07249  -1833959.71149  21280107.4884   21280113.4774
  25713892.105    -3280652.40349  -2213839.66049  25713891.9734   25713900.7354
  22962062.307     9029779.33049   6666689.00549  22962062.7054   22962071.0524
 98  1 30 17 23  0.0020000  0  8 22 19  3 31 16 18 27 14
  23725547.626     8913005.32549   6924448.93749  23725547.9654   23725554.9224
  22452918.195    -2372446.98249  -1850303.03949  22452918.2484   22452925.3284
  24395386.199    -2670965.23549  -2081801.59349  24395385.5564   24395394.8824
  25024747.835    -4669742.19649  -3637123.52649  25024747.2684   25024757.1234
  21763951.198     4964677.49349   3854157.36849  21763951.2004   21763958.3584
  21271676.091    -2358610.10049  -1868484.66249  21271675.9454   21271682.1844
  25700129.133    -3352977.37349  -2270196.69249  25700129.2214   25700138.3054
  22981199.773     9130347.14549   6745053.46349  22981199.8064   22981208.7434
 98  1 30 17 23 30.0020000  0  8 22 19  3 31 16 18 27 14
  23744232.627     9011195.51849   7000960.71949  23744231.9304   23744239.7524
  22443846.538    -2420118.81249  -1887449.91049  22443846.4084   22443853.5634
  24386166.510    -2719414.83749  -2119554.46449  24386166.1284   24386174.6584
  25008052.539    -4757475.52149  -3705486.99949  25008052.2164   25008063.3094
  21774842.638     5021912.08649   3898755.71549  21774842.6904   21774849.9044
  21263228.676    -2403001.60749  -1903075.44749  21263228.5734   21263234.7604
  25686308.680    -3425604.41449  -2326789.10949  25686308.3094   25686316.9384
  23000317.701     9230812.08349   6823337.76149  23000317.8114   23000326.7324
 98  1 30 17 24  0.0020000  0  8 22 19  3 31 16 18 27 14
  23762897.263     9109278.64149   7077389.06649  23762896.5294   23762905.0184
  22434738.274    -2467983.07549  -1924746.71549  22434738.4444   22434745.2694
  24376931.210    -2767946.01049  -2157370.87449  24376930.6324   24376940.1804
  24991274.196    -4845645.12949  -3774190.41149  24991275.1704   24991283.7184
  21785756.644     5079265.40749   3943446.57849  21785756.4554   21785764.0134
  21254764.330    -2447481.97649  -1937735.47149  21254764.1734   21254770.4964
  25672425.170    -3498562.09649  -2383639.17149  25672426.0294   25672433.7824
  23019417.147     9331180.11649   6901546.54449  23019417.5294   23019426.0544
 98  1 30 17 24 30.0020000  0  8 22 19  3 31 16 18 27 14
  23781562.739     9207366.35949   7153820.99749  23781562.2374   23781569.8024
  22425613.479    -2515934.31449  -1962111.30949  22425613.8414   22425620.7064
  24367703.510    -2816437.68049  -2195156.50749  24367703.2304   24367712.5114
  24974436.918    -4934125.78349  -3843136.29349  24974435.8884   24974447.3874
  21796711.135     5136831.52049   3988303.24949  21796710.9014   21796718.4514
  21246303.795    -2491942.25749  -1972379.85249  21246303.7604   21246309.9824
  25658497.248    -3571754.15249  -2440671.84249  25658497.6424   25658505.5814
  23038517.336     9431551.83049   6979758.18849  23038517.4564   23038526.2284
 98  1 30 17 25  0.0020000  0  8 22 19  3 31 16 18 27 14
  23800233.869     9305483.65649   7230275.97049  23800233.8214   23800240.1534
  22416479.114    -2563935.71149  -1999514.98449  22416479.1044   22416485.9654
  24358491.698    -2864846.06649  -2232877.23749  24358491.0884   24358500.9574
  24957548.542    -5022873.87449  -3912290.46849  24957548.6394   24957558.1604
  21807712.115     5194641.83149   4033350.20449  21807711.9054   21807719.4784
  21237852.842    -2536352.34249  -2006985.11749  21237852.9704   21237858.9164
  25644530.230    -3645151.22149  -2497864.30249  25644530.1914   25644538.6894
  23057619.956     9531936.54149   7057979.97449  23057619.8424   23057628.0854
 98  1 30 17 25 30.0020000  0  8 22 19  3 31 16 18 27 14
  23818901.391     9403581.85349   7306716.06149  23818900.8484   23818908.5924
  22407326.732    -2612031.72049  -2036992.37649  22407326.7404   22407333.8584
  24349289.329    -2913204.62449  -2270559.15849  24349288.5984   24349298.5284
  24940605.492    -5111909.70349  -3981668.90849  24940605.2984   24940615.7004
  21818750.208     5252647.36549   4078549.28249  21818749.9044   21818757.4764
  21229404.870    -2580746.77849  -2041578.18449  21229404.9994   21229411.1474
  25630514.201    -3718805.61549  -2555257.27549  25630514.3844   25630523.2994
  23076714.908     9632280.84049   7136170.26849  23076715.3324   23076723.2634
 98  1 30 17 26  0.0020000  0  8 22 19  3 31 16 18 27 14
  23837567.346     9501671.83849   7383149.76749  23837567.3664   23837574.8894
  22398161.291    -2660196.43749  -2074523.31149  22398161.1264   22398168.1104
  24340104.056    -2961473.20049  -2308170.99649  24340104.1574   24340112.2814
  24923614.540    -5201196.97949  -4051243.27449  24923614.1114   24923625.1874
  21829827.015     5310856.15049   4123906.73749  21829826.9354   21829834.4054
  21220966.635    -2625090.25149  -2076131.53549  21220966.7704   21220972.7894
  25616455.275    -3792685.79549  -2612826.17349  25616453.9084   25616464.0154
  23095803.417     9732591.37449   7214334.25349  23095803.6884   23095811.9254
 98  1 30 17 26 30.0020000  0  8 22 19  3 31 16 18 27 14
  23856225.144     9599718.94049   7459550.05449  23856225.2494   23856232.7164
  22388975.312    -2708468.90049  -2112138.20949  22388975.3654   22388982.4384
  24330931.054    -3009677.01849  -2345732.35749  24330930.5374   24330940.6094
  24906572.807    -5290751.26849  -4121025.64449  24906571.8394   24906583.8954
  21840937.026     5369239.49049   4169400.20549  21840936.8844   21840944.5534
  21212533.273    -2669408.05049  -2110664.88849  21212533.1894   21212539.3034
  25602347.928    -3866819.90349  -2670592.93449  25602347.8334   25602356.8634
  23114875.834     9832817.15549   7292432.19149  23114876.1244   23114884.3134
 98  1 30 17 27  0.0020000  0  8 22 19  3 31 16 18 27 14
  23874880.043     9697750.68349   7535938.37449  23874879.6554   23874887.3404
  22379776.344    -2756809.74649  -2149806.38749  22379776.5034   22379783.4394
  24321780.734    -3057761.98049  -2383201.08649  24321780.6024   24321789.6284
  24889486.979    -5380537.03749  -4190988.43249  24889486.1874   24889496.9164
  21852092.472     5427861.68549   4215079.80149  21852092.2214   21852099.7374
  21204113.932    -2713651.87049  -2145140.59549  21204114.0274   21204120.0094
  25588200.546    -3941164.43249  -2728523.67549  25588200.2384   25588209.3884
  23133939.597     9932997.58649   7370494.80049  23133939.4774   23133948.0134
 98  1 30 17 27 30.0020000  0  8 22 19  3 31 16 18 27 14
  23893533.226     9795773.59049   7612319.80349  23893533.1614   23893540.4884
  22370564.929    -2805216.22849  -2187525.71549  22370564.9904   22370571.9834
  24312658.179    -3105701.04049  -2420556.13849  24312658.1874   24312667.6094
  24872358.422    -5470547.92849  -4261126.60749  24872356.9164   24872368.8914
  21863293.219     5486721.86649   4260944.84049  21863292.9774   21863300.6024
  21195712.601    -2757801.25249  -2179542.71349  21195712.5844   21195718.6714
  25574020.378    -4015681.75749  -2786589.07249  25574020.1744   25574028.6004
  23152999.611    10033158.17949   7448541.95349  23153000.4914   23153008.2294
 98  1 30 17 28  0.0020000  0  8 22 19  3 31 16 18 27 14
  23912190.494     9893817.74649   7688717.79049  23912190.5054   23912197.2834
  22361346.110    -2853661.67949  -2225275.41049  22361346.2824   22361353.1794
  24303569.938    -3153459.80049  -2457770.71649  24303569.1994   24303578.7104
  24855192.996    -5560752.07649  -4331415.38149  24855192.5684   24855203.6374
  21874545.651     5545853.71849   4307021.56849  21874545.4174   21874553.1864
  21187335.611    -2801822.81449  -2213845.22649  21187335.6034   21187341.8714
  25559815.158    -4090330.98449  -2844757.24949  25559815.4984   25559823.8884
  23172063.688    10133340.28349   7526605.85249  23172063.6344   23172071.7874
 98  1 30 17 28 30.0020000  0  8 22 19  3 31 16 18 27 14
  23930850.675     9991877.22249   7765127.72449  23930850.8174   23930857.9224
  22352118.670    -2902152.15649  -2263060.19549  22352118.4304   22352125.2724
  24294510.567    -3201066.83149  -2494867.06949  24294510.0714   24294519.7204
  24837988.908    -5651158.95349  -4401862.11049  24837987.7494   24838000.1234
  21885852.453     5605271.28349   4353320.93349  21885852.3904   21885859.8014
  21178979.408    -2845734.89149  -2248062.43249  21178979.3084   21178985.5574
  25545584.522    -4165113.51149  -2903029.30649  25545584.7704   25545592.8994
  23191133.174    10233550.70449   7604691.81649  23191133.7024   23191141.8644
 98  1 30 17 29  0.0020000  0  8 22 19  3 31 16 18 27 14
  23949499.505    10089877.19149   7841491.28549  23949498.8974   23949505.9894
  22342870.117    -2950753.36049  -2300931.25749  22342869.9234   22342876.8374
  24285465.033    -3248601.35349  -2531906.88649  24285464.8534   24285474.1114
  24820731.311    -5741847.29749  -4472528.18749  24820731.0354   24820741.5824
  21897197.032     5664887.08149   4399774.76249  21897197.0764   21897204.7674
  21170631.325    -2889604.45549  -2282246.50749  21170631.3474   21170637.4644
  25531317.802    -4240085.32049  -2961448.85549  25531318.0364   25531326.1114
  23210198.483    10333739.27249   7682760.75049  23210198.3744   23210207.8174
 98  1 30 17 29 30.0020000  0  8 22 19  3 31 16 18 27 14
  23968138.359    10187824.74749   7917814.00649  23968138.4934   23968145.3704
  22333602.315    -2999455.73849  -2338881.15449  22333602.2894   22333609.2624
  24276428.969    -3296086.02749  -2568907.87949  24276429.0184   24276437.4974
  24803423.011    -5832803.14949  -4543402.71249  24803423.0284   24803433.9104
  21908574.801     5724677.36749   4446364.55449  21908574.6494   21908582.1024
  21162292.047    -2933427.59949  -2316394.40949  21162291.9304   21162298.1674
  25517015.094    -4315246.53349  -3020015.99949  25517014.7584   25517022.8884
  23229259.751    10433906.58449   7760813.11149  23229259.8384   23229268.6414
 98  1 30 17 30  0.0020000  0  8 22 19  3 31 16 18 27 14
  23986765.129    10285708.89149   7994087.31349  23986764.7484   23986772.0654
  22324313.812    -3048267.38949  -2376916.19249  22324313.9394   22324320.9934
  24267396.983    -3343549.23249  -2605892.14649  24267396.3314   24267405.4504
  24786060.626    -5924042.96349  -4614498.53749  24786060.4574   24786070.3414
  21919986.799     5784647.52349   4493094.50549  21919986.7294   21919994.2174
  21153959.246    -2977216.63449  -2350515.73949  21153959.2294   21153965.2944
  25502667.457    -4390643.12049  -3078766.55949  25502666.9614   25502675.9764
  23248312.326    10534028.12249   7838829.80749  23248312.4584   23248320.7534
 98  1 30 17 30 30.0020000  0  8 22 19  3 31 16 18 27 14
  24005378.102    10383520.33049   8070303.97349  24005378.0234   24005384.6024
  22315002.848    -3097196.91749  -2415043.08349  22315002.8654   22315009.6104
  24258367.841    -3390997.54449  -2642864.79449  24258367.2424   24258376.9854
  24768639.392    -6015592.39849  -4685835.62249  24768637.8394   24768649.6214
  21931429.992     5844781.76949   4539952.32049  21931429.8074   21931437.4394
  21145631.143    -3020981.02449  -2384617.86349  21145631.2644   21145637.3184
  25488271.864    -4466292.25849  -3137713.92549  25488271.7674   25488279.9964
  23267352.136    10634082.47849   7916794.15849  23267352.5174   23267360.7924
 98  1 30 17 31  0.0020000  0  8 22 19  3 31 16 18 27 14
  24023995.119    10481353.18149   8146537.31449  24023995.9144   24024002.4074
  22305686.130    -3146156.65849  -2453193.51649  22305686.1254   22305692.9554
  24249364.821    -3438308.55349  -2679730.43049  24249364.6544   24249373.7354
  24751178.657    -6107348.49249  -4757333.74149  24751177.9264   24751188.6424
  21942918.030     5905151.59849   4586993.70249  21942917.7944   21942925.6274
  21137328.090    -3064613.83749  -2418617.46449  21137328.0024   21137334.2254
  25473843.477    -4542113.73049  -3196795.58149  25473841.9764   25473851.6234
  23286394.882    10734152.49449   7994770.71149  23286394.7344   23286403.1414
 98  1 30 17 31 30.0020000  0  8 22 19  3 31 16 18 27 14
  24042622.714    10579241.49849   8222813.87149  24042622.5894   24042629.3204
  22296368.749    -3195119.52349  -2491346.39249  22296368.8154   22296375.4954
  24240394.233    -3485449.08649  -2716463.21749  24240394.1144   24240402.3794
  24733686.469    -6199269.47349  -4828960.30949  24733686.2654   24733696.0834
  21954459.983     5965804.81949   4634255.91249  21954459.9844   21954467.4324
  21129055.544    -3108086.47649  -2452492.24749  21129055.6194   21129061.7914
  25459385.126    -4618092.64549  -3255999.91049  25459385.6244   25459393.8514
  23305442.328    10834247.19349   8072766.49549  23305442.8284   23305451.0864
 98  1 30 17 32  0.0020000  0  8 22 19  3 31 16 18 27 14
  24061258.845    10677174.66249   8299125.38449  24061258.4374   24061265.6724
  22287049.183    -3244093.85149  -2529508.19549  22287049.4074   22287056.2474
  24231461.113    -3532392.68949  -2753042.56749  24231460.9294   24231469.6874
  24716161.971    -6291360.49149  -4900719.37949  24716160.9684   24716172.2124
  21966056.838     6026746.44049   4681742.85349  21966056.7954   21966064.3544
  21120813.687    -3151397.87449  -2486241.38049  21120813.8754   21120819.9384
  25444896.869    -4694229.10849  -3315327.01849  25444896.1754   25444903.9364
  23324493.095    10934359.18649   8150775.75249  23324493.1694   23324502.0764
 98  1 30 17 32 30.0020000  0  9 22 19  3 31 16 18 27 13 14
  24079911.660    10775195.70049   8375505.35949  24079910.9554   24079918.1204
  22277734.334    -3293043.81149  -2567651.01049  22277734.5854   22277741.3264
  24222574.167    -3579093.71749  -2789432.88349  24222573.2514   24222582.5694
  24698617.285    -6383557.78049  -4972561.28649  24698616.2444   24698627.0454
  21977711.750     6087993.22749   4729467.58949  21977711.5574   21977719.3744
  21112612.489    -3194495.40549  -2519823.87349  21112612.5124   21112618.6854
  25430390.559    -4770460.30249  -3374727.94549  25430390.6574   25430398.2664
  25158171.704    -1435032.03049   -661445.00049  25158173.7394   25158180.2084
  23343556.869    11034539.68149   8228838.38249  23343557.3024   23343565.4474
 98  1 30 17 33  0.0020000  0  9 22 19  3 31 16 18 27 13 14
  24098574.338    10873268.74049   8451925.86449  24098573.5454   24098582.0584
  22268418.617    -3341998.40449  -2605797.43049  22268418.5954   22268425.6324
  24213727.704    -3625581.54949  -2825657.05349  24213726.8264   24213735.7134
  24681051.197    -6475867.59949  -5044490.86849  24681050.9544   24681061.2734
  21989420.252     6149521.73349   4777411.84449  21989419.9514   21989427.7804
  21104446.756    -3237406.70249  -2553261.24549  21104446.5864   21104452.8984
  25415861.769    -4846809.94149  -3434221.16549  25415861.1254   25415869.5814
  25139823.659    -1531451.76449   -736577.24849  25139823.6524   25139830.3484
  23362626.870    11134752.98549   8306926.58249  23362627.0404   23362635.8974
 98  1 30 17 33 30.0020000  0  9 22 19  3 31 16 18 27 13 14
  24117235.322    10971332.71549   8528339.28449  24117234.7864   24117243.2384
  22259095.690    -3390990.93849  -2643973.41949  22259095.6794   22259102.5844
  24204911.697    -3671909.37449  -2861756.54849  24204911.7284   24204920.5254
  24663454.039    -6568341.14349  -5116548.01749  24663454.0064   24663463.8794
  22001175.870     6211297.80149   4825549.00049  22001175.8334   22001183.2784
  21096307.225    -3280180.17249  -2586591.22549  21096307.1004   21096313.1514
  25401303.834    -4923312.63149  -3493833.62249  25401303.3544   25401311.0914
  25121426.262    -1628130.61949   -811911.39549  25121425.9294   25121434.7504
  23381694.522    11234953.52249   8385004.82849  23381695.1594   23381703.6504
 98  1 30 17 34  0.0020000  0  9 22 19  3 31 16 18 27 13 14
  24135897.572    11069403.54749   8604758.07049  24135896.5074   24135904.8194
  22249771.354    -3439990.70449  -2682155.04249  22249771.1744   22249778.2404
  24196132.707    -3718042.85949  -2897704.63749  24196133.2654   24196140.9944
  24645830.187    -6660954.87849  -5188714.40449  24645829.5674   24645840.2924
  22012980.963     6273333.79649   4873888.70049  22012980.9404   22012988.3794
  21088200.783    -3322779.92449  -2619785.83449  21088200.8624   21088206.9394
  25386722.487    -4999937.76649  -3553541.50749  25386721.8384   25386730.0424
  25102986.135    -1725034.57249   -887420.97049  25102987.1344   25102993.2474
  23400766.275    11335175.67949   8463099.92049  23400766.4564   23400775.2184
 98  1 30 17 34 30.0020000  0  9 22 19  3 31 16 18 27 13 14
  24154555.626    11167452.38249   8681159.69749  24154555.0794   24154562.9604
  22240438.958    -3489032.47949  -2720369.39949  22240438.7554   22240445.9134
  24187380.496    -3764035.67549  -2933543.11349  24187380.4354   24187389.0144
  24628174.387    -6753736.56349  -5261011.68449  24628172.9914   24628184.5864
  22024829.141     6335596.30249   4922404.89549  22024829.1284   22024836.4134
  21080119.380    -3365248.05249  -2652877.87349  21080119.2674   21080125.6044
  25372111.909    -5076716.00149  -3613368.65649  25372111.0034   25372121.4284
  25084496.281    -1822199.87049   -963134.19149  25084497.2844   25084503.6634
  23419835.388    11435384.19349   8541184.38049  23419835.6854   23419844.2514
 98  1 30 17 35  0.0020000  0  9 22 19  3 31 16 18 27 13 14
  24173206.313    11265462.42749   8757531.09549  24173205.4384   24173213.0184
  22231099.584    -3538111.05049  -2758612.43649  22231099.7704   22231106.5784
  24178655.812    -3809883.89349  -2969268.89949  24178655.9654   24178664.5354
  24610483.148    -6846704.35449  -5333454.00349  24610483.0474   24610492.7034
  22036720.766     6398087.11849   4971098.99549  22036720.6364   22036728.2954
  21072060.695    -3407596.77649  -2685876.87649  21072060.6064   21072066.7484
  25357471.095    -5153653.87349  -3673320.20349  25357470.8484   25357480.0034
  25065955.477    -1919632.43749  -1039055.66749  25065955.6304   25065962.4034
  23438899.044    11535564.21449   8619246.63449  23438898.9184   23438908.3974
 98  1 30 17 35 30.0020000  0  9 22 19  3 31 16 18 27 13 14
  24191858.833    11363481.97149   8833909.91349  24191858.1054   24191866.3754
  22221762.486    -3587177.73249  -2796846.20649  22221762.5544   22221769.5234
  24169969.011    -3855533.12149  -3004839.64549  24169969.1194   24169978.0604
  24592765.168    -6939811.68549  -5406005.04549  24592763.7244   24592774.7784
  22048660.915     6460832.78949   5019991.69549  22048660.8604   22048668.5424
  21064033.972    -3449777.50849  -2718744.97349  21064033.9334   21064040.1344
  25342808.226    -5230707.57149  -3733362.01049  25342808.2694   25342816.0444
  25047375.018    -2017273.71549  -1115139.78949  25047376.0224   25047382.4874
  23457967.850    11635771.24149   8697329.93549  23457968.7464   23457976.7994
 98  1 30 17 36  0.0020000  0  9 22 19  3 31 16 18 27 13 14
  24210526.191    11461579.36849   8910349.37649  24210525.3724   24210533.7304
  22212434.863    -3636194.70849  -2835041.25049  22212434.8414   22212441.6724
  24161329.969    -3900931.61049  -3040215.00049  24161329.3704   24161338.6094
  24575032.002    -7032998.73949  -5478618.20249  24575032.1094   24575041.6914
  22060656.679     6523870.74449   5069112.13949  22060656.4854   22060664.2034
  21056047.368    -3491747.36349  -2751448.74949  21056047.4324   21056053.5084
  25328133.026    -5307826.09449  -3793454.30849  25328133.2484   25328141.0174
  25028764.906    -2115070.84149  -1191345.34349  25028765.4164   25028771.0314
  23477049.604    11736046.02749   8775466.03249  23477050.1464   23477058.5134
 98  1 30 17 36 30.0020000  0  9 22 19  3 31 16 18 27 13 14
  24229220.719    11559819.37349   8986899.98149  24229221.2994   24229228.3004
  22203129.231    -3685096.17249  -2873146.27149  22203129.1344   22203136.1814
  24152753.356    -3946001.70449  -3075334.44549  24152753.1474   24152761.3734
  24557299.233    -7126184.50849  -5551230.41049  24557300.2554   24557309.7824
  22072720.717     6587267.56449   5118512.21449  22072720.5244   22072728.2264
  21048112.251    -3533446.70349  -2783941.73249  21048112.1054   21048118.1794
  25313459.329    -5384936.53249  -3853540.31449  25313459.4874   25313468.0744
  25010138.403    -2212954.08449  -1267617.98949  25010139.0414   25010144.5224
  23496155.138    11836445.85649   8853699.55749  23496155.8004   23496164.1494
 98  1 30 17 37  0.0020000  0  9 22 19  3 31 16 18 27 13 14
  24247919.515    11658081.76549   9063468.02149  24247919.1754   24247926.8444
  22193827.231    -3733978.41749  -2911236.31849  22193827.3234   22193833.9924
  24144224.835    -3990818.95649  -3110256.91449  24144224.6214   24144233.6194
  24539548.189    -7219466.63449  -5623917.68249  24539548.4644   24539557.7904
  22084831.634     6650910.68449   5168104.21549  22084831.5394   22084839.1534
  21040211.446    -3574965.73149  -2816294.21449  21040211.3154   21040217.5394
  25298764.749    -5462156.48049  -3913711.64649  25298764.5004   25298773.5664
  24991475.337    -2311029.45749  -1344040.35049  24991476.6314   24991482.6194
  23515264.076    11936863.65349   8931947.08349  23515264.8414   23515273.1734
 98  1 30 17 37 30.0020000  0  9 22 19  3 31 16 18 27 13 14
  24266614.718    11756325.15949   9140021.27149  24266614.0834   24266622.0544
  22184519.094    -3782892.93349  -2949351.51349  22184519.0374   22184526.1154
  24135736.818    -4035423.59549  -3145013.67849  24135737.1074   24135745.1894
  24521772.213    -7312879.97449  -5696707.18749  24521772.5104   24521782.3864
  22096981.117     6714756.34449   5217854.03749  22096980.8984   22096988.7964
  21032336.686    -3616347.90049  -2848540.05249  21032336.6664   21032342.9434
  25284039.696    -5539537.01549  -3974008.11249  25284039.6544   25284047.9824
  24972765.288    -2409351.41749  -1420654.86049  24972765.8044   24972771.4844
  23534365.201    12037240.51049   9010162.70749  23534365.1584   23534374.5604
 98  1 30 17 38  0.0020000  0  9 22 19  3 31 16 18 27 13 14
  24285315.208    11854596.51849   9216596.30049  24285315.0764   24285323.1584
  22175215.760    -3831782.30549  -2987447.11849  22175215.6384   22175222.5644
  24127299.565    -4079761.43749  -3179562.55349  24127299.6584   24127307.8874
  24503983.099    -7406361.80449  -5769550.08449  24503983.1854   24503993.2824
  22109181.870     6778871.60449   5267813.93749  22109181.6724   22109189.4934
  21024502.694    -3657515.69749  -2880618.84849  21024502.5504   21024508.9104
  25269294.233    -5617025.17249  -4034388.45449  25269294.9914   25269302.2944
  24954016.277    -2507878.32249  -1497429.07349  24954016.9044   24954022.8904
  23553467.969    12137625.66949   9088384.80849  23553468.4134   23553477.4884
 98  1 30 17 38 30.0020000  0  9 22 19  3 31 16 18 27 13 14
  24304013.349    11952855.60449   9293161.76549  24304012.3824   24304020.4764
  22165913.203    -3880667.72849  -3025539.64449  22165913.4674   22165920.3734
  24118911.150    -4123842.37849  -3213911.25949  24118911.1054   24118919.4124
  24486175.501    -7499940.99549  -5842468.84949  24486175.3044   24486184.9374
  22121430.475     6843238.27649   5317969.74549  22121430.3524   22121438.2574
  21016708.405    -3698474.93049  -2912535.12949  21016708.5454   21016714.5214
  25254520.543    -5694661.63449  -4094884.33649  25254520.5294   25254527.8404
  24935223.837    -2606633.49649  -1574381.16049  24935224.9834   24935229.4944
  23572569.695    12238005.47649   9166602.73549  23572570.1094   23572579.1964
 98  1 30 17 39  0.0020000  0  9 22 19  3 31 16 18 27 13 14
  24322718.062    12051148.98449   9369753.95449  24322717.5734   24322726.0834
  22156619.282    -3929507.73449  -3063596.78649  22156619.3324   22156626.6514
  24110579.806    -4167623.55549  -3248026.35749  24110579.9934   24110588.1984
  24468356.078    -7593582.29149  -5915435.97849  24468355.0104   24468364.3994
  22133734.302     6907894.87649   5368351.47049  22133734.3154   22133742.0314
  21008963.857    -3739172.83249  -2944247.77249  21008963.7974   21008970.0864
  25239724.963    -5772413.19549  -4155469.92149  25239725.4424   25239733.2404
  24916395.257    -2705578.05749  -1651480.81649  24916396.1284   24916401.7314
  23591679.554    12338428.07649   9244853.98649  23591679.6904   23591688.0964
 98  1 30 17 39 30.0020000  0  9 22 19  3 31 16 18 27 13 14
  24341437.359    12149519.65949   9446406.37449  24341436.8544   24341444.4424
  22147339.568    -3978272.87949  -3101595.58949  22147339.4964   22147346.4094
  24102309.578    -4211083.51849  -3281891.20349  24102309.1094   24102317.8114
  24450532.899    -7687242.57149  -5988417.93149  24450531.2994   24450542.6534
  22146101.329     6972883.78149   5418992.12849  22146101.1734   22146108.9784
  21001276.885    -3779567.90549  -2975724.44349  21001276.9394   21001283.0164
  25224916.398    -5850232.49149  -4216108.28249  25224916.0544   25224924.8904
  24897539.359    -2804665.93649  -1728692.13949  24897539.5124   24897546.0884
  23610805.212    12438933.93749   9323170.13449  23610805.6994   23610814.3994
 98  1 30 17 40  0.0020000  0  9 22 19  3 31 16 18 27 13 14
  24360166.948    12247943.91249   9523100.55149  24360166.1184   24360174.5134
  22138071.528    -4026976.68349  -3139546.59949  22138071.4424   22138078.3504
  24094097.770    -4254236.52649  -3315516.84849  24094097.8534   24094105.7994
  24432705.611    -7780925.13349  -6061417.26749  24432703.8114   24432715.4204
  22158529.075     7038191.83849   5469881.47549  22158528.9204   22158536.8404
  20993644.487    -3819676.56249  -3006977.93649  20993644.4324   20993650.6234
  25210093.088    -5928129.58649  -4276807.28549  25210093.1464   25210101.5494
  24878656.467    -2903895.82049  -1806014.12649  24878657.7744   24878663.0234
  23629947.356    12539526.16449   9401553.56549  23629947.3284   23629956.0924
 98  1 30 17 40 30.0020000  0  9 22 19  3 31 16 18 27 13 14
  24378904.606    12346410.79249   9599827.91849  24378903.8064   24378912.1564
  22128812.155    -4075634.75949  -3177461.97349  22128811.9324   22128818.9774
  24085940.978    -4297100.52049  -3348917.29849  24085941.3704   24085948.8854
  24414869.423    -7874654.72549  -6134453.23149  24414868.5884   24414878.5224
  22171014.257     7103801.80749   5521006.08149  22171013.9264   22171021.8514
  20986058.006    -3859543.82849  -3038043.33149  20986057.9744   20986064.2064
  25195251.991    -6006120.14049  -4337579.12249  25195251.5004   25195259.7264
  24859744.897    -3003276.47849  -1883453.61649  24859745.1274   24859751.6124
  23649100.445    12640175.87849   9479981.78649  23649100.7084   23649110.1984
 98  1 30 17 41  0.0020000  0  9 22 19  3 31 16 18 27 13 14
  24397637.239    12444851.09549   9676534.59849  24397635.8284   24397645.1664
  22119549.940    -4124307.95349  -3215389.13549  22119549.8444   22119556.6014
  24077820.873    -4339771.78749  -3382167.57149  24077819.9324   24077829.0884
  24397013.810    -7968486.71749  -6207569.00349  24397013.5794   24397023.8604
  22183544.380     7169647.88949   5572314.66349  22183544.1124   22183551.8524
  20978503.385    -3899243.57849  -3068978.19749  20978503.4744   20978509.5414
  25180382.394    -6084260.43449  -4398467.63449  25180382.1844   25180391.1594
  24840794.090    -3102863.14849  -1961053.60749  24840794.0764   24840802.0504
  23668249.323    12740803.43449   9558392.75549  23668250.2214   23668257.5644
 98  1 30 17 41 30.0020000  0  9 22 19  3 31 16 18 27 13 14
  24416350.982    12543192.25449   9753164.01149  24416350.2224   24416358.2474
  22110271.166    -4173068.24049  -3253384.15549  22110271.0584   22110277.9184
  24069721.629    -4382333.48049  -3415332.46249  24069722.2684   24069729.3054
  24379126.111    -8062487.60149  -6280816.39649  24379125.3234   24379135.7734
  22196106.740     7235663.47449   5623755.33149  22196106.6454   22196114.6574
  20970966.476    -3938850.29749  -3099840.56749  20970966.6324   20970972.8044
  25165473.735    -6162605.54749  -4459515.74149  25165472.9364   25165481.6994
  24821791.014    -3202724.72249  -2038867.80449  24821790.9824   24821796.9674
  23687378.568    12841328.06549   9636723.53049  23687379.3194   23687387.7754
 98  1 30 17 42  0.0020000  0  9 22 19  3 31 16 18 27 13 14
  24435067.429    12641547.48649   9829804.39849  24435067.6154   24435074.9394
  22100994.953    -4221815.18149  -3291368.78449  22100995.2994   22101002.1044
  24061664.121    -4424675.74449  -3448326.37149  24061664.5664   24061672.0644
  24361225.873    -8156553.50849  -6354114.41849  24361225.0154   24361235.3374
  22208719.779     7301945.19449   5675403.38249  22208719.6334   22208727.2594
  20963466.695    -3978262.22349  -3130551.15549  20963466.6944   20963472.8114
  25150547.447    -6241043.40849  -4520636.13849  25150547.7684   25150555.5254
  24802755.122    -3302758.99649  -2116816.56749  24802755.6004   24802762.4574
  23706506.066    12941843.35949   9715047.02549  23706506.0774   23706515.6754
 98  1 30 17 42 30.0020000  0  9 22 19  3 31 16 18 27 13 14
  24453796.458    12739968.98049   9906496.42049  24453796.1594   24453804.4564
  22091729.344    -4270506.38249  -3329309.97249  22091729.3444   22091736.2244
  24053655.411    -4466761.66749  -3481120.54649  24053656.1804   24053663.3044
  24343318.872    -8250655.03549  -6427440.19049  24343317.9624   24343328.5794
  22221389.967     7368527.30449   5727285.50349  22221389.7024   22221397.7484
  20956014.238    -4017425.21949  -3161067.77449  20956014.2134   20956020.4494
  25135612.276    -6319528.02249  -4581792.94949  25135612.0184   25135619.9174
  24783693.295    -3402929.88049  -2194871.78649  24783695.6654   24783700.3234
  23725637.958    13042381.68149   9793388.44549  23725638.3224   23725647.1094
 98  1 30 17 43  0.0020000  0  9 22 19  3 31 16 18 27 13 14
  24472543.936    12838487.64149   9983264.13849  24472542.5114   24472551.0354
  22082477.146    -4319126.94649  -3367196.12449  22082477.3894   22082484.0894
  24045702.258    -4508555.53249  -3513687.14049  24045701.7574   24045710.0784
  24325413.406    -8344748.36049  -6500759.58249  24325413.2474   24325423.3044
  22234121.976     7435434.13349   5779420.65149  22234121.9184   22234129.6464
  20948617.158    -4056297.10749  -3191357.55549  20948617.1344   20948623.3304
  25120676.859    -6398014.20049  -4642950.98749  25120676.5674   25120684.8744
  24764613.764    -3503193.94449  -2272999.61749  24764613.4554   24764620.6274
  23744781.790    13142982.79349   9871778.79549  23744782.3494   23744791.4654
 98  1 30 17 43 30.0020000  0  9 22 19  3 31 16 18 27 13 14
  24491311.165    12937109.84949  10060112.55349  24491309.9394   24491318.5714
  22073237.605    -4367680.97849  -3405030.42249  22073237.4264   22073244.4704
  24037812.051    -4550018.55049  -3545995.93449  24037811.6994   24037820.5864
  24307511.741    -8438821.93949  -6574063.58949  24307511.6804   24307521.3614
  22246914.453     7502658.77749   5831803.44849  22246914.5424   22246922.0264
  20941276.556    -4094872.33149  -3221416.16649  20941276.5664   20941282.7774
  25105742.820    -6476493.27549  -4704103.48249  25105743.3064   25105750.5904
  24745514.223    -3603562.80749  -2351209.08949  24745515.3264   24745520.9894
  23763937.884    13243648.61849   9950219.57549  23763938.8174   23763947.5614
 98  1 30 17 44  0.0020000  0  9 22 19  3 31 16 18 27 13 14
  24510084.133    13035762.23949  10136984.50049  24510084.3824   24510091.2314
  22064000.668    -4416221.27049  -3442854.03049  22064000.6404   22064007.6514
  24029975.263    -4591200.85649  -3578085.98449  24029975.8444   24029983.9684
  24289604.537    -8532924.98749  -6647390.55349  24289604.0274   24289614.1694
  22259753.332     7570127.45049   5884376.39949  22259753.2144   22259761.1474
  20933980.679    -4133212.44549  -3251291.58449  20933980.6974   20933986.7084
  25090795.438    -6555042.41549  -4765310.57749  25090795.7744   25090803.5944
  24726383.716    -3704094.70849  -2429545.63549  24726384.3704   24726390.2564
  23783094.597    13344317.64149  10028662.83749  23783094.8364   23783104.0104
 98  1 30 17 44 30.0020000  0  9 22 19  3 31 16 18 27 13 14
  24528860.629    13134433.27549  10213870.96549  24528859.8444   24528868.0894
  22054770.514    -4464726.04949  -3480649.95549  22054770.7504   22054777.3924
  24022195.342    -4632084.40249  -3609943.27749  24022194.8214   24022203.4104
  24271695.344    -8627038.35149  -6720725.55649  24271694.3964   24271705.5544
  22272639.563     7637844.90649   5937143.19849  22272639.0434   22272647.4444
  20926730.331    -4171313.32849  -3280980.58749  20926730.1864   20926736.4354
  25075832.731    -6633672.19149  -4826580.51249  25075833.2224   25075840.4874
  24707223.354    -3804783.40549  -2508004.33849  24707223.5254   24707229.5894
  23802255.614    13445009.28949  10107123.73049  23802256.0714   23802265.0134
 98  1 30 17 45  0.0020000  0  9 22 19  3 31 16 18 27 13 14
  24547625.268    13233042.18149  10290709.00949  24547624.8134   24547632.5604
  22045534.735    -4513260.66649  -3518469.12849  22045534.9544   22045541.8644
  24014461.376    -4672726.32349  -3641612.26249  24014460.5354   24014469.6894
  24253775.784    -8721206.19749  -6794103.01249  24253775.5914   24253784.9674
  22285557.412     7705728.44049   5990039.41349  22285557.1604   22285565.3594
  20919512.704    -4209242.12949  -3310535.49249  20919512.5934   20919518.7454
  25060838.762    -6712465.81449  -4887978.11549  25060839.1924   25060846.3554
  24688018.475    -3905705.72349  -2586645.09149  24688019.5104   24688025.3054
  23821406.028    13545645.09149  10185541.11649  23821406.0944   23821415.3094
 98  1 30 17 45 30.0020000  0  9 22 19  3 31 16 18 27 13 14
  24566390.966    13331656.40049  10367551.20849  24566390.7124   24566398.9424
  22036313.654    -4561717.78449  -3556227.91449  22036313.7574   22036320.5444
  24006790.406    -4713037.38249  -3673023.41049  24006790.4354   24006798.7624
  24235860.574    -8815350.71449  -6867462.26549  24235860.5634   24235870.7564
  22298520.171     7773848.07849   6043119.60449  22298519.8564   22298528.1294
  20912345.097    -4246908.06549  -3339885.57249  20912344.9754   20912351.1114
  25045825.803    -6791359.31249  -4949453.55149  25045825.8864   25045833.2804
  24668783.090    -4006788.41949  -2665410.82049  24668783.3874   24668789.7904
  23840561.466    13646307.17849  10263978.95449  23840560.9434   23840571.3384
 98  1 30 17 46  0.0020000  0  9 22 19  3 31 16 18 27 13 14
  24585146.660    13430218.07849  10444352.46349  24585146.2974   24585154.7304
  22027097.540    -4610148.72549  -3593966.30649  22027097.6284   22027104.6994
  23999171.037    -4753077.19049  -3704223.21149  23999170.3104   23999179.7854
  24217937.432    -8909536.93549  -6940854.04449  24217937.2914   24217946.7024
  22311518.017     7842152.15049   6096343.50849  22311517.8384   22311525.9674
  20905217.549    -4284363.48949  -3369071.61849  20905217.6794   20905223.6594
  25030783.133    -6870408.79249  -5011050.52449  25030783.3794   25030790.8434
  24649510.325    -4108067.41849  -2744329.53049  24649510.4794   24649517.0234
  23859714.051    13746954.34349  10342405.18149  23859714.1144   23859723.8104
 98  1 30 17 46 30.0020000  0  9 22 19  3 31 16 18 27 13 14
  24603901.942    13528777.51449  10521151.95949  24603901.1644   24603909.5194
  22017894.290    -4658512.22349  -3631652.13349  22017894.2994   22017901.1244
  23991614.647    -4792786.14649  -3735165.20349  23991614.6714   23991623.1654
  24200014.243    -9003723.74749  -7014246.26749  24200014.3494   24200024.0474
  22324561.275     7910694.85349   6149753.36849  22324561.2084   22324569.5774
  20898141.664    -4321547.53249  -3398046.19249  20898141.6484   20898147.7324
  25015721.780    -6949556.43149  -5072723.98649  25015721.5964   25015729.8524
  24630210.244    -4209489.64649  -2823359.82549  24630211.2204   24630216.7684
  23878872.514    13847632.36349  10420855.43749  23878872.9204   23878882.0424
 98  1 30 17 47  0.0020000  0  9 22 19  3 31 16 18 27 13 14
  24622662.900    13627366.61149  10597974.57949  24622662.5954   24622671.3104
  22008709.501    -4706778.50149  -3669262.20849  22008709.5274   22008716.3014
  23984127.722    -4832129.88049  -3765822.62049  23984127.8344   23984135.6694
  24182094.046    -9097894.88249  -7087626.27649  24182094.1954   24182103.5484
  22337656.500     7979510.56049   6203375.95249  22337656.3224   22337664.3274
  20891126.685    -4358411.50949  -3426771.37149  20891126.4744   20891132.7454
  25000651.428    -7028751.72449  -5134434.58349  25000651.7494   25000659.9614
  24610892.390    -4311005.38549  -2902462.98649  24610893.0134   24610899.3884
  23898038.836    13948351.42349  10499337.67349  23898039.5224   23898048.6004
 98  1 30 17 47 30.0020000  0  9 22 19  3 31 16 18 27 13 14
  24641412.669    13725897.15949  10674751.57049  24641412.4854   24641421.1334
  21999526.576    -4755035.16349  -3706864.78849  21999526.7654   21999533.4474
  23976696.937    -4871178.93549  -3796250.40849  23976697.3584   23976705.0774
  24164159.992    -9192138.46049  -7161062.70449  24164158.9314   24164169.5254
  22350792.709     8048541.53649   6257166.27549  22350792.6884   22350800.3864
  20884154.988    -4395048.01849  -3455319.29949  20884155.0404   20884160.9744
  24985560.590    -7108054.50349  -5196228.91349  24985560.7364   24985568.8084
  24591545.971    -4412671.50749  -2981683.33749  24591546.2374   24591552.3804
  23917198.380    14049035.03649  10577792.28449  23917198.9884   23917208.2894
 98  1 30 17 48  0.0020000  0  9 22 19  3 31 16 18 27 13 14
  24660167.619    13824454.66649  10751549.57749  24660167.5314   24660176.0354
  21990358.697    -4803212.89149  -3744405.85449  21990358.9914   21990365.5724
  23969336.919    -4909855.93349  -3826388.29449  23969336.5244   23969344.7704
  24146230.236    -9286359.74749  -7234481.76849  24146229.7534   24146240.1524
  22363987.371     8117879.71749   6311195.97649  22363987.2444   22363995.1644
  20877242.541    -4431373.24349  -3483624.66649  20877242.6964   20877248.7384
  24970467.126    -7187371.31549  -5258034.20249  24970466.5164   24970474.8424
  24572185.395    -4514411.94449  -3060961.59249  24572186.0904   24572191.6774
  23936362.955    14149744.67749  10656267.18949  23936363.6404   23936372.5294
 98  1 30 17 48 30.0020000  0  9 22 19  3 31 16 18 27 13 14
  24678928.989    13923046.05949  10828373.97949  24678928.9334   24678936.9384
  21981207.465    -4851302.74249  -3781878.45049  21981207.4674   21981214.2564
  23962047.045    -4948164.61749  -3856239.17849  23962046.9504   23962055.0484
  24128307.881    -9380542.16349  -7307870.55449  24128306.8114   24128317.5544
  22377241.328     8187529.45749   6365468.45449  22377241.3684   22377249.2284
  20870391.352    -4467376.41249  -3511679.08449  20870391.2994   20870397.3464
  24955370.723    -7266703.07649  -5319851.12449  24955369.8674   24955378.4664
  24552808.168    -4616240.14649  -3140308.22849  24552808.7044   24552814.3604
  23955526.930    14250451.24349  10734739.68349  23955527.9034   23955536.7474
 98  1 30 17 49  0.0020000  0  9 22 19  3 31 16 18 27 13 14
  24697698.236    14021678.79849  10905230.59149  24697697.6504   24697706.4784
  21972072.158    -4899308.95749  -3819285.87949  21972072.0714   21972078.9934
  23954823.808    -4986122.73049  -3885816.89949  23954824.2004   23954831.2464
  24110394.171    -9474678.51049  -7381223.41849  24110393.4924   24110403.4304
  22390555.115     8257493.65649   6419985.95749  22390555.0614   22390562.9414
  20863600.989    -4503059.96949  -3539484.45949  20863601.1194   20863607.0454
  24940271.690    -7346048.53349  -5381678.72449  24940271.2104   24940279.4014
  24533412.638    -4718164.31249  -3219729.63549  24533412.7624   24533419.6624
  23974689.025    14351148.00549  10813204.53549  23974689.1684   23974699.2164
 98  1 30 17 49 30.0020000  0  9 22 19  3 31 16 18 27 13 14
  24716473.835    14120344.98949  10982113.27549  24716473.2624   24716481.4494
  21962945.832    -4947268.03149  -3856656.56749  21962945.7894   21962952.5494
  23947661.649    -5023759.81449  -3915144.42749  23947660.7194   23947668.9974
  24092487.569    -9568777.29249  -7454547.01549  24092486.7684   24092497.2644
  22403925.378     8327754.55949   6474734.65949  22403925.1454   22403933.3334
  20856865.806    -4538453.56649  -3567063.88049  20856865.8624   20856871.9734
  24925162.398    -7425447.83849  -5443548.28349  24925161.7304   24925169.9684
  24513990.784    -4820226.95949  -3299258.95049  24513991.7274   24513996.7094
  23993847.107    14451823.54749  10891652.86149  23993847.7054   23993856.8404
 98  1 30 17 50  0.0020000  0  9 22 19  3 31 16 18 27 13 14
  24735250.712    14219017.88649  11059001.17649  24735250.3724   24735259.2274
  21953822.513    -4995211.36049  -3894014.98749  21953822.8354   21953829.3624
  23940550.678    -5061127.72049  -3944262.22649  23940551.1414   23940559.0194
  24074580.535    -9662878.86649  -7527872.76049  24074579.4754   24074589.6914
  22417342.964     8398263.95749   6529676.99549  22417342.8964   22417350.7714
  20850182.263    -4573575.97949  -3594432.00149  20850182.2594   20850188.3834
  24910033.517    -7504950.67149  -5505498.51049  24910032.9434   24910041.7544
  24494532.981    -4922478.36149  -3378935.34349  24494533.3974   24494539.0704
  24012993.415    14552436.94449  10970052.75649  24012993.3514   24013003.7074
 98  1 30 17 50 30.0020000  0  9 22 19  3 31 16 18 27 13 14
  24754028.699    14317696.72049  11135893.71349  24754028.0234   24754036.5574
  21944701.819    -5043140.95649  -3931362.70149  21944701.9194   21944708.2404
  23933494.597    -5098207.42349  -3973155.45649  23933494.2974   23933503.5004
  24056673.645    -9756979.72949  -7601197.95349  24056672.7824   24056682.9374
  22430808.570     8469026.00849   6584816.20549  22430808.6444   22430816.5164
  20843551.118    -4608422.84049  -3621585.40649  20843551.1504   20843557.3584
  24894885.813    -7584552.70349  -5567526.02649  24894885.5394   24894894.1574
  24475044.349    -5024891.58349  -3458737.82349  24475045.1494   24475050.0414
  24032131.911    14653009.73749  11048421.01949  24032132.8514   24032141.5024
 98  1 30 17 51  0.0020000  0  9 22 19  3 31 16 18 27 13 14
  24772817.251    14416431.11149  11212829.53049  24772816.6164   24772824.3614
  21935593.106    -5091007.52749  -3968661.30349  21935593.5354   21935599.9374
  23926506.905    -5134927.87949  -4001768.75149  23926507.1544   23926515.5554
  24038779.538    -9851013.41049  -7674470.79949  24038778.5604   24038788.7814
  22444331.423     8540088.90249   6640189.84349  22444331.4134   22444339.3044
  20836982.903    -4642939.12149  -3648481.22149  20836982.9974   20836989.1824
  24879730.821    -7664193.16649  -5629583.49149  24879730.3714   24879739.0854
  24455542.138    -5127376.53449  -3538596.20049  24455541.7314   24455549.8964
  24051278.183    14753623.34649  11126821.06249  24051278.4964   24051287.6054
 98  1 30 17 51 30.0020000  0  9 22 19  3 31 16 18 27 13 14
  24791584.388    14515052.67749  11289677.43349  24791584.1934   24791592.3754
  21926470.407    -5138947.60549  -4006017.19249  21926470.5204   21926477.3834
  23919562.462    -5171421.10449  -4030204.98049  23919562.9114   23919569.8004
  24020870.679    -9945124.54149  -7747803.98349  24020870.0984   24020879.7824
  22457879.093     8611282.31449   6695665.18549  22457878.8244   22457886.9494
  20830447.801    -4677281.39949  -3675241.44549  20830447.7014   20830453.9354
  24864540.166    -7744020.57849  -5691786.63949  24864539.8274   24864547.7594
  24435999.376    -5230073.96949  -3618620.16049  24436000.2394   24436005.6694
  24070405.318    14854136.54449  11205142.87549  24070406.1854   24070415.6004
 98  1 30 17 52  0.0020000  0  9 22 19  3 31 16 18 27 13 14
  24810350.961    14613671.33849  11366523.07349  24810350.8424   24810357.4624
  21917362.934    -5186807.54149  -4043310.63349  21917363.0054   21917369.5754
  23912688.624    -5207543.17749  -4058351.99049  23912688.7604   23912697.5174
  24002974.616   -10039168.54849  -7821084.86849  24002973.8674   24002983.6874
  22471473.472     8682721.19849   6751331.80449  22471472.9434   22471481.3304
  20823972.899    -4711307.04849  -3701754.94349  20823972.8744   20823978.9024
  24849343.112    -7823881.33949  -5754015.78649  24849342.5984   24849351.0224
  24416444.183    -5332836.89649  -3698695.14649  24416444.2074   24416450.5644
  24089537.938    14954678.41149  11283487.03849  24089537.7104   24089547.6184
 98  1 30 17 52 30.0020000  0  9 22 19  3 31 16 18 27 13 14
  24829117.308    14712289.05949  11443367.97849  24829117.3104   24829125.0524
  21908271.285    -5234584.57949  -4080539.47949  21908271.2594   21908278.2404
  23905888.061    -5243280.32349  -4086199.06649  23905887.9984   23905895.9014
  23985094.905   -10133126.39449  -7894298.60949  23985094.3054   23985103.4064
  22485110.205     8754382.61849   6807171.82149  22485109.9324   22485118.1414
  20817558.607    -4745014.47549  -3728020.47949  20817558.6944   20817564.7544
  24834139.043    -7903778.71349  -5816273.44749  24834138.9834   24834146.9114
  24396877.209    -5435661.64649  -3778818.29649  24396878.3134   24396883.5974
  24108675.407    15055245.68149  11361850.97849  24108675.4414   24108686.0784
 98  1 30 17 53  0.0020000  0  9 22 19  3 31 16 18 27 13 14
  24847888.398    14810931.50949  11520232.16249  24847887.9754   24847896.0734
  21899201.945    -5282244.16249  -4117676.79949  21899201.8184   21899208.5954
  23899163.383    -5278618.31549  -4113735.09749  23899163.4734   23899172.1384
  23967235.987   -10226975.16949  -7967427.37549  23967235.3384   23967244.7424
  22498791.437     8826278.09449   6863194.22149  22498791.3514   22498799.4704
  20811208.794    -4778383.03649  -3754021.96049  20811208.8804   20811215.0744
  24818931.912    -7983692.23149  -5878543.69949  24818932.0114   24818939.6024
  24377300.236    -5538539.12349  -3858982.54049  24377301.1164   24377306.1224
  24127820.689    15155854.23449  11440247.07749  24127821.1774   24127831.6084
 98  1 30 17 53 30.0020000  0  9 22 19  3 31 16 18 27 13 14
  24866667.129    14909614.08049  11597127.58549  24866666.6754   24866675.8474
  21890160.226    -5329758.52249  -4154700.96149  21890160.2574   21890166.8904
  23892518.867    -5313535.28949  -4140943.04749  23892518.3944   23892526.3864
  23949399.734   -10320705.09949  -8040463.52449  23949399.5764   23949408.7714
  22512521.539     8898430.18249   6919416.57949  22512521.3964   22512529.3744
  20804926.797    -4811395.09449  -3779745.64949  20804926.6994   20804932.8824
  24803723.729    -8063611.19449  -5940818.19649  24803723.7794   24803731.8954
  24357711.667    -5641477.69949  -3939194.41149  24357712.4674   24357718.1714
  24146973.472    15256502.42249  11518674.05649  24146973.9884   24146984.0134
 98  1 30 17 54  0.0020000  0  9 22 19  3 31 16 18 27 13 14
  24885440.255    15008267.31949  11674000.18849  24885439.9484   24885448.3454
  21881127.622    -5377225.15849  -4191687.93149  21881127.6914   21881134.2394
  23885936.998    -5348123.07949  -4167894.49649  23885936.8404   23885945.8464
  23931571.603   -10414392.08749  -8113466.22249  23931571.0384   23931580.2804
  22526287.446     8970770.41749   6975785.54449  22526287.5364   22526295.6014
  20798698.639    -4844124.35449  -3805248.97449  20798698.7504   20798704.9194
  24788495.680    -8143634.88549  -6003174.30949  24788495.5524   24788503.8644
  24338096.988    -5744553.47549  -4019513.18149  24338096.6564   24338103.2114
  24166115.026    15357091.25049  11597054.77149  24166115.0474   24166125.9814
 98  1 30 17 54 30.0020000  0  9 22 19  3 31 16 18 27 13 14
  24904209.626    15106900.97849  11750857.50049  24904208.3354   24904217.8884
  21872098.873    -5424671.48349  -4228659.07549  21872098.9614   21872105.4914
  23879414.118    -5382400.74849  -4194604.30049  23879413.8964   23879422.1854
  23913748.368   -10508053.14549  -8186448.71249  23913748.5264   23913757.2364
  22540088.986     9043297.60649   7032300.20049  22540089.0214   22540096.9604
  20792520.357    -4876591.40949  -3830547.98249  20792520.2684   20792526.4194
  24773243.920    -8223783.49549  -6065627.75449  24773243.6404   24773252.2964
  24318454.595    -5847774.88449  -4099945.41649  24318454.9744   24318460.7064
  24185242.811    15457607.77249  11675379.15149  24185243.7544   24185253.8254
 98  1 30 17 55  0.0020000  0  9 22 19  3 31 16 18 27 13 14
  24922987.435    15205578.65749  11827749.14049  24922986.2564   24922995.3674
  21863088.727    -5472020.14749  -4265554.12749  21863088.8794   21863095.7204
  23872964.858    -5416291.49649  -4221012.59449  23872964.9404   23872972.9304
  23895943.741   -10601617.05549  -8259355.51449  23895942.2634   23895951.8864
  22553945.968     9116116.29149   7089041.98949  22553945.7284   22553953.7634
  20786406.111    -4908722.03749  -3855584.84349  20786406.1504   20786412.2434
  24757984.413    -8303972.95749  -6128113.04149  24757984.4144   24757992.5454
  24298800.858    -5951055.97649  -4180424.18649  24298801.8404   24298807.3674
  24204370.512    15558123.85249  11753703.18449  24204370.9334   24204381.0094
 98  1 30 17 55 30.0020000  0  9 22 19  3 31 16 18 27 13 14
  24941769.620    15304279.44049  11904658.77949  24941768.9134   24941777.0864
  21854091.579    -5519300.71549  -4302396.11849  21854091.5974   21854098.3414
  23866585.472    -5449815.31649  -4247135.00049  23866585.0274   23866594.2674
  23878156.111   -10695091.06849  -8332192.26649  23878155.1874   23878164.3584
  22567853.886     9189202.42749   7145992.17749  22567853.5204   22567862.0344
  20780355.438    -4940518.49749  -3880361.30949  20780355.4094   20780361.5074
  24742714.524    -8384217.32349  -6190641.11249  24742714.6954   24742722.2964
  24279131.607    -6054418.79249  -4260966.62449  24279131.2274   24279137.6414
  24223491.845    15658606.51549  11832001.18049  24223491.6964   24223503.1484
 98  1 30 17 56  0.0020000  0  9 22 19  3 31 16 18 27 13 14
  24960542.637    15402931.92749  11981530.78049  24960542.2764   24960550.6804
  21845092.919    -5566589.00449  -4339244.12249  21845092.8774   21845099.7154
  23860260.048    -5483055.25649  -4273036.18249  23860259.6764   23860268.5414
  23860372.735   -10788542.51549  -8405011.43149  23860372.3684   23860381.1484
  22581794.718     9262461.69849   7203077.27649  22581794.6794   22581802.1834
  20774359.972    -4972024.77049  -3904911.65549  20774360.1004   20774366.2304
  24727424.522    -8464567.35549  -6253251.53249  24727424.1114   24727431.8274
  24259435.787    -6157921.45749  -4341618.02549  24259436.3024   24259442.9414
  24242594.936    15758993.41749  11910224.56549  24242595.6104   24242605.4404
 98  1 30 17 56 30.0020000  0  9 22 19  3 31 16 18 27 13 14
  24979312.791    15501569.38649  12058391.09549  24979311.8924   24979320.1844
  21836106.021    -5613815.31949  -4376043.83449  21836106.1784   21836112.7824
  23854002.153    -5515940.57149  -4298661.02849  23854001.7184   23854010.2544
  23842603.095   -10881922.04049  -8477774.57449  23842602.1704   23842610.6424
  22595776.672     9335937.02349   7260330.72549  22595776.3704   22595784.3524
  20768431.395    -5003179.71049  -3929188.23649  20768431.2844   20768437.4254
  24712129.645    -8544942.55249  -6315881.55249  24712129.8394   24712137.2594
  24239721.990    -6261518.30249  -4422342.81349  24239721.7404   24239728.1374
  24261690.019    15859338.16749  11988415.08749  24261690.6814   24261701.5794
 98  1 30 17 57  0.0020000  0  9 22 19  3 31 16 18 27 13 14
  24998074.285    15600161.02449  12135215.69249  24998074.4334   24998081.8074
  21827130.380    -5660982.72049  -4412797.64149  21827130.4824   21827137.1194
  23847813.880    -5548459.81049  -4324000.64549  23847813.4924   23847822.0804
  23824849.868   -10975215.22749  -8550470.44849  23824849.3904   23824858.5574
  22609798.932     9409624.06749   7317749.15049  22609798.8024   22609806.8484
  20762571.926    -5033971.49649  -3953181.84149  20762571.9014   20762578.0434
  24696828.452    -8625350.82249  -6378537.34649  24696829.0914   24696837.2194
  24219989.592    -6365212.90049  -4503143.77649  24219989.7004   24219995.2784
  24280775.765    15959633.76849  12066567.31449  24280776.3984   24280787.1664
 98  1 30 17 57 30.0020000  0  9 22 19  3 31 16 18 27 13 14
  25016824.677    15698694.58949  12211995.04549  25016824.4434   25016832.8614
  21818165.242    -5708094.58649  -4449508.17249  21818165.1894   21818171.7794
  23841693.736    -5580621.11349  -4349061.34649  23841694.0994   23841702.3624
  23807113.989   -11068417.06249  -8623095.15249  23807113.1294   23807122.4004
  22623857.460     9483501.95549   7375316.28649  22623857.6294   22623865.6844
  20756781.140    -5064402.24649  -3976894.11849  20756781.2294   20756787.4414
  24681519.228    -8705801.30549  -6441226.02949  24681519.1704   24681527.4324
  24200237.479    -6469010.77749  -4584025.21249  24200237.4844   24200244.1494
  24299852.694    16059883.04049  12144683.45149  24299852.1924   24299863.2784
 98  1 30 17 58  0.0020000  0  9 22 19  3 31 16 18 27 13 14
  25035561.918    15797159.06549  12288720.56849  25035561.9514   25035569.0714
  21809213.692    -5755135.18849  -4486163.17549  21809213.7754   21809220.3984
  23835643.042    -5612417.44449  -4373837.66249  23835642.5784   23835650.8684
  23789396.502   -11161523.07849  -8695645.21549  23789396.4744   23789404.6604
  22637956.080     9557590.63749   7433047.67349  22637955.7594   22637964.4584
  20751054.297    -5094497.11149  -4000344.66249  20751054.4144   20751060.6064
  24666200.103    -8786303.41949  -6503954.94649  24666199.5354   24666208.0434
  24180469.719    -6572890.74549  -4664970.62649  24180469.7094   24180476.5824
  24318921.621    16160090.20049  12222766.76649  24318921.7814   24318932.8104
 98  1 30 17 58 30.0020000  0  9 22 19  3 31 16 18 27 13 14
  25054285.535    15895552.04249  12365390.37049  25054284.8604   25054293.0964
  21800275.974    -5802103.18449  -4522761.60349  21800276.1834   21800282.5714
  23829666.241    -5643825.67749  -4398311.56749  23829666.0654   23829674.0164
  23771701.178   -11254512.19149  -8768104.17749  23771701.2244   23771710.5654
  22652101.030     9631922.61549   7490968.64949  22652100.8974   22652108.9384
  20745385.704    -5124285.85649  -4023556.67149  20745385.9084   20745392.0964
  24650868.115    -8866873.55949  -6566736.87049  24650868.0894   24650876.7124
  24160687.506    -6676846.72949  -4745975.26949  24160687.6644   24160693.2744
  24337980.822    16260246.35949  12300810.32849  24337982.0164   24337992.0464
 98  1 30 17 59  0.0020000  0  9 22 19  3 31 16 18 27 13 14
  25072991.145    15993850.48049  12441986.51149  25072990.7404   25072999.0664
  21791343.846    -5849041.91249  -4559337.22849  21791343.7174   21791350.4714
  23823753.773    -5674895.56449  -4422521.82749  23823753.8284   23823762.1614
  23754023.241   -11347410.00049  -8840491.98549  23754022.5824   23754031.7924
  22666283.751     9706453.17149   7549044.36049  22666283.6884   22666291.7984
  20739767.011    -5153812.37649  -4046564.34249  20739767.0484   20739773.1084
  24635511.561    -8947572.74949  -6629619.35349  24635511.5504   24635519.3924
  24140884.039    -6780914.63149  -4827067.10349  24140884.3044   24140890.2074
  24357023.366    16360314.95149  12378785.66549  24357024.3234   24357034.2174
 98  1 30 17 59 30.0020000  0  9 22 19  3 31 16 18 27 13 14
  25091667.040    16091992.62549  12518460.87249  25091666.7314   25091674.6764
  21782405.927    -5896010.81949  -4595936.37249  21782406.1544   21782412.7254
  23817890.026    -5705709.55549  -4446532.68349  23817890.2184   23817897.7044
  23736345.083   -11440308.87349  -8912880.61149  23736344.8104   23736353.8344
  22680486.308     9781087.83049   7607201.18949  22680486.0864   22680494.4824
  20734179.935    -5183172.52649  -4069442.37649  20734179.9964   20734186.2224
  24620118.821    -9028462.00949  -6692649.94049  24620119.0064   24620126.8324
  24121044.171    -6885173.79549  -4908307.98749  24121045.1484   24121051.0134
  24376033.388    16460212.47749  12456627.70749  24376034.7324   24376044.0524
 98  1 30 18  0  0.0020000  0  9 22 19  3 31 16 18 27 13 14
  25110319.863    16190013.80049  12594840.94449  25110318.4684   25110328.7484
  21773465.222    -5942994.49649  -4632547.02949  21773465.2644   21773471.8464
  23812082.483    -5736228.04549  -4470313.27849  23812082.3084   23812090.2554
  23718669.925   -11533192.00349  -8985256.97349  23718669.7674   23718678.4204
  22694712.223     9855845.28249   7665453.70049  22694712.0784   22694720.2304
  20728628.416    -5212346.05449  -4092174.99349  20728628.3494   20728634.6834
  24604696.327    -9109507.87349  -6755802.54049  24604696.0034   24604704.3034
  24101172.085    -6989602.52849  -4989681.01349  24101172.3864   24101178.7824
  24395012.635    16559948.38749  12534343.79849  24395012.9444   24395024.2714
 98  1 30 18  0 30.0020000  0  9 22 19  3 31 16 18 27 13 14
  25128955.331    16287943.67249  12671149.88649  25128954.9764   25128963.3524
  21764522.175    -5989990.46649  -4669167.26249  21764522.0954   21764528.6274
  23806335.905    -5766426.52449  -4493844.53249  23806335.4674   23806343.9284
  23701001.319   -11626040.47249  -9057606.34049  23701000.6594   23701010.4954
  22708960.091     9930718.12749   7723796.12249  22708960.0444   22708968.0604
  20723119.515    -5241295.56849  -4114733.05049  20723119.4234   20723125.4494
  24589247.182    -9190693.70649  -6819064.21849  24589246.9794   24589254.9454
  24081268.834    -7094194.81649  -5071181.47549  24081269.0744   24081275.3204
  24413965.750    16659547.05049  12611952.94249  24413966.9624   24413977.0984
 98  1 30 18  1  0.0020000  0  9 22 19  3 31 16 18 27 13 14
  25147574.749    16385789.20449  12747393.10049  25147574.9364   25147582.6274
  21755578.567    -6036989.58249  -4705789.94349  21755578.7164   21755585.1624
  23800647.656    -5796318.29849  -4517136.78949  23800648.0744   23800655.3694
  23683337.981   -11718861.35049  -9129934.21149  23683337.3974   23683346.3814
  22723227.137    10005691.59649   7782216.96449  22723227.0474   22723235.2164
  20717655.325    -5270010.06449  -4137107.97249  20717655.2264   20717661.5044
  24573772.628    -9272012.89449  -6882429.79549  24573772.7714   24573779.9344
  24061335.693    -7198944.19749  -5152804.34949  24061336.3534   24061341.7994
  24432896.349    16759026.97849  12689469.56949  24432896.3084   24432906.6934
 98  1 30 18  1 30.0020000  0  9 22 19  3 31 16 18 27 13 14
  25166179.596    16483558.26149  12823576.73549  25166179.0974   25166187.4834
  21746638.033    -6083972.32449  -4742399.87349  21746638.0964   21746644.8964
  23795022.563    -5825878.15849  -4540170.42849  23795022.4994   23795030.3904
  23665682.562   -11811641.02049  -9202229.97449  23665682.4994   23665691.1274
  22737519.483    10080798.08949   7840741.45249  22737519.6234   22737527.4154
  20712240.693    -5298464.14449  -4159279.97449  20712240.8244   20712246.9994
  24558277.904    -9353437.99849  -6945877.89549  24558277.7884   24558285.8214
  24041379.114    -7303816.48849  -5234523.00049  24041379.2294   24041384.5314
  24451808.689    16858411.00149  12766911.47349  24451810.0644   24451819.6784
 98  1 30 18  2  0.0020000  0  9 22 19  3 31 16 18 27 13 14
  25184768.693    16581244.36649  12899695.71449  25184767.4584   25184777.3824
  21737697.732    -6130953.97549  -4779008.95249  21737697.6254   21737704.4774
  23789461.136    -5855103.53549  -4562943.43449  23789460.5094   23789468.6824
  23648037.306   -11904367.06149  -9274483.96249  23648037.2244   23648046.5654
  22751839.789    10156051.54649   7899380.45249  22751839.8094   22751847.3964
  20706881.809    -5326625.24049  -4181223.67849  20706881.6744   20706887.8444
  24542759.212    -9434989.18849  -7009424.23949  24542759.0614   24542767.4954
  24021400.362    -7408805.26549  -5316332.40649  24021401.4204   24021406.5114
  24470705.074    16957711.41949  12844288.21949  24470705.6234   24470715.8984
 98  1 30 18  2 30.0020000  0  9 22 19  3 31 16 18 27 13 14
  25203339.036    16678832.15949  12975738.07549  25203339.0314   25203347.1334
  21728757.788    -6177933.56049  -4815616.41349  21728757.9344   21728764.5904
  23783960.463    -5884009.65849  -4585467.66949  23783960.6374   23783968.4234
  23630402.647   -11997037.56449  -9346694.69349  23630402.4734   23630411.2244
  22766189.354    10231458.60749   7958139.13949  22766189.4054   22766196.9534
  20701580.254    -5354485.13949  -4202932.67949  20701580.4444   20701586.5574
  24527213.294    -9516683.29949  -7073081.94849  24527212.5144   24527221.7324
  24001399.328    -7513911.27749  -5398233.18049  24001400.5864   24001406.3364
  24489585.690    17056928.88349  12921600.33449  24489586.3424   24489597.2874
 98  1 30 18  3  0.0010000  0  9 22 19  3 31 16 18 27 13 14
  25221885.792    16776295.92549  13051683.82949  25221885.6024   25221894.7334
  21719816.755    -6224919.02649  -4852228.45349  21719816.7744   21719823.2334
  23778517.886    -5912610.70249  -4607754.18149  23778518.5644   23778526.7614
  23612775.898   -12089666.11949  -9418872.72749  23612775.1564   23612784.4524
  22780566.267    10307009.43049   8017009.84949  22780566.2824   22780574.5684
  20696335.986    -5382043.75949  -4224406.92249  20696335.9654   20696342.2244
  24511641.146    -9598514.96649  -7136846.82949  24511641.0844   24511648.8634
  23981375.550    -7619136.87549  -5480227.12849  23981375.5594   23981382.2034
  24508444.552    17156032.37749  12998823.61249  24508445.2964   24508456.1484
 98  1 30 18  3 30.0010000  0  9 22 19  3 31 16 18 27 13 14
  25240413.570    16873659.97249  13127551.83149  25240413.3154   25240422.3254
  21710875.530    -6271905.44149  -4888841.22649  21710875.6144   21710882.1864
  23773139.783    -5940872.94449  -4629776.69349  23773139.1184   23773147.8494
  23595161.800   -12182228.60549  -9490999.27749  23595161.4504   23595170.5144
  22794972.146    10382712.60249   8075999.26349  22794972.0294   22794980.2284
  20691156.941    -5409259.65549  -4245614.10649  20691156.9304   20691163.0854
  24496047.911    -9680457.68249  -7200698.21949  24496047.2294   24496056.0684
  23961331.756    -7724467.46249  -5562302.89149  23961332.2454   23961338.6924
  24527283.787    17255032.24449  13075966.16249  24527284.5844   24527294.9024
 98  1 30 18  4  0.0010000  0  9 22 19  3 31 16 18 27 13 14
  25258922.971    16970927.41749  13203344.57149  25258922.2024   25258931.6934
  21701934.445    -6318891.23249  -4925453.51949  21701934.5434   21701941.2434
  23767828.769    -5968782.42449  -4651524.31549  23767828.7754   23767837.0844
  23577564.956   -12274700.35149  -9563055.12049  23577564.2324   23577572.8314
  22809405.073    10458557.94749   8135099.46749  22809404.7584   22809413.5414
  20686043.563    -5436130.68349  -4266552.55949  20686043.7304   20686049.7364
  24480437.065    -9762492.90249  -7264621.69349  24480436.7964   24480445.5164
  23941269.381    -7829895.69149  -5644454.74249  23941269.7744   23941274.9944
  24546100.869    17353915.82849  13153018.07449  24546101.5384   24546112.3834
 98  1 30 18  4 30.0010000  0  8 19  3 31 16 18 27 13 14
  21692998.997    -6365847.22149  -4962042.58049  21692999.2294   21693005.8674
  23762587.911    -5996323.19049  -4672984.62949  23762587.2634   23762595.9104
  23559990.677   -12367053.72049  -9635018.71249  23559991.1184   23559998.8334
  22823865.134    10534545.87249   8194310.77049  22823865.1574   22823873.2684
  20680992.808    -5462672.75749  -4287234.68449  20680992.9764   20680998.9344
  24464816.596    -9844579.05849  -7328584.84949  24464817.2194   24464824.4544
  23921192.650    -7935399.41349  -5726665.41849  23921193.1234   23921199.5054
  24564895.123    17452679.28049  13229976.39449  24564896.4564   24564906.3324
 98  1 30 18  5  0.0010000  0  8 19  3 31 16 18 27 13 14
  21684075.166    -6412742.37049  -4998584.23749  21684075.1874   21684081.9834
  23757421.135    -6023474.62749  -4694141.55449  23757421.5094   23757429.3714
  23542446.141   -12459250.93649  -9706860.61449  23542445.7344   23542454.3344
  22838351.355    10610671.18649   8253629.13849  22838351.0394   22838359.6614
  20676006.615    -5488875.25949  -4307652.21249  20676006.7084   20676012.7584
  24449192.724    -9926683.07349  -7392561.90749  24449192.3364   24449200.3084
  23901104.936    -8040960.91449  -5808921.12749  23901105.3194   23901112.2324
  24583670.050    17551341.32449  13306855.68349  24583670.9594   24583681.6554
 98  1 30 18  5 30.0010000  0  8 19  3 31 16 18 27 13 14
  21675171.641    -6459530.51849  -5035042.51049  21675171.5614   21675178.3084
  23752335.846    -6050197.70549  -4714964.70349  23752335.8904   23752343.6284
  23524940.639   -12551242.83949  -9778542.53249  23524940.1634   23524949.3294
  22852869.644    10686964.99549   8313078.79849  22852869.4184   22852878.0104
  20671088.800    -5514718.69949  -4327789.94849  20671088.9134   20671094.9604
  24433572.385   -10008768.39749  -7456524.40149  24433572.3404   24433580.5444
  23881012.564    -8146546.88449  -5891195.89549  23881013.3184   23881019.1384
  24602432.646    17649938.31749  13383684.28649  24602432.9904   24602443.9174
 98  1 30 18  6  0.0010000  0  8 19  3 31 16 18 27 13 14
  21666290.990    -6506198.67149  -5071407.28449  21666291.1394   21666297.6384
  23747331.655    -6076494.75949  -4735455.89749  23747332.0544   23747339.8934
  23507474.987   -12643025.31849  -9850061.25649  23507474.5544   23507483.0424
  22867424.947    10763453.48649   8372680.15449  22867424.4914   22867433.3634
  20666235.609    -5540222.31849  -4347662.89049  20666235.6034   20666241.7114
  24417953.765   -10090844.30949  -7520479.56449  24417953.2734   24417961.6014
  23860914.022    -8252165.41349  -5973496.02649  23860914.6634   23860920.7714
  24621183.077    17748471.42949  13460463.09749  24621183.6894   24621194.7284
 98  1 30 18  6 30.0010000  0  8 19  3 31 16 18 27 13 14
  21657428.341    -6552772.25549  -5107698.36149  21657428.3144   21657434.7644
  23742402.627    -6102396.95749  -4755639.39949  23742402.1774   23742410.4964
  23490041.606   -12734638.12349  -9921447.75649  23490041.2334   23490050.1604
  22882012.466    10840111.27549   8432413.44149  22882012.0334   22882021.1364
  20661443.907    -5565403.01949  -4367284.20949  20661443.9004   20661450.0294
  24402327.145   -10172962.34549  -7584467.55849  24402326.6214   24402334.4554
  23840802.234    -8357853.51949  -6055850.38549  23840803.3854   23840807.9984
  24639916.546    17846915.34849  13537172.41649  24639917.0604   24639928.8174
 98  1 30 18  7  0.0010000  0  8 19  3 31 16 18 27 13 14
  21648578.148    -6599280.10149  -5143938.21549  21648578.2314   21648585.1254
  23737548.601    -6127904.95949  -4775515.73149  23737548.8674   23737556.5964
  23472636.292   -12826103.24949  -9992719.16949  23472635.8524   23472644.9704
  22896633.255    10916943.77649   8492282.86449  22896633.3614   22896641.5044
  20656716.652    -5590244.99749  -4386641.59349  20656716.7734   20656722.8724
  24386686.765   -10255152.59849  -7648511.81649  24386686.5684   24386694.1234
  23820676.480    -8463615.34849  -6138262.18649  23820676.3994   23820682.7394
  24658632.918    17945269.65949  13613811.88649  24658633.7034   24658644.5474
 98  1 30 18  7 30.0010000  0  8 19  3 31 16 18 27 13 14
  21639735.222    -6645749.88049  -5180148.40449  21639735.1634   21639741.6364
  23732771.233    -6153010.32549  -4795078.32149  23732770.3854   23732780.2524
  23455257.189   -12917430.58749 -10063883.21449  23455257.5734   23455264.8334
  22911292.404    10993978.01249   8552309.47649  22911292.6724   22911301.1034
  20652054.024    -5614747.27549  -4405734.27249  20652054.0704   20652060.0854
  24371028.373   -10337437.67149  -7712629.97349  24371029.0384   24371036.1374
  23800539.194    -8569437.49549  -6220720.98749  23800539.4894   23800545.2414
  24677330.280    18043523.83649  13690373.34449  24677331.4594   24677342.4154
 98  1 30 18  8  0.0010000  0  8 19  3 31 16 18 27 13 14
  21630902.085    -6692168.13249  -5216318.44049  21630902.0484   21630908.6654
  23728073.691    -6177696.02349  -4814313.90649  23728074.3164   23728081.7114
  23437906.426   -13008608.96649 -10134931.17949  23437905.1364   23437914.0564
  22925993.943    11071234.88849   8612509.58049  22925993.7154   22926002.3294
  20647459.960    -5638889.18849  -4424546.15149  20647459.9614   20647466.1574
  24355352.653   -10419814.25549  -7776819.44749  24355353.2804   24355359.9714
  23780394.443    -8675298.68649  -6303210.20749  23780394.6954   23780401.3944
  24696010.028    18141685.58249  13766862.76149  24696010.6584   24696022.3674
 98  1 30 18  8 30.0010000  0  8 19  3 31 16 18 27 13 14
  21622076.376    -6738547.56949  -5252458.23549  21622076.4584   21622083.0164
  23723453.683    -6201974.45249  -4833232.13049  23723454.1544   23723462.2974
  23420583.008   -13099643.70349 -10205867.20649  23420582.5884   23420591.0864
  22940730.592    11148676.23249   8672853.42049  22940730.1034   22940738.8504
  20642934.083    -5662672.85149  -4443078.87449  20642934.0544   20642940.1484
  24339660.249   -10502278.40349  -7841077.15849  24339660.4944   24339667.4864
  23760243.131    -8781194.54749  -6385726.44049  23760243.6964   23760249.2884
  24714669.110    18239738.49949  13843267.35549  24714669.3504   24714681.1104
 98  1 30 18  9  0.0010000  0  8 19  3 31 16 18 27 13 14
  21613238.831    -6784988.92549  -5288646.28349  21613238.7264   21613245.4904
  23718891.235    -6225950.34349  -4851914.62149  23718892.0034   23718898.6434
  23403270.281   -13190622.39949 -10276759.54149  23403269.8434   23403278.5544
  22955480.343    11226186.62949   8733251.06249  22955480.1024   22955489.1974
  20638455.304    -5686208.97849  -4461418.71249  20638455.0954   20638461.0744
  24323935.216   -10584913.98249  -7905468.46749  24323934.0114   24323943.1854
  23740067.339    -8887218.94349  -6468342.81149  23740068.2634   23740073.9064
  24733287.844    18337579.51349  13919506.82249  24733288.8304   24733301.2304
 98  1 30 18  9 30.0010000  0  8 19  3 31 16 18 27 13 14
  21604361.335    -6831640.49149  -5324998.13149  21604361.4824   21604367.9524
  23714353.011    -6249798.87149  -4870497.84649  23714352.9654   23714360.3254
  23385938.224   -13281702.41249 -10347730.82649  23385938.0924   23385945.4034
  22970206.878    11303574.95049   8793553.58549  22970207.0174   22970215.1044
  20633991.153    -5709668.09049  -4479698.53849  20633991.0954   20633997.2594
  24308148.763   -10667872.09149  -7970111.09249  24308148.5594   24308156.1724
  23719833.546    -8993548.07249  -6551196.66849  23719834.8504   23719839.1784
  24751831.779    18435027.51649  13995440.04549  24751833.1824   24751843.5694
 98  1 30 18 10  0.0010000  0  8 19  3 31 16 18 27 13 14
  21595443.557    -6878503.59549  -5361514.81449  21595443.7054   21595450.2784
  23709833.995    -6273546.14449  -4889002.18449  23709833.9544   23709842.3654
  23368584.223   -13372897.65649 -10418791.86849  23368583.8564   23368591.4964
  22984900.396    11380789.61649   8853720.78649  22984900.3554   22984909.3234
  20629541.838    -5733049.52049  -4497917.84249  20629542.1454   20629547.9774
  24292301.196   -10751151.26249  -8035003.91849  24292301.1404   24292308.7384
  23699536.482    -9100209.96149  -6634309.80849  23699537.1024   23699542.7204
  24770296.658    18532060.10949  14071049.57249  24770296.4414   24770307.9244
 98  1 30 18 10 30.0010000  0  8 19  3 31 16 18 27 13 14
  21586500.611    -6925499.24949  -5398134.77549  21586500.6574   21586507.0774
  23705350.527    -6297106.54949  -4907360.91249  23705351.1274   23705358.6644
  23351225.803   -13464116.32349 -10489871.15449  23351225.9034   23351234.0064
  22999575.512    11457907.78449   8913812.79849  22999575.2554   22999583.8044
  20625125.593    -5756257.00449  -4516001.59449  20625125.5734   20625131.6704
  24276407.670   -10834671.99349  -8100084.97049  24276406.8034   24276415.0524
  23679193.211    -9207114.40149  -6717611.94149  23679193.4264   23679200.0284
  24788701.628    18628777.98949  14146413.88749  24788702.5284   24788713.8354
 98  1 30 18 11  0.0010000  0  8 19  3 31 16 18 27 13 14
  21577549.615    -6972536.80349  -5434787.39049  21577549.3634   21577555.8224
  23700921.934    -6320379.00549  -4925495.25749  23700922.1434   23700929.9994
  23333879.926   -13555268.79849 -10560898.86349  23333879.0724   23333887.2404
  23014249.618    11535020.62249   8973900.65149  23014249.0174   23014257.6914
  20620759.493    -5779201.04749  -4533880.06749  20620759.5154   20620765.5374
  24260480.287   -10918371.05149  -8165304.97949  24260480.3294   24260487.4504
  23658819.913    -9314176.89549  -6801037.23649  23658821.4794   23658825.4704
  24807064.179    18725272.68549  14221604.27249  24807064.6664   24807076.8204
 98  1 30 18 11 30.0010000  0  8 19  3 31 16 18 27 13 14
  21568601.038    -7019561.73849  -5471430.17949  21568601.0984   21568607.4704
  23696559.759    -6343302.40649  -4943357.63249  23696559.7734   23696566.7474
  23316557.114   -13646300.10249 -10631832.16249  23316555.8044   23316564.6524
  23028935.318    11612194.16249   9034035.80749  23028935.3404   23028943.4424
  20616456.629    -5801812.66649  -4551499.51849  20616456.5344   20616462.5424
  24244528.057   -11002200.58049  -8230626.66049  24244528.2524   24244535.1414
  23638428.694    -9421333.53749  -6884535.91049  23638429.8964   23638434.4494
  24825393.147    18821591.19249  14296657.36149  24825394.8174   24825406.9114
 98  1 30 18 12  0.0010000  0  8 19  3 31 16 18 27 13 14
  21559660.369    -7066545.15849  -5508040.61649  21559660.4484   21559666.9734
  23692272.178    -6365833.70749  -4960914.45749  23692272.2314   23692279.7644
  23299265.760   -13737166.16849 -10702636.70349  23299265.6044   23299274.1834
  23043640.075    11689468.01449   9094249.13249  23043640.3104   23043648.7954
  20612223.120    -5824059.97549  -4568835.09049  20612223.1654   20612229.2624
  24228555.234   -11086138.01449  -8296032.44649  24228555.0404   24228562.6354
  23618027.903    -9528540.53449  -6968073.80049  23618027.7004   23618035.3294
  24843697.845    18917782.38549  14371611.27549  24843698.7354   24843710.3624
 98  1 30 18 12 30.0010000  0  8 19  3 31 16 18 27 13 14
  21550728.856    -7113480.52149  -5544613.60749  21550728.9714   21550735.6104
  23688060.928    -6387963.60849  -4978158.51949  23688059.9674   23688068.7564
  23282008.006   -13827855.34349 -10773303.41549  23282007.1824   23282015.1924
  23058365.568    11766850.90449   9154547.42549  23058365.1864   23058374.0964
  20608056.151    -5845957.64549  -4585898.21149  20608056.2904   20608062.2334
  24212563.082   -11170176.75249  -8361517.16249  24212562.9714   24212570.1664
  23597618.486    -9635792.68649  -7051646.89249  23597619.2684   23597625.8474
  24861978.904    19013848.94449  14446468.02349  24861979.4804   24861991.8624
 98  1 30 18 13  0.0010000  0  8 19  3 31 16 18 27 13 14
  21541809.568    -7160351.63849  -5581136.54249  21541809.6954   21541816.3154
  23683929.920    -6409671.96849  -4995074.09349  23683930.4164   23683937.3144
  23264788.546   -13918343.50849 -10843813.51149  23264788.0324   23264796.1544
  23073116.304    11844366.15249   9214948.85049  23073116.0844   23073124.9274
  20603957.621    -5867495.45349  -4602680.91849  20603957.6174   20603963.6404
  24196559.390   -11254276.53549  -8427049.44349  24196559.0314   24196566.9214
  23577203.621    -9743073.48949  -7135242.31549  23577203.7314   23577210.3624
  24880235.898    19109789.16849  14521226.32549  24880237.7104   24880248.4674
 98  1 30 18 13 30.0010000  0  8 19  3 31 16 18 27 13 14
  21532902.052    -7207160.98749  -5617611.35349  21532902.0824   21532908.4964
  23679877.532    -6430967.05849  -5011667.64349  23679877.2824   23679885.1754
  23247610.350   -14008614.85449 -10914154.67949  23247610.0144   23247617.6744
  23087893.351    11922020.03449   9275458.30249  23087893.5144   23087902.3024
  20599928.260    -5888669.96549  -4619180.54349  20599928.1964   20599934.2764
  24180549.080   -11338411.30249  -8492608.97049  24180549.0344   24180556.9214
  23556784.102    -9850378.59149  -7218856.65549  23556785.3174   23556789.9954
  24898469.511    19205606.26249  14595888.70149  24898470.7274   24898482.2364
 98  1 30 18 14  0.0010000  0  8 19  3 31 16 18 27 13 14
  21524006.879    -7253905.27649  -5654035.46349  21524007.0604   21524013.3734
  23675905.608    -6451839.76449  -5027932.06049  23675905.6624   23675913.0684
  23230476.350   -14098653.85749 -10984314.77949  23230474.8974   23230483.6954
  23102694.671    11999801.27149   9336066.98549  23102693.9384   23102703.1654
  20595965.683    -5909493.49149  -4635406.67449  20595965.6304   20595971.6444
  24164534.300   -11422569.88849  -8558187.06249  24164534.6314   24164541.9614
  23536359.254    -9957711.79949  -7302492.90049  23536359.9474   23536365.5794
  24916680.932    19301306.36549  14670459.93249  24916681.9504   24916693.7644
 98  1 30 18 14 30.0010000  0  8 19  3 31 16 18 27 13 14
  21515124.234    -7300584.11149  -5690408.57749  21515124.4194   21515131.0404
  23672014.864    -6472285.63549  -5043863.93349  23672015.0154   23672021.7804
  23213384.362   -14188472.21049 -11054302.95049  23213384.2384   23213391.4804
  23117518.875    12077702.94449   9396769.51549  23117518.7654   23117527.6894
  20592069.275    -5929969.13249  -4651361.72349  20592069.2874   20592075.3504
  24148513.811   -11506758.25149  -8623788.35449  24148513.6024   24148521.4354
  23515929.722   -10065069.64649  -7386148.35649  23515929.6314   23515936.1664
  24934866.072    19396867.99549  14744923.25049  24934867.3314   24934879.2444
 98  1 30 18 15  0.0010000  0  8 19  3 31 16 18 27 13 14
  21506255.068    -7347191.85549  -5726726.28949  21506255.1794   21506261.7324
  23668206.113    -6492300.61849  -5059460.03549  23668205.4924   23668213.7944
  23196334.955   -14278066.96349 -11124116.88449  23196333.9024   23196342.0114
  23132365.721    12155723.53549   9457564.71249  23132365.4474   23132373.7384
  20588241.279    -5950085.51149  -4667036.82749  20588241.2974   20588247.2494
  24132484.860   -11590990.61249  -8689423.92849  24132484.8384   24132492.8044
  23495498.310   -10172437.06149  -7469811.26249  23495499.3144   23495504.3194
  24953026.437    19492299.68349  14819285.30049  24953027.4394   24953039.4874
 98  1 30 18 15 30.0010000  0  8 19  3 31 16 18 27 13 14
  21497402.413    -7393712.92049  -5762976.46749  21497402.3084   21497408.8084
  23664480.050    -6511881.22149  -5074717.63949  23664480.2414   23664487.7304
  23179328.713   -14367434.51449 -11193753.81249  23179328.1754   23179335.8524
  23147232.072    12233846.35549   9518439.56049  23147232.0654   23147240.5844
  20584483.598    -5969832.24749  -4682423.89449  20584483.6684   20584489.7194
  24116446.158   -11675273.97649  -8755099.25749  24116445.2524   24116453.5574
  23475067.468   -10279801.59949  -7553471.92249  23475067.8894   23475073.2664
  24971162.032    19587601.50149  14893546.15949  24971163.3534   24971174.7144
 98  1 30 18 16  0.0010000  0  8 19  3 31 16 18 27 13 14
  21488569.263    -7440131.42549  -5799146.72449  21488569.3134   21488575.9184
  23660839.421    -6531012.86149  -5089625.43049  23660840.0714   23660847.2234
  23162363.300   -14456588.00649 -11263223.97449  23162362.8604   23162370.2804
  23162118.775    12312076.29849   9579397.88649  23162118.9794   23162127.4254
  20580799.247    -5989193.56949  -4697510.63349  20580799.1594   20580805.2824
  24100396.762   -11759613.64549  -8820818.44149  24100397.0924   24100404.9454
  23454640.068   -10387148.13049  -7637118.56649  23454640.5704   23454646.0734
  24989270.694    19682761.63549  14967696.58849  24989272.1374   24989283.9984
 98  1 30 18 16 30.0010000  0  8 19  3 31 16 18 27 13 14
  21479762.280    -7486412.38949  -5835209.80849  21479762.3704   21479768.8464
  23657288.316    -6549674.10949  -5104166.69049  23657288.7004   23657296.4264
  23145443.618   -14545501.22249 -11332506.89849  23145443.5634   23145451.0464
  23177034.934    12390461.08449   9640476.86949  23177034.7634   23177043.9044
  20577197.324    -6008121.81649  -4712259.91949  20577197.4534   20577203.5714
  24084340.398   -11843990.47149  -8886566.58649  24084340.8084   24084348.2804
  23434222.430   -10494443.69449  -7720725.48849  23434223.2654   23434228.7794
  25007358.328    19777811.18549  15041760.83849  25007359.1564   25007370.2004
 98  1 30 18 17  0.0010000  0  8 19  3 31 16 18 27 13 14
  21470974.001    -7532595.09949  -5871196.33249  21470973.9544   21470980.5864
  23653818.964    -6567905.57249  -5118373.03749  23653818.8424   23653827.8134
  23128568.921   -14634177.83949 -11401605.47149  23128568.9054   23128576.3654
  23191977.385    12468984.07349   9701663.54549  23191978.0384   23191985.7714
  20573673.741    -6026638.32049  -4726688.36649  20573673.7824   20573679.8774
  24068273.444   -11928423.04749  -8952358.16749  24068273.1314   24068281.2004
  23413807.769   -10601723.41549  -7804320.06049  23413808.2384   23413813.8584
  25025421.792    19872733.91849  15115726.29049  25025422.3114   25025435.0644
 98  1 30 18 17 30.0010000  0  8 19  3 31 16 18 27 13 14
  21462200.354    -7578700.80949  -5907122.85649  21462200.3784   21462206.8544
  23650431.246    -6585708.27049  -5132245.28649  23650431.3074   23650438.4364
  23111741.253   -14722607.27549 -11470511.45049  23111740.2954   23111748.4554
  23206948.179    12547655.81449   9762966.13049  23206948.0544   23206957.1124
  20570229.857    -6044736.12449  -4740790.55449  20570229.5864   20570235.6934
  24052196.982   -12012905.82749  -9018188.85449  24052197.0014   24052204.6804
  23393396.423   -10708985.68949  -7887901.04649  23393396.9884   23393402.9244
  25043459.182    19967519.54949  15189584.88649  25043460.0134   25043471.6164
 98  1 30 18 18  0.0010000  0  8 19  3 31 16 18 27 13 14
  21453441.100    -7624731.01549  -5942990.54849  21453441.2824   21453447.8434
  23647127.863    -6603067.62449  -5145772.07149  23647128.1344   23647135.6394
  23094965.640   -14810763.20749 -11539204.31849  23094965.4384   23094972.6144
  23221954.075    12626511.94849   9824412.39149  23221954.0464   23221962.4384
  20566869.671    -6062393.66349  -4754549.67949  20566869.7824   20566875.8914
  24036112.018   -12097432.88049  -9084054.05949  24036111.2764   24036119.9694
  23372990.341   -10816220.65649  -7971460.75949  23372991.7354   23372996.2294
  25061475.566    20062194.90249  15263357.54149  25061476.8814   25061488.8624
 98  1 30 18 18 30.0010000  0  8 19  3 31 16 18 27 13 14
  21444697.547    -7670678.84349  -5978794.04649  21444697.8954   21444704.1644
  23643909.913    -6619977.99649  -5158948.98649  23643909.8024   23643918.2934
  23078249.181   -14898608.46349 -11607655.11449  23078248.4714   23078256.6614
  23236997.320    12705564.47049   9886011.68749  23236997.2424   23237005.9304
  20563595.873    -6079597.79249  -4767955.49549  20563595.8694   20563601.9414
  24020023.587   -12181977.77649  -9149933.16049  24020023.0644   24020030.9644
  23352592.147   -10923413.99349  -8054988.03049  23352592.0874   23352598.5074
  25079475.604    20156784.47749  15337063.38549  25079476.6304   25079488.8154
 98  1 30 18 19  0.0010000  0  9 19  3 31  2 16 18 27 13 14
  21435967.008    -7716557.91849  -6014543.97649  21435967.2494   21435973.6004
  23640775.947    -6636447.18649  -5171782.13749  23640776.2814   23640784.1694
  23061589.180   -14986156.96649 -11675874.69849  23061589.0344   23061596.9214
  25474073.280    -4321082.03149  -2840187.98749  25474071.9774   25474083.2844
  23252071.024    12784777.11549   9947735.75949  23252071.2864   23252080.2154
  20560405.959    -6096360.93349  -4781017.68749  20560406.1374   20560412.1424
  24003932.369   -12266537.05649  -9215823.47049  24003932.5434   24003939.2634
  23332200.899   -11030570.58149  -8138486.65249  23332201.5234   23332206.8474
  25097455.292    20251267.27049  15410685.98949  25097456.3234   25097467.2304
 98  1 30 18 19 30.0010000  0  9 19  3 31  2 16 18 27 13 14
  21427253.077    -7762349.95849  -6050226.08949  21427253.0914   21427259.6664
  23637730.539    -6652451.17349  -5184252.78049  23637730.6904   23637738.6724
  23044981.241   -15073432.04849 -11743881.22749  23044980.9524   23044988.8984
  25453457.919    -4429415.79949  -2924603.81449  25453456.6594   25453467.8074
  23267173.824    12864142.28449  10009578.68249  23267173.4514   23267182.3054
  20557300.143    -6112682.14049  -4793735.51549  20557300.2274   20557306.2264
  23987840.952   -12351097.62149  -9281714.79149  23987841.0034   23987848.3304
  23311818.020   -11137683.44449  -8221951.21149  23311819.5634   23311824.4744
  25115412.803    20345634.04049  15484218.16549  25115412.9314   25115426.2614
 98  1 30 18 20  0.0010000  0  9 19  3 31  2 16 18 27 13 14
  21418560.780    -7808028.27049  -6085819.58049  21418561.0894   21418567.6174
  23634773.490    -6667990.60349  -5196361.42449  23634774.4064   23634780.6544
  23028421.317   -15160454.88849 -11811691.20349  23028421.2564   23028429.0114
  25432854.024    -4537689.51949  -3008972.83749  25432853.8124   25432864.3404
  23282301.003    12943635.78449  10071521.59649  23282300.9484   23282309.5014
  20554274.489    -6128582.12249  -4806125.12149  20554274.3324   20554280.3014
  23971751.186   -12435650.04349  -9347599.75849  23971751.4424   23971758.6044
  23291439.584   -11244772.85249  -8305397.49149  23291439.7924   23291446.1834
  25133348.125    20439883.73649  15557659.11649  25133348.2854   25133361.7264
 98  1 30 18 20 30.0010000  0  9 19  3 31  2 16 18 27 13 14
  21409893.381    -7853575.92049  -6121311.25749  21409893.3994   21409899.8844
  23631906.472    -6683057.11149  -5208101.55549  23631906.7714   23631913.8344
  23011908.058   -15247232.66749 -11879310.22749  23011907.9984   23011915.6364
  25412265.018    -4645884.93949  -3093280.86749  25412264.6054   25412274.2674
  23297448.736    13023237.18649  10133548.58249  23297448.8924   23297457.9494
  20551326.037    -6144076.36649  -4818198.56849  20551326.0234   20551332.0314
  23955664.277   -12520187.55249  -9413473.11049  23955664.2494   23955672.2994
  23271063.777   -11351848.33549  -8388832.92549  23271063.6784   23271069.7944
  25151258.104    20534001.17849  15630996.99349  25151258.6964   25151272.5604
 98  1 30 18 21  0.0010000  0  8 19  3 31  2 16 18 27 13
  21401251.307    -7898990.23549  -6156699.03149  21401251.3724   21401258.1454
  23629132.863    -6697632.65549  -5219459.09349  23629132.8824   23629140.6664
  22995441.486   -15333765.16449 -11946738.11549  22995441.1174   22995448.8894
  25391694.369    -4753983.97549  -3177513.80049  25391693.5964   25391703.0054
  23312614.716    13102934.51749  10195650.31849  23312614.3434   23312623.9324
  20548453.532    -6159171.44649  -4829960.98249  20548453.5924   20548459.6454
  23939575.932   -12604732.22349  -9479352.04349  23939575.1974   23939583.5764
  23250689.315   -11458916.78449  -8472262.88049  23250689.4834   23250695.3094
 98  1 30 18 21 30.0010000  0  8 19  3 31  2 16 18 27 13
  21392633.838    -7944275.36549  -6191986.14549  21392633.9884   21392640.3894
  23626451.811    -6711721.51549  -5230437.41549  23626451.8984   23626459.6854
  22979024.958   -15420034.25149 -12013960.76449  22979025.0524   22979032.7524
  25371137.879    -4862008.68849  -3261688.82049  25371136.7684   25371147.3674
  23327798.936    13182727.74149  10257826.76849  23327798.6514   23327807.7874
  20545656.809    -6173868.43949  -4841413.19049  20545656.8584   20545662.9674
  23923481.694   -12689307.30749  -9545254.69149  23923480.8394   23923488.9304
  23230315.100   -11565983.94049  -8555691.85049  23230315.7074   23230322.0984
 98  1 30 18 22  0.0010000  0  9 19  3 10 31  2 16 18 27 13
  21384034.895    -7989463.14449  -6227197.39749  21384034.7414   21384041.4284
  23623856.548    -6725359.67449  -5241064.52049  23623856.1754   23623864.0474
  25209997.977    -4752605.95949  -3233983.10149  25209997.8724   25210006.1094
  22962663.169   -15506015.76649 -12080959.31349  22962662.9794   22962670.9624
  25350592.199    -4969976.79749  -3345819.73249  25350591.5114   25350602.5184
  23342995.970    13262588.23249  10320055.65249  23342996.1204   23343005.0904
  20542933.804    -6188177.94549  -4852563.45149  20542933.7534   20542939.9214
  23907373.336   -12773956.69049  -9611215.22049  23907372.6604   23907380.9994
  23209939.276   -11673059.60949  -8639127.41849  23209939.7734   23209945.6844
 98  1 30 18 22 30.0010000  0  9 19  3 10 31  2 16 18 27 13
  21375450.696    -8034573.29349  -6262348.16149  21375450.7534   21375457.2144
  23621345.887    -6738553.04649  -5251345.04449  23621345.9524   23621353.2034
  25193770.869    -4837880.47449  -3300430.80849  25193769.9264   25193779.2094
  22946361.325   -15591682.31549 -12147712.42949  22946360.5954   22946369.2974
  25330056.457    -5077892.20749  -3429909.56849  25330055.6374   25330066.1734
  23358207.059    13342522.45949  10382341.98149  23358207.0504   23358215.2414
  20540287.768    -6202082.75349  -4863398.36949  20540287.7254   20540293.8794
  23891249.540   -12858687.72349  -9677239.38849  23891250.5714   23891256.6844
  23189567.334   -11780114.53949  -8722546.84249  23189568.2164   23189573.7994
 98  1 30 18 23  0.0010000  0  9 19  3 10 31  2 16 18 27 13
  21366879.701    -8079614.12349  -6297444.91049  21366879.9274   21366886.3504
  23618917.658    -6751313.38049  -5261288.13749  23618917.8734   23618925.9014
  25177615.621    -4922777.27149  -3366584.19249  25177616.2694   25177623.0374
  22930120.139   -15677030.30249 -12214217.32049  22930119.7584   22930127.5534
  25309528.568    -5185766.02449  -3513966.98549  25309527.6194   25309537.7234
  23373432.259    13422530.87049  10444686.12449  23373431.8904   23373440.5294
  20537721.408    -6215568.94149  -4873907.09449  20537721.4414   20537727.6584
  23875111.807   -12943492.43249  -9743320.95649  23875112.3844   23875119.6914
  23169206.340   -11887112.27849  -8805921.69849  23169207.0024   23169212.9534
 98  1 30 18 23 30.0010000  0  9 19  3 10 31  2 16 18 27 13
  21358322.926    -8124580.14349  -6332483.37149  21358322.7414   21358329.4564
  23616570.599    -6763647.16949  -5270898.85349  23616570.7384   23616578.1394
  25161530.720    -5007304.27849  -3432449.41049  25161530.6954   25161538.9954
  22913940.840   -15762053.00549 -12280468.70149  22913940.4094   22913948.2314
  25289007.263    -5293605.67649  -3597997.83749  25289005.8364   25289016.8894
  23388673.363    13502622.93849  10507095.44049  23388673.0994   23388681.4714
  20535235.859    -6228630.65349  -4884085.05249  20535235.8924   20535241.8674
  23858965.288   -13028343.26049  -9809438.47249  23858965.8624   23858973.1674
  23148860.283   -11994031.21449  -8889235.15049  23148861.1074   23148867.0974
 98  1 30 18 24  0.0010000  0  9 19  3 10 31  2 16 18 27 13
  21349781.258    -8169466.83249  -6367460.01949  21349781.3244   21349787.9864
  23614305.724    -6775549.05149  -5280173.02049  23614305.2674   23614313.9274
  25145513.069    -5091477.70649  -3498039.12149  25145511.7944   25145520.8464
  22897820.629   -15846765.11349 -12346478.05649  22897819.5194   22897828.5154
  25268495.973    -5401392.75349  -3681987.69149  25268494.0964   25268505.2454
  23403933.577    13582815.40149  10569582.99249  23403933.3744   23403942.6614
  20532829.369    -6241276.86349  -4893939.24749  20532829.3984   20532835.6224
  23842813.144   -13113223.28449  -9875578.72449  23842813.1344   23842820.2764
  23128531.537   -12100859.32749  -8972477.83049  23128532.0004   23128538.5894
 98  1 30 18 24 30.0010000  0  9 19  3 10 31  2 16 18 27 13
  21341257.881    -8214257.52849  -6402361.86549  21341258.1344   21341264.6054
  23612126.050    -6787003.33249  -5289098.40249  23612126.3754   23612133.3034
  25129562.836    -5175296.58749  -3563352.55249  25129560.8574   25129571.3694
  22881753.639   -15931197.52349 -12412269.47749  22881752.8324   22881761.3674
  25247995.998    -5509120.16849  -3765931.05049  25247994.4674   25248005.1414
  23419214.627    13663117.54149  10632156.00049  23419214.0654   23419224.2214
  20530499.890    -6253518.45849  -4903478.16049  20530500.1014   20530506.0484
  23826661.305   -13198101.71949  -9941717.75849  23826661.2464   23826668.8364
  23108221.130   -12207591.19749  -9055645.52349  23108221.1814   23108228.2224
 98  1 30 18 25  0.0010000  0  9 19  3 10 31  2 16 18 27 13
  21332758.762    -8258920.75849  -6437164.38649  21332758.8384   21332765.4334
  23610040.454    -6797962.96349  -5297638.36249  23610040.0894   23610048.4644
  25113678.011    -5258771.54849  -3628398.00449  25113678.0324   25113685.6494
  22865743.770   -16015329.56849 -12477826.83049  22865743.6154   22865750.8244
  25227513.447    -5616756.14649  -3849803.15549  25227513.3664   25227524.8914
  23434521.135    13743553.28949  10694833.12449  23434521.6484   23434529.7664
  20528251.522    -6265333.82849  -4912684.95049  20528251.4774   20528257.5264
  23810514.648   -13282952.68349 -10007835.38249  23810514.8444   23810522.1294
  23087930.695   -12314218.26049  -9138731.53949  23087931.2884   23087936.6534
 98  1 30 18 25 30.0010000  0  9 19  3 10 31  2 16 18 27 13
  21324288.023    -8303434.79849  -6471850.66049  21324288.0534   21324294.8124
  23608056.971    -6808386.32749  -5305760.45649  23608057.1424   23608064.2244
  25097860.586    -5341892.98049  -3693167.96749  25097860.8324   25097868.8284
  22849796.884   -16099130.65349 -12543126.26149  22849796.1554   22849804.5214
  25207053.669    -5724272.87949  -3933582.37049  25207054.2094   25207062.0694
  23449860.394    13824161.24349  10757644.44049  23449859.9004   23449869.2104
  20526089.063    -6276697.63049  -4921539.85749  20526089.0144   20526095.1764
  23794377.317   -13367755.14149 -10073915.20249  23794377.0764   23794384.9434
  23067661.794   -12420731.94349  -9221729.20649  23067661.8704   23067668.2484
 98  1 30 18 26  0.0010000  0  9 19  3 10 31  2 16 18 27 13
  21315846.150    -8347797.22949  -6506418.79449  21315846.2574   21315852.8084
  23606179.338    -6818253.08449  -5313448.82749  23606179.5124   23606187.4504
  25082114.542    -5424639.82749  -3757646.07249  25082114.4144   25082122.8734
  22833914.526   -16182592.83249 -12608161.61549  22833914.3204   22833921.6934
  25186620.385    -5831649.95849  -4017252.76149  25186618.9774   25186631.6324
  23465232.653    13904942.59149  10820590.85449  23465232.8074   23465240.9284
  20524016.315    -6287589.98649  -4930027.40749  20524016.3994   20524022.6264
  23778249.963   -13452505.18349 -10139954.19049  23778249.8304   23778257.2544
  23047416.269   -12527123.00249  -9304631.32949  23047416.9454   23047423.5864
 98  1 30 18 26 30.0010000  0  9 19  3 10 31  2 16 18 27 13
  21307426.373    -8392043.41849  -6540896.35049  21307426.4364   21307432.9584
  23604401.820    -6827593.96049  -5320727.41849  23604401.2634   23604410.1834
  25066434.837    -5507037.43249  -3821852.03249  25066434.4884   25066444.7354
  22818092.410   -16265738.16049 -12672950.07049  22818092.0544   22818099.6064
  25166204.789    -5938933.74349  -4100850.41349  25166204.3394   25166214.6854
  23480627.217    13985841.13249  10883628.60349  23480627.3304   23480635.4004
  20522030.646    -6298024.87249  -4938158.48449  20522030.7544   20522036.6674
  23762124.984   -13537242.31749 -10205983.10649  23762125.5834   23762131.5014
  23027185.373   -12633437.04649  -9387473.44349  23027185.9914   23027192.0124
 98  1 30 18 27  0.0010000  0  9 19  3 10 31  2 16 18 27 13
  21299022.873    -8436204.25849  -6575307.40249  21299023.1034   21299029.7294
  23602718.184    -6836441.45749  -5327621.55249  23602717.5094   23602725.7984
  25050818.050    -5589104.29049  -3885800.26949  25050817.5204   25050827.0104
  22802332.297   -16348557.89649 -12737484.81449  22802331.7544   22802339.6924
  25145800.973    -6046156.48949  -4184400.51949  25145800.1954   25145812.1124
  23496039.761    14066834.23049  10946740.01149  23496039.3004   23496048.7914
  20520131.979    -6308002.38949  -4945933.18349  20520132.1084   20520138.2434
  23745996.405   -13621998.26949 -10272026.69549  23745996.5994   23746003.6044
  23006964.022   -12739700.79149  -9470276.35749  23006964.7204   23006970.4594
 98  1 30 18 27 30.0010000  0  9 19  3 10 31  2 16 18 27 13
  21290636.792    -8480273.23249  -6609646.87249  21290636.8294   21290643.4054
  23601124.374    -6844816.73749  -5334147.73749  23601124.3224   23601132.5324
  25035270.192    -5670808.66449  -3949466.03949  25035269.5344   25035278.3424
  22786635.881   -16431042.69649 -12801758.60449  22786635.7004   22786643.3614
  25125412.153    -6153299.96949  -4267888.86549  25125411.9994   25125421.4764
  23511469.400    14147917.09949  11009921.39049  23511470.0684   23511478.6304
  20518319.790    -6317525.46949  -4953353.76749  20518319.9534   20518326.0544
  23729865.886   -13706764.52049 -10338078.29849  23729865.9364   23729872.9594
  22986755.359   -12845898.29249  -9553027.65149  22986756.0104   22986761.3584
 98  1 30 18 28  0.0010000  0  9 19  3 10 31  2 16 18 27 13
  21282270.290    -8524239.49849  -6643906.31149  21282270.3714   21282276.9264
  23599616.314    -6852741.61149  -5340322.94849  23599616.0964   23599624.0394
  25019791.197    -5752151.53649  -4012850.13249  25019791.2794   25019799.0214
  22771004.573   -16513185.74249 -12865766.09549  22771004.4924   22771011.7274
  25105041.038    -6260350.63049  -4351304.86849  25105040.5024   25105051.2434
  23526909.994    14229057.71849  11073147.75549  23526909.5594   23526919.1314
  20516592.165    -6326604.07249  -4960428.01449  20516592.1294   20516598.2904
  23713733.567   -13791540.38549 -10404137.39549  23713734.1334   23713741.2584
  22966559.415   -12952028.88749  -9635726.81449  22966559.8914   22966565.5984
 98  1 30 18 28 30.0010000  0  9 19  3 10 31  2 16 18 27 13
  21273929.593    -8568070.35049  -6678060.22649  21273929.6654   21273936.3054
  23598196.343    -6860203.59849  -5346137.46849  23598196.3694   23598204.9454
  25004385.140    -5833111.14649  -4075935.57449  25004384.9454   25004393.2354
  22755444.622   -16594953.50549 -12929481.15049  22755444.5444   22755451.6954
  25084690.636    -6367292.48249  -4434636.07549  25084690.1404   25084701.1154
  23542364.850    14310273.17049  11136432.43349  23542364.7004   23542373.4104
  20514952.405    -6335221.22249  -4967142.68349  20514952.5944   20514958.5654
  23697603.908   -13876302.64049 -10470185.88049  23697603.8004   23697610.9104
  22946379.328   -13058076.15949  -9718361.04749  22946380.0824   22946385.1864
 98  1 30 18 29  0.0010000  0  9 19  3 10 31  2 16 18 27 13
  21265613.801    -8611769.95549  -6712111.87649  21265613.8124   21265620.6014
  23596863.006    -6867210.35049  -5351597.26849  23596863.3114   23596871.5554
  24989050.844    -5913693.40049  -4138726.97649  24989049.7514   24989058.2584
  22739955.782   -16676347.42049 -12992904.91449  22739955.1074   22739962.7594
  25064360.990    -6474125.19849  -4517882.24249  25064360.8244   25064370.8114
  23557832.563    14391556.26849  11199769.81149  23557832.6424   23557841.5904
  20513395.323    -6343403.91149  -4973518.80449  20513395.4124   20513401.6434
  23681476.618   -13961052.32249 -10536224.56549  23681476.5254   23681484.1264
  22926218.498   -13164022.17249  -9800916.38049  22926220.1184   22926224.2264
 98  1 30 18 29 30.0010000  0  9 19  3 10 31  2 16 18 27 13
  21257324.037    -8655333.17949  -6746057.25349  21257324.1014   21257330.6504
  23595616.713    -6873759.71249  -5356700.63949  23595616.0254   23595625.0144
  24973787.847    -5993901.22949  -4201226.61149  24973786.9874   24973796.2584
  22724534.566   -16757386.01749 -13056051.80549  22724534.5924   22724541.9244
  25044052.352    -6580847.67449  -4601042.50849  25044051.7744   25044062.0804
  23573308.830    14472884.14849  11263142.09449  23573308.6784   23573317.9934
  20511918.247    -6351166.10049  -4979567.26249  20511918.0954   20511924.1964
  23665347.859   -14045809.24749 -10602268.90349  23665348.3504   23665355.2984
  22906077.817   -13269862.23649  -9883389.15049  22906078.2924   22906084.1994
 98  1 30 18 30  0.0010000  0  9 19  3 10 31  2 16 18 27 13
  21249060.321    -8698759.20749  -6779895.72749  21249060.2924   21249066.9914
  23594463.049    -6879822.41949  -5361424.81349  23594462.8134   23594470.9744
  24958595.595    -6073737.32949  -4263436.58749  24958594.9444   24958604.2884
  22709181.378   -16838067.12649 -13118920.14349  22709180.7514   22709188.6124
  25023760.423    -6687482.13749  -4684134.17949  25023760.2014   25023770.6314
  23588795.291    14554266.00249  11326556.42949  23588795.3274   23588804.7404
  20510525.722    -6358483.80249  -4985269.37249  20510525.7984   20510531.9224
  23649215.912   -14130582.57749 -10668326.02349  23649215.6794   23649223.7014
  22885957.565   -13375594.86449  -9965778.20449  22885958.3514   22885963.7914
 98  1 30 18 30 30.0010000  0  9 19  3 10 31  2 16 18 27 13
  21240823.009    -8742046.54449  -6813626.12849  21240823.1044   21240829.6934
  23593404.722    -6885383.78649  -5365758.31049  23593405.6254   23593413.0634
  24943477.446    -6153184.07049  -4325343.17749  24943476.9504   24943485.9034
  22693894.947   -16918397.57349 -13181515.23949  22693894.8444   22693902.3064
  25003482.498    -6794043.30249  -4767168.76149  25003481.9104   25003492.5984
  23604295.981    14635722.14849  11390028.66049  23604296.3364   23604305.5864
  20509220.369    -6365343.44449  -4990614.56149  20509220.4724   20509226.6194
  23633078.779   -14215383.19849 -10734404.40949  23633078.3004   23633086.2194
  22865857.942   -13481219.28549 -10048082.94849  22865858.4064   22865863.7494
 98  1 30 18 31  0.0010000  0  9 19  3 10 31  2 16 18 27 13
  21232608.918    -8785211.98449  -6847261.54749  21232609.2404   21232615.5024
  23592440.585    -6890450.23349  -5369706.17149  23592440.1144   23592448.2144
  24928434.057    -6232237.64049  -4386943.39649  24928433.7844   24928441.7474
  22678672.475   -16998392.10249 -13243848.59449  22678672.5824   22678679.2434
  24983218.089    -6900532.93149  -4850147.59749  24983217.3794   24983228.5604
  23619809.084    14717244.16249  11453552.19349  23619809.3964   23619818.2634
  20508001.765    -6371747.31149  -4995604.60549  20508001.9064   20508007.8684
  23616933.915   -14300225.21049 -10800515.05149  23616933.6374   23616940.9644
  22845778.287   -13586738.54749 -10130305.74149  22845779.0864   22845784.8434
 98  1 30 18 31 30.0010000  0  9 19  3 10 31  2 16 18 27 13
  21224417.425    -8828258.67449  -6880804.43649  21224417.5614   21224424.0974
  23591572.052    -6895014.48649  -5373262.71849  23591571.8254   23591579.5214
  24913466.357    -6310893.59649  -4448233.77949  24913465.4174   24913474.8464
  22663514.284   -17078048.59549 -13305918.55849  22663514.1764   22663521.6364
  24962970.184    -7006936.23049  -4933059.17749  24962970.1454   24962979.9344
  23635334.900    14798832.34749  11517127.28949  23635334.9284   23635344.3744
  20506873.045    -6377678.83849  -5000226.58349  20506872.9474   20506879.0194
  23600781.245   -14385108.70349 -10866658.00849  23600781.2994   23600788.7084
  22825716.563   -13692163.67449 -10212455.19049  22825717.6344   22825723.2534
 98  1 30 18 32  0.0010000  0  9 19  3 10 31  2 16 18 27 13
  21216246.367    -8871197.93149  -6914263.60949  21216246.4484   21216252.8084
  23590798.741    -6899078.14049  -5376429.18749  23590798.5404   23590806.5614
  24898574.191    -6389152.12349  -4509214.49549  24898573.1964   24898581.7744
  22648420.960   -17157364.20949 -13367722.92349  22648420.7654   22648427.8464
  24942739.145    -7113250.64849  -5015901.53049  24942739.2814   24942749.5364
  23650877.128    14880506.87149  11580769.66449  23650877.0984   23650885.9224
  20505834.027    -6383138.71749  -5004481.04749  20505833.9274   20505840.1184
  23584621.789   -14470027.43049 -10932828.42849  23584621.5264   23584628.5364
  22805670.797   -13797504.76849 -10294539.14849  22805671.2924   22805677.1134
 98  1 30 18 32 30.0010000  0  9 19  3 10 31  2 16 18 27 13
  21208097.962    -8914017.95649  -6947629.87849  21208097.9094   21208104.7024
  23590117.955    -6902655.52049  -5379216.75949  23590117.5614   23590126.2594
  24883758.837    -6467007.43349  -4569880.99349  24883757.9334   24883767.3544
  22633396.556   -17236317.96349 -13429245.30949  22633396.8154   22633403.9774
  24922531.856    -7219440.26149  -5098646.62949  24922531.4704   24922541.5374
  23666438.357    14962281.02549  11644489.67549  23666438.6954   23666447.5494
  20504884.865    -6388126.68449  -5008367.79749  20504884.9944   20504891.1214
  23568459.877   -14554958.50149 -10999008.46449  23568459.6254   23568467.1834
  22785643.701   -13902747.73549 -10376546.65249  22785644.6464   22785649.5964
 98  1 30 18 33  0.0010000  0  9 19  3 10 31  2 16 18 27 13
  21199972.376    -8956718.29549  -6980902.88349  21199972.6944   21199979.2144
  23589530.787    -6905740.98649  -5381621.02249  23589531.2274   23589538.7154
  24869016.653    -6544478.46849  -4630248.07949  24869016.5684   24869024.6984
  22618446.118   -17314882.98049 -13490464.79949  22618446.0464   22618453.5844
  24902352.210    -7325484.50049  -5181278.47949  24902351.8714   24902362.3504
  23682018.495    15044155.04249  11708287.49349  23682018.5504   23682028.2764
  20504026.586    -6392637.15349  -5011882.47449  20504026.6884   20504032.8414
  23552299.879   -14639879.38049 -11065180.57349  23552300.1524   23552307.6994
  22765638.764   -14007874.41149 -10458463.53449  22765638.7764   22765645.1244
 98  1 30 18 33 30.0010000  0  9 19  3 10 31  2 16 18 27 13
  21191872.298    -8999284.66349  -7014071.49349  21191872.6024   21191879.2044
  23589038.630    -6908327.43149  -5383636.46049  23589038.1294   23589045.8504
  24854346.252    -6621572.28949  -4690321.22149  24854345.4454   24854355.1154
  22603572.761   -17393042.84849 -13551368.60049  22603572.5324   22603580.0454
  24882202.633    -7431370.75149  -5263787.24249  24882202.3104   24882212.2544
  23697620.474    15126143.39849  11772174.42349  23697620.1094   23697629.2224
  20503259.930    -6396666.03149  -5015021.88449  20503259.9984   20503266.0874
  23536142.554   -14724786.38649 -11131341.86849  23536142.4784   23536149.6104
  22745657.689   -14112875.51449 -10540282.57449  22745658.8084   22745663.4714
 98  1 30 18 34  0.0010000  0  9 19  3 10 31  2 16 18 27 13
  21183798.960    -9041710.67649  -7047130.73549  21183799.1614   21183805.6284
  23588638.719    -6910428.83249  -5385273.93649  23588638.6254   23588647.5174
  24839747.938    -6698286.93849  -4750098.90549  24839747.1114   24839756.0404
  22588776.996   -17470794.93149 -13611954.63749  22588776.4854   22588784.1874
  24862081.648    -7537107.02249  -5346179.14349  24862080.3304   24862091.4524
  23713244.785    15208249.49049  11836153.08149  23713244.5724   23713254.1084
  20502584.146    -6400217.25049  -5017789.08949  20502584.3264   20502590.2584
  23519987.572   -14809681.46649 -11197493.87749  23519987.2624   23519994.9454
  22725700.839   -14217749.45649 -10622002.52249  22725701.3544   22725707.1894
 98  1 30 18 34 30.0010000  0  9 19  3 10 31  2 16 18 27 13
  21175751.144    -9084002.37349  -7080085.32049  21175751.3224   21175757.8824
  23588329.275    -6912054.99949  -5386541.10949  23588329.3894   23588337.3984
  24825219.886    -6774631.94449  -4809588.54949  24825218.6894   24825227.8304
  22574059.551   -17548135.61549 -13672220.07549  22574059.6444   22574067.1934
  24841988.208    -7642698.33849  -5428458.11849  24841987.2804   24841999.0824
  23728882.672    15290426.27749  11900186.83949  23728882.1974   23728892.0424
  20501996.622    -6403304.84049  -5020195.02149  20501996.6734   20502002.8784
  23503834.595   -14894566.18849 -11263637.80949  23503834.3544   23503841.7314
  22705769.561   -14322488.81149 -10703617.60849  22705770.3424   22705775.8394
 98  1 30 18 35  0.0010000  0  9 19  3 10 31  2 16 18 27 13
  21167730.552    -9126150.64849  -7112928.14949  21167730.4654   21167737.4854
  23588118.880    -6913160.83649  -5387402.85949  23588119.3854   23588127.2324
  24810770.184    -6850565.04849  -4868757.23049  24810769.9514   24810778.4084
  22559421.856   -17625057.00149 -13732158.79849  22559421.8274   22559429.1424
  24821923.723    -7748137.88349  -5510618.84349  24821922.5914   24821933.9784
  23744533.565    15372672.02949  11964274.30249  23744533.7014   23744542.8354
  20501499.646    -6405916.48849  -5022230.08549  20501499.5874   20501505.7374
  23487687.041   -14979422.22949 -11329759.38949  23487687.4424   23487693.8914
  22685866.785   -14427078.29949 -10785115.89949  22685867.3314   22685873.1884
 98  1 30 18 35 30.0010000  0  9 19  3 10 31  2 16 18 27 13
  21159736.003    -9168162.22749  -7145664.46649  21159736.0204   21159742.6054
  23588007.643    -6913745.40849  -5387858.42749  23588007.5624   23588015.7174
  24796403.079    -6926064.85349  -4927588.27049  24796403.2074   24796411.9234
  22544860.844   -17701575.78149 -13791783.79649  22544860.3984   22544868.5284
  24801885.151    -7853441.30349  -5592673.47449  24801884.6734   24801895.4694
  23760194.739    15454971.31949  12028403.52149  23760195.5194   23760204.4924
  20501092.742    -6408054.87449  -5023896.37749  20501092.8294   20501099.0434
  23471543.371   -15064257.73449 -11395864.97949  23471543.1394   23471550.9684
  22665990.599   -14531528.24849 -10866505.46449  22665991.0014   22665997.0274
 98  1 30 18 36  0.0010000  0  9 19  3 10 31  2 16 18 27 13
  21151763.935    -9210055.71949  -7178308.76449  21151764.5084   21151770.8314
  23587993.722    -6913818.44849  -5387915.40049  23587993.9524   23588001.8764
  24782117.214    -7001137.86749  -4986086.76349  24782116.0284   24782126.3004
  22530375.718   -17777695.62649 -13851097.93749  22530375.5664   22530383.6884
  24781868.307    -7958630.51349  -5674639.11949  24781867.5904   24781877.6654
  23775860.524    15537295.05849  12092551.76449  23775860.9944   23775869.7674
  20500772.864    -6409735.97549  -5025206.34349  20500773.1604   20500779.2004
  23455405.025   -15149064.86449 -11461948.46349  23455404.7414   23455412.3494
  22646139.938   -14635843.94849 -10947790.43149  22646140.3034   22646145.9894
 98  1 30 18 36 30.0010000  0  9 19  3 10 31  2 16 18 27 13
  21143809.797    -9251855.38749  -7210879.94849  21143809.9954   21143816.5684
  23588075.234    -6913390.28049  -5387581.83349  23588075.2854   23588083.5254
  24767911.477    -7075790.19649  -5044257.45449  24767911.6224   24767919.9884
  22515964.487   -17853427.07449 -13910109.42849  22515964.2124   22515971.5764
  24761868.109    -8063732.77649  -5756536.99749  24761868.4654   24761877.3944
  23791526.127    15619617.64149  12156699.13349  23791526.5894   23791535.0224
  20500536.570    -6410977.91349  -5026174.10349  20500536.8044   20500542.7254
  23439270.992   -15233849.68849 -11528014.56449  23439270.6014   23439278.0034
  22626312.009   -14740040.47549 -11028982.52649  22626312.2704   22626318.3014
 98  1 30 18 37  0.0010000  0  9 19  3 10 31  2 16 18 27 13
  21135874.022    -9293558.12649  -7243375.61049  21135874.0994   21135880.6464
  23588250.407    -6912469.87349  -5386864.70749  23588250.8144   23588257.9914
  24753786.128    -7150019.77049  -5102098.70449  24753785.3414   24753794.9284
  22501625.952   -17928776.49249 -13968823.24249  22501625.8594   22501633.1174
  24741883.532    -8168752.55549  -5838370.57749  24741882.9814   24741893.0134
  23807195.391    15701959.75849  12220861.70549  23807195.2724   23807205.4764
  20500384.107    -6411779.39549  -5026798.66149  20500384.1794   20500390.3104
  23423140.618   -15318615.22149 -11594065.63749  23423140.8974   23423148.2404
  22606506.189   -14844120.75849 -11110084.04649  22606506.6614   22606512.9904
 98  1 30 18 37 30.0010000  0  9 19  3 10 31  2 16 18 27 13
  21127963.444    -9335128.42749  -7275768.06749  21127963.4754   21127970.3434
  23588515.546    -6911076.79749  -5385779.27049  23588515.4414   23588524.6304
  24739739.430    -7223835.38049  -5159617.40349  24739739.2854   24739749.0934
  22487366.157   -18003712.12249 -14027214.60249  22487366.2904   22487373.1424
  24721920.158    -8273660.87149  -5920117.30149  24721919.9214   24721930.3184
  23822872.289    15784342.11349  12285055.64349  23822872.1094   23822881.4944
  20500318.956    -6412121.89349  -5027065.57149  20500319.1844   20500325.2414
  23407013.897   -15403361.98649 -11660102.08949  23407013.6224   23407020.9404
  22586727.522   -14948058.29449 -11191074.33749  22586728.0044   22586734.5224
 98  1 30 18 38  0.0010000  0  9 19  3 10 31  2 16 18 27 13
  21120083.242    -9376539.30849  -7308036.30249  21120083.2514   21120089.9684
  23588869.535    -6909216.92949  -5384330.10349  23588869.4364   23588877.9274
  24725774.545    -7297221.19849  -5216801.19149  24725774.7724   24725782.7374
  22473188.889   -18078213.88049 -14085267.85949  22473188.7754   22473195.9844
  24701982.289    -8378435.25249  -6001759.65049  24701981.7444   24701992.5084
  23838559.412    15866777.96749  12349291.27349  23838558.9594   23838569.2174
  20500344.132    -6411989.75949  -5026962.63449  20500344.1274   20500350.2764
  23390890.294   -15488092.37549 -11726125.77449  23390890.2744   23390897.4894
  22566980.491   -15051829.54949 -11271935.05249  22566980.9144   22566986.5454
 98  1 30 18 38 30.0010000  0  9 19  3 10 31  2 16 18 27 13
  21112221.067    -9417855.60949  -7340230.83849  21112221.3134   21112227.9544
  23589299.609    -6906957.31649  -5382569.43549  23589299.7284   23589307.3154
  24711878.306    -7370246.70949  -5273704.21649  24711878.1334   24711886.7504
  22459078.065   -18152366.59849 -14143049.15449  22459077.5444   22459085.3524
  24682057.323    -8483141.66249  -6083349.03149  24682057.3574   24682067.7434
  23854243.306    15949197.12349  12413513.87149  23854244.3704   23854252.2344
  20500447.193    -6411448.10949  -5026540.59149  20500447.4064   20500453.4684
  23374750.036   -15572910.13649 -11792217.55349  23374749.6584   23374757.4384
  22547251.358   -15155506.80249 -11352722.52349  22547251.9324   22547258.1054
 98  1 30 18 39  0.0010000  0  9 19  3 10 31  2 16 18 27 13
  21104379.291    -9459064.63849  -7372341.78849  21104379.4024   21104385.8064
  23589808.241    -6904284.65449  -5380486.91649  23589808.1464   23589816.6994
  24698048.310    -7442924.47549  -5330336.27949  24698048.4974   24698056.5334
  22445035.252   -18226162.04749 -14200552.04049  22445035.5954   22445042.5084
  24662149.346    -8587758.93249  -6164868.94149  24662149.6094   24662160.1054
  23869925.416    16031606.48849  12477728.84049  23869925.9744   23869935.1644
  20500629.644    -6410489.47949  -5025793.62849  20500629.7694   20500635.9174
  23358590.822   -15657827.46749 -11858386.89749  23358590.4244   23358598.2474
  22527543.921   -15259070.18649 -11433421.26949  22527544.2664   22527550.2274
 98  1 30 18 39 30.0010000  0  9 19  3 10 31  2 16 18 27 13
  21096589.177    -9500001.85149  -7404240.93149  21096589.2654   21096595.9884
  23590429.276    -6901021.57549  -5377944.31749  23590429.3464   23590437.5904
  24684315.778    -7515089.73249  -5386568.99249  24684315.5744   24684324.2534
  22431092.949   -18299429.15349 -14257643.20049  22431092.6084   22431099.6044
  24642288.945    -8692126.15049  -6246194.01449  24642288.7484   24642298.6554
  23885636.533    16114168.56649  12542062.80349  23885636.7484   23885645.7454
  20500924.253    -6408941.36749  -5024587.32949  20500924.4354   20500930.5334
  23342444.452   -15742677.31249 -11924503.66849  23342444.5624   23342451.8154
  22507889.002   -15362357.70149 -11513905.04849  22507889.3324   22507895.2674
 98  1 30 18 40  0.0010000  0  9 19  3 10 31  2 16 18 27 13
  21088849.309    -9540675.11949  -7435934.40349  21088849.5234   21088856.1704
  23591170.991    -6897124.02949  -5374907.32049  23591171.0624   23591179.6524
  24670685.137    -7586719.12449  -5442384.13749  24670684.7304   24670693.4574
  22417253.209   -18372157.18849 -14314314.32649  22417253.0494   22417260.5014
  24622476.834    -8796239.34049  -6327321.13649  24622476.9044   24622487.5454
  23901379.819    16196899.67349  12606528.50149  23901379.8694   23901388.9144
  20501333.023    -6406793.53549  -5022913.72049  20501333.2624   20501339.3254
  23326318.397   -15827420.17449 -11990537.06749  23326318.0064   23326325.9214
  22488286.995   -15465366.70049 -11594171.79649  22488287.7324   22488293.4804
 98  1 30 18 40 30.0010000  0  9 19  3 10 31  2 16 18 27 13
  21081146.999    -9581151.09449  -7467474.13649  21081147.2554   21081153.6974
  23592028.359    -6892618.91749  -5371396.89949  23592028.1994   23592036.5744
  24657142.933    -7657883.98149  -5497837.30549  24657142.2964   24657152.0024
  22403506.757   -18444395.23849 -14370603.65049  22403506.1254   22403514.5014
  24602704.052    -8900146.16449  -6408287.46049  24602703.5234   24602713.6284
  23917145.148    16279746.87349  12671084.64849  23917144.8154   23917154.0164
  20501842.478    -6404116.34649  -5020827.62349  20501842.4004   20501848.6034
  23310208.367   -15912078.93649 -12056504.92949  23310208.5984   23310217.2414
  22468727.419   -15568153.11849 -11674265.10949  22468727.9234   22468733.9604
 98  1 30 18 41  0.0010000  0  9 19  3 10 31  2 16 18 27 13
  21073478.199    -9621451.32249  -7498876.92449  21073478.4744   21073485.2764
  23592995.041    -6887539.21549  -5367438.72049  23592995.0594   23593003.0014
  24643686.552    -7728597.99249  -5552939.16849  24643686.2614   24643695.6404
  22389852.607   -18516147.88349 -14426514.72549  22389852.1984   22389859.8444
  24582967.952    -9003859.99149  -6489103.39649  24582967.3164   24582977.7324
  23932926.748    16362679.28049  12735707.20549  23932926.7604   23932936.9994
  20502448.448    -6400932.03649  -5018346.36649  20502448.5204   20502454.6294
  23294117.094   -15996639.14749 -12122396.01149  23294117.4784   23294124.5934
  22449206.371   -15670737.10449 -11754200.67549  22449207.1174   22449213.1114
 98  1 30 18 41 30.0010000  0  9 19  3 10 31  2 16 18 27 13
  21065837.218    -9661605.04449  -7530165.55549  21065837.1844   21065843.9234
  23594063.555    -6881924.57449  -5363063.70149  23594063.5504   23594071.2614
  24630315.334    -7798864.65449  -5607692.44449  24630315.3384   24630324.2784
  22376285.629   -18587442.63549 -14482068.97949  22376285.6904   22376292.4904
  24563262.754    -9107411.29749  -6569792.69649  24563262.9174   24563271.8714
  23948718.516    16445665.32649  12800371.52549  23948719.4674   23948728.0044
  20503146.962    -6397261.38749  -5015486.14549  20503147.0974   20503153.1174
  23278041.632   -16081116.50949 -12188222.53049  23278041.9774   23278049.4964
  22429715.138   -15773164.46949 -11834014.20649  22429715.6614   22429721.4224
 98  1 30 18 42  0.0010000  0  9 19  3 10 31  2 16 18 27 13
  21058220.964    -9701628.62449  -7561352.77549  21058221.0474   21058227.7084
  23595229.674    -6875796.63249  -5358288.70049  23595229.2934   23595237.8384
  24617026.743    -7868696.86249  -5662107.19049  24617026.7074   24617035.0594
  22362802.577   -18658296.47749 -14537279.65649  22362802.2544   22362809.0374
  24543585.807    -9210814.20549  -6650366.34949  24543585.5294   24543595.2834
  23964514.887    16528675.51649  12865054.65649  23964515.6814   23964524.1894
  20503933.257    -6393129.48249  -5012266.49749  20503933.3024   20503939.4344
  23261977.360   -16165535.30149 -12254003.40749  23261977.8384   23261984.9824
  22410252.331   -15875442.29249 -11913711.20849  22410253.4044   22410258.9314
 98  1 30 18 42 30.0010000  0  9 19  3 10 31  2 16 18 27 13
  21050632.625    -9741505.61549  -7592425.77049  21050632.6704   21050639.3684
  23596490.802    -6869169.60649  -5353124.81249  23596491.0894   23596498.7594
  24603823.502    -7938080.53549  -5716172.41749  24603822.7684   24603832.1084
  22349405.758   -18728696.74449 -14592136.92249  22349405.3394   22349412.7834
  24523937.259    -9314067.88649  -6730823.72449  24523936.5624   24523946.8244
  23980314.363    16611702.07249  12929750.54649  23980313.8144   23980324.0524
  20504809.771    -6388523.42349  -5008677.38449  20504809.8664   20504816.0694
  23245920.402   -16249915.05849 -12319753.87549  23245919.8754   23245927.9904
  22390822.467   -15977547.05549 -11993273.36549  22390823.1064   22390829.0034
 98  1 30 18 43  0.0010000  0  9 19  3 10 31  2 16 18 27 13
  21043073.638    -9781228.24649  -7623378.48049  21043073.6734   21043080.1224
  23597843.145    -6862063.36649  -5347587.50449  23597843.1534   23597851.1544
  24590710.747    -8006988.83349  -5769867.23149  24590710.6554   24590719.1734
  22336096.854   -18798635.14149 -14646634.33149  22336096.1124   22336103.5394
  24504317.550    -9417170.16249  -6811163.11049  24504317.0644   24504327.2824
  23996118.465    16694752.95749  12994465.40549  23996118.5134   23996129.0624
  20505782.096    -6383414.13349  -5004696.14349  20505782.2124   20505788.3644
  23229867.130   -16334275.40449 -12385489.20649  23229866.8884   23229874.4504
  22371425.892   -16079476.81849 -12072699.15249  22371426.0244   22371432.0544
 98  1 30 18 43 30.0010000  0  9 19  3 10 31  2 16 18 27 13
  21035542.569    -9820804.33149  -7654217.00449  21035542.7974   21035549.4054
  23599288.401    -6854468.56649  -5341669.50449  23599288.3634   23599296.3064
  24577688.508    -8075421.35149  -5823191.30549  24577688.1514   24577697.0944
  22322874.953   -18868116.40349 -14700775.51849  22322874.4864   22322881.8874
  24484726.160    -9520122.99249  -6891386.03049  24484726.2874   24484736.2014
  24011929.352    16777839.51949  13059208.04549  24011929.2674   24011939.3924
  20506849.793    -6377803.41849  -5000324.18849  20506849.9834   20506856.0054
  23213813.775   -16418636.17249 -12451224.87549  23213813.5414   23213820.9364
  22352064.167   -16181223.52649 -12151982.29849  22352064.8284   22352070.2444
 98  1 30 18 44  0.0010000  0  9 19  3 10 31  2 16 18 27 13
  21028037.691    -9860242.84549  -7684948.32949  21028037.8224   21028044.4764
  23600826.581    -6846385.36349  -5335370.93849  23600826.2984   23600834.8664
  24564752.197    -8143402.45249  -5876163.62949  24564751.7464   24564760.3844
  22309738.503   -18937148.51249 -14754566.76349  22309738.1504   22309745.4244
  24465162.871    -9622928.56049  -6971494.19249  24465162.4304   24465172.3324
  24027742.793    16860939.72249  13123961.32649  24027742.4204   24027753.2984
  20508009.315    -6371710.29249  -4995576.33449  20508009.4314   20508015.6864
  23197758.944   -16503005.04149 -12516966.86149  23197759.3254   23197766.0004
  22332739.321   -16282776.34249 -12231114.36349  22332739.9064   22332745.6644
 98  1 30 18 44 30.0010000  0  9 19  3 10 31  2 16 18 27 13
  21020553.362    -9899573.29649  -7715595.45049  21020553.6244   21020560.3694
  23602452.462    -6837841.36049  -5328713.31049  23602452.3724   23602460.6394
  24551896.143    -8210961.54749  -5928807.11149  24551895.8664   24551904.5154
  22296682.038   -19005760.41349 -14808030.55049  22296681.4694   22296689.0134
  24445625.601    -9725597.64449  -7051496.00849  24445625.4364   24445635.1504
  24043553.344    16944024.78449  13188702.79949  24043553.9544   24043563.6164
  20509255.868    -6365159.75549  -4990472.05649  20509255.9384   20509262.1684
  23181697.335   -16587409.54849 -12582736.60949  23181697.7954   23181704.6334
  22313445.345   -16384166.91849 -12310119.99549  22313445.9234   22313451.8334
 98  1 30 18 45  0.0010000  0  9 19  3 10 31  2 16 18 27 13
  21013091.368    -9938786.44749  -7746151.17249  21013091.6394   21013098.2174
  23604169.464    -6828818.81349  -5321682.79149  23604169.3744   23604177.1684
  24539118.900    -8278106.43949  -5981127.84849  24539118.5324   24539127.2764
  22283704.022   -19073960.16549 -14861173.18249  22283703.5434   22283710.9194
  24426116.952    -9828115.74749  -7131380.17149  24426116.9514   24426126.1094
  24059362.482    17027102.04849  13253438.20249  24059362.7304   24059372.8904
  20510591.006    -6358143.68849  -4985005.02749  20510591.1534   20510597.1444
  23165631.134   -16671838.15149 -12648525.13349  23165631.1674   23165639.3644
  22294179.502   -16485409.62549 -12389010.41749  22294179.8504   22294185.7754
 98  1 30 18 45 30.0010000  0  9 19  3 10 31  2 16 18 27 13
  21005661.279    -9977832.05449  -7776576.33349  21005661.4634   21005668.0984
  23605988.877    -6819257.80249  -5314232.68949  23605988.8744   23605997.2924
  24526424.917    -8344813.97149  -6033107.77349  24526424.7494   24526433.4514
  22270813.375   -19141700.91449 -14913958.11649  22270812.9474   22270820.5014
  24406643.044    -9930451.57349  -7211122.28349  24406642.8834   24406652.1924
  24075174.056    17110192.26349  13318183.69749  24075173.4244   24075185.2764
  20512020.685    -6350630.79849  -4979150.86549  20512020.8934   20512026.9294
  23149568.631   -16756246.98649 -12714298.26049  23149568.6174   23149575.7284
  22274950.528   -16586458.60549 -12467749.88449  22274951.3124   22274956.9594
 98  1 30 18 46  0.0010000  0  9 19  3 10 31  2 16 18 27 13
  20998262.762   -10016711.70649  -7806872.17949  20998262.8254   20998269.6024
  23607906.611    -6809180.14649  -5306380.01049  23607907.1264   23607914.3124
  24513809.706    -8411107.38649  -6084765.01549  24513809.6634   24513818.4094
  22258007.974   -19208993.73349 -14966394.02549  22258007.5824   22258014.8944
  24387199.078   -10032630.05249  -7290741.78549  24387198.3444   24387208.6214
  24090983.004    17193268.62149  13382918.38449  24090982.6204   24090993.6074
  20513542.547    -6342633.40549  -4972919.16049  20513542.5804   20513548.8674
  23133506.072   -16840656.17449 -12780071.64849  23133506.3374   23133512.8414
  22255754.507   -16687334.39149 -12546354.39349  22255754.7924   22255760.6384
 98  1 30 18 46 30.0010000  0  9 19  3 10 31  2 16 18 27 13
  20990892.574   -10055442.42049  -7837051.97149  20990892.6974   20990899.2704
  23609919.055    -6798604.81549  -5298139.53049  23609919.1534   23609928.0224
  24501272.757    -8476989.55849  -6136101.80249  24501272.1924   24501281.2814
  22245285.414   -19275851.12849 -15018490.66549  22245284.6304   22245292.2604
  24367780.525   -10134674.77849  -7370257.04849  24367780.6664   24367789.6244
  24106787.846    17276323.57849  13447636.39749  24106787.9184   24106798.8124
  20515155.895    -6334155.44649  -4966312.99349  20515155.9734   20515162.2724
  23117440.234   -16925082.56449 -12845858.45549  23117439.8594   23117447.2344
  22236587.228   -16788059.04749 -12624841.14549  22236587.4414   22236593.4144
 98  1 30 18 47  0.0010000  0  9 19  3 10 31  2 16 18 27 13
  20983550.505   -10094025.19449  -7867116.48949  20983550.6604   20983557.1974
  23612024.647    -6787540.04649  -5289517.67549  23612025.0154   23612033.0914
  24488815.912    -8542450.68149  -6187110.50249  24488815.2464   24488825.0194
  22232649.011   -19342255.79849 -15070234.53949  22232648.3784   22232655.6404
  24348383.637   -10236605.78649  -7449683.69749  24348383.1354   24348392.7424
  24122589.611    17359362.08049  13512341.57649  24122590.4884   24122600.4604
  20516860.987    -6325195.24149  -4959331.05649  20516861.1634   20516867.2114
  23101374.801   -17009507.07249 -12911643.79249  23101375.1514   23101381.9074
  22217451.248   -16888619.42049 -12703199.87849  22217451.7184   22217457.4484
 98  1 30 18 47 30.0010000  0  9 19  3 10 31  2 16 18 27 13
  20976230.797   -10132490.54649  -7897089.50649  20976230.8984   20976237.7334
  23614216.685    -6776021.17749  -5280541.97449  23614216.7684   23614224.5934
  24476437.628    -8607499.31049  -6237797.78549  24476437.6554   24476446.5204
  22220097.300   -19408215.23149 -15121631.45249  22220096.9974   22220104.0574
  24329004.603   -10338442.93649  -7529037.18049  24329003.7714   24329014.1324
  24138383.957    17442361.47349  13577016.29549  24138384.6044   24138394.3074
  20518651.337    -6315786.96349  -4951999.96949  20518651.4034   20518657.7324
  23085308.800   -17093934.31649 -12977431.26649  23085308.9734   23085315.9604
  22198348.527   -16989004.91149 -12781422.34049  22198349.1234   22198354.5164
 98  1 30 18 48  0.0010000  0  9 19  3 10 31  2 16 18 27 13
  20968930.193   -10170855.57249  -7926984.35049  20968930.4124   20968937.1044
  23616491.323    -6764067.75349  -5271227.66349  23616491.5634   23616499.2054
  24464140.945    -8672119.26149  -6288151.02949  24464141.1284   24464149.6944
  22207628.287   -19473739.92749 -15172689.62049  22207628.1494   22207635.1504
  24309647.527   -10440164.64149  -7608300.71849  24309647.2514   24309657.2034
  24154172.830    17525331.83849  13641668.41049  24154173.5344   24154184.2674
  20520527.206    -6305929.23049  -4944318.65149  20520527.3554   20520533.5644
  23069243.348   -17178358.99449 -13043216.74149  23069243.3354   23069250.9024
  22179280.372   -17089208.63549 -12859503.16349  22179280.8834   22179286.4424
 98  1 30 18 48 30.0010000  0  9 19  3 10 31  2 16 18 27 13
  20961646.680   -10209130.74649  -7956809.18149  20961646.8944   20961653.5314
  23618849.186    -6751677.41849  -5261572.90249  23618849.6414   23618858.1034
  24451927.363    -8736302.26149  -6338163.78649  24451926.6234   24451936.6504
  22195242.655   -19538827.04049 -15223406.84149  22195242.5234   22195249.6424
  24290314.681   -10541759.00749  -7687465.02449  24290313.5164   24290324.6994
  24169957.100    17608277.97149  13706301.60549  24169957.3974   24169966.9194
  20522486.696    -6295632.12049  -4936294.95849  20522486.7084   20522492.9494
  23053180.780   -17262768.48449 -13108990.38049  23053181.2654   23053188.2564
  22160249.321   -17189217.59549 -12937432.22349  22160249.8784   22160255.5474
 98  1 30 18 49  0.0010000  0  9 19  3 10 31  2 16 18 27 13
  20954380.691   -10247313.99649  -7986562.38249  20954380.9144   20954387.5864
  23621290.547    -6738848.12649  -5251576.08749  23621290.4314   23621298.6354
  24439796.587    -8800049.78849  -6387837.22449  24439796.2414   24439805.0614
  22182940.307   -19603476.08749 -15273782.73049  22182940.1804   22182947.2574
  24271006.815   -10643222.45149  -7766527.30349  24271006.2824   24271015.7544
  24185734.811    17691189.48649  13770907.84649  24185735.2944   24185745.7414
  20524527.702    -6284906.66449  -4927937.49649  20524527.7254   20524534.0414
  23037118.726   -17347175.44049 -13174762.03749  23037118.8344   23037127.3024
  22141255.993   -17289028.16349 -13015206.69149  22141256.6174   22141261.9684
 98  1 30 18 49 30.0010000  0  9 19  3 10 31  2 16 18 27 13
  20947131.007   -10285411.59649  -8016248.84349  20947131.0934   20947137.8074
  23623817.945    -6725566.79849  -5241227.07449  23623817.8914   23623825.9184
  24427747.753    -8863366.41249  -6437174.88049  24427746.4434   24427756.6624
  22170718.140   -19667703.91649 -15323830.36449  22170717.8514   22170725.2374
  24251726.597   -10744540.47649  -7845476.27849  24251725.9694   24251735.8064
  24201503.695    17774054.81549  13835478.07149  24201504.4374   24201513.8604
  20526647.321    -6273768.06749  -4919258.10949  20526647.4084   20526653.7084
  23021051.694   -17431608.38949 -13240553.94749  23021051.6984   23021058.9534
  22122298.300   -17388651.55249 -13092835.30449  22122298.8814   22122304.6254
 98  1 30 18 50  0.0010000  0  9 19  3 10 31  2 16 18 27 13
  20939899.532   -10323413.15249  -8045860.46449  20939899.6194   20939906.3844
  23626434.384    -6711817.48849  -5230513.37749  23626434.5404   23626442.2884
  24415781.655    -8926248.93049  -6486174.28349  24415781.3364   24415791.0684
  22158579.755   -19731491.46649 -15373534.93249  22158580.0044   22158586.3484
  24232473.531   -10845715.67249  -7924313.94549  24232472.9084   24232482.6314
  24217265.327    17856881.81749  13900018.43449  24217265.8764   24217276.0024
  20528845.959    -6262214.17749  -4910255.11749  20528846.0264   20528852.3084
  23004977.896   -17516076.52349 -13306373.29349  23004977.5154   23004984.8634
  22103375.185   -17488093.15249 -13170322.27049  22103375.5024   22103381.0774
 98  1 30 18 50 30.0010000  0  9 19  3 10 31  2 16 18 27 13
  20932688.092   -10361309.58549  -8075390.16849  20932688.1424   20932695.0504
  23629140.945    -6697594.81149  -5219430.84349  23629140.7964   23629149.0234
  24403896.206    -8988707.76349  -6534843.52149  24403896.1844   24403905.4374
  22146527.457   -19794826.57849 -15422886.96949  22146527.0284   22146534.4134
  24213242.666   -10946774.30249  -8003060.78749  24213242.3014   24213252.1314
  24233016.020    17939651.45849  13964514.11049  24233016.3124   24233026.3134
  20531120.352    -6250262.44549  -4900942.12849  20531120.4914   20531126.6154
  22988895.893   -17600587.52349 -13372226.02749  22988895.9584   22988903.0004
  22084485.577   -17587358.63749 -13247672.00149  22084486.0584   22084491.7474
 98  1 30 18 51  0.0000000  0  9 19  3 10 31  2 16 18 27 13
  20925496.697   -10399100.74749  -8104837.84549  20925496.7204   20925503.4164
  23631936.147    -6682906.16649  -5207985.22049  23631935.9714   23631943.6174
  24392090.291    -9050748.50949  -6583186.99849  24392090.1474   24392099.0724
  22134562.240   -19857704.27849 -15471882.59449  22134562.1614   22134569.2944
  24194034.247   -11047714.93649  -8081715.68449  24194034.2394   24194042.6174
  24248752.884    18022347.93849  14028952.77149  24248753.3774   24248763.5794
  20533472.758    -6237900.69649  -4891309.63849  20533473.0824   20533479.2304
  22972805.449   -17685143.30749 -13438113.67349  22972805.1384   22972812.2184
  22065627.769   -17686457.14949 -13324891.61849  22065628.0644   22065634.0634
 98  1 30 18 51 30.0000000  0  9 19  3 10 31  2 16 18 27 13
  20918323.506   -10436796.00049  -8134210.78749  20918323.7964   20918330.4064
  23634816.308    -6667770.96249  -5196191.63049  23634815.4184   23634824.0744
  24380359.229    -9112395.68349  -6631223.80149  24380358.9394   24380367.6074
  22122683.807   -19920125.78849 -15520522.72349  22122683.5454   22122690.7404
  24174844.719   -11148556.36449  -8160293.28849  24174843.8644   24174852.7104
  24264475.646    18104970.45849  14093333.80049  24264475.9034   24264485.6124
  20535902.425    -6225133.02449  -4881360.84449  20535902.7204   20535908.7554
  22956707.896   -17769736.95849 -13504030.81849  22956708.2924   22956715.4484
  22046798.952   -17785403.32649 -13401992.53749  22046799.7784   22046805.3414
 98  1 30 18 52  0.0000000  0  9 19  3 10 31  2 16 18 27 13
  20911169.576   -10474390.28549  -8163505.05349  20911169.7884   20911176.5864
  23637777.195    -6652211.80649  -5184067.69849  23637777.4574   23637785.2654
  24368701.107    -9173659.00449  -6678961.49149  24368700.0704   24368709.7694
  22110891.885   -19982092.81649 -15568808.73449  22110891.7784   22110898.8744
  24155672.098   -11249308.77449  -8238801.50949  24155671.8964   24155680.9384
  24280178.235    18187487.08549  14157632.30549  24280179.4524   24280189.4024
  20538412.415    -6211943.18549  -4871083.08249  20538412.3734   20538418.8504
  22940603.878   -17854364.73649 -13569974.54949  22940603.8604   22940611.1074
  22027999.037   -17884197.48049 -13478975.00049  22027999.4034   22028005.0324
 98  1 30 18 52 30.0000000  0  9 19  3 10 31  2 16 18 27 13
  20904037.079   -10511871.83049  -8192711.46949  20904037.2764   20904044.0864
  23640822.085    -6636210.97749  -5171599.60949  23640822.6294   23640829.6194
  24357118.113    -9234528.02249  -6726391.95049  24357117.8284   24357126.9284
  22099186.229   -20043606.50249 -15616741.46349  22099185.4824   22099192.7694
  24136521.948   -11349942.92749  -8317217.60949  24136521.2744   24136530.6254
  24295859.410    18269891.06249  14221843.02949  24295859.5564   24295870.3414
  20541009.682    -6198294.71149  -4860447.95349  20541009.7754   20541016.0844
  22924496.153   -17939011.52749 -13635933.10349  22924495.8324   22924503.4284
  22009229.143   -17982833.91049 -13555834.54949  22009229.7874   22009235.4374
 98  1 30 18 53  0.0000000  0  9 19  3 10 31  2 16 18 27 13
  20896928.238   -10549229.08049  -8221821.03149  20896928.2984   20896935.0274
  23643952.876    -6619758.73149  -5158779.75949  23643953.2124   23643961.0074
  24345614.386    -9294981.09049  -6773498.27149  24345613.0534   24345623.8484
  22087567.931   -20104661.17449 -15664316.51049  22087567.8354   22087574.6564
  24117400.072   -11450428.40049  -8395517.85349  24117399.3424   24117408.4484
  24311523.512    18352205.55049  14285984.00149  24311523.5024   24311534.3364
  20543700.755    -6184153.16149  -4849428.62249  20543700.9824   20543707.2624
  22908390.572   -18023646.67349 -13701882.58149  22908390.3514   22908398.0404
  21990494.374   -18081285.76049 -13632550.27349  21990495.0074   21990500.9094
 98  1 30 18 53 30.0000000  0  9 19  3 10 31  2 16 18 27 13
  20889842.848   -10586463.05949  -8250834.54749  20889843.0634   20889849.6874
  23647168.806    -6602859.36349  -5145611.51849  23647168.9064   23647176.7744
  24334192.001    -9355006.20849  -6820271.15049  24334191.2904   24334199.7334
  22076034.926   -20165267.22349 -15711541.95249  22076034.6394   22076041.6304
  24098305.941   -11550768.12749  -8473704.54449  24098305.5004   24098314.6134
  24327168.912    18434421.41549  14350048.16049  24327169.5814   24327179.6904
  20546485.122    -6169521.56649  -4838027.43649  20546485.4544   20546491.5364
  22892284.682   -18108283.50349 -13767833.37949  22892284.9014   22892292.2964
  21971796.242   -18179545.05849 -13709115.95549  21971796.9814   21971802.5224
 98  1 30 18 54  0.0000000  0  9 19  3 10 31  2 16 18 27 13
  20882780.746   -10623574.69949  -8279752.73249  20882781.0614   20882787.8464
  23650470.502    -6585508.98349  -5132091.82349  23650470.9704   23650479.2824
  24322854.517    -9414585.37749  -6866696.52549  24322853.8594   24322862.9194
  22064586.892   -20225426.87449 -15758419.57749  22064586.4954   22064593.6864
  24079241.884   -11650949.72849  -8551768.03149  24079240.9484   24079250.9154
  24342796.225    18516542.57449  14414038.49849  24342796.8924   24342807.4514
  20549363.589    -6154395.40749  -4826240.86549  20549363.6724   20549369.9984
  22876176.354   -18192933.26349 -13833794.25149  22876176.5134   22876184.1854
  21953135.101   -18277609.91849 -13785530.12749  21953135.7404   21953141.4174
 98  1 30 18 54 30.0000000  0  9 19  3 10 31  2 16 18 27 13
  20875739.086   -10660579.06349  -8308587.32049  20875739.1474   20875746.0304
  23653855.242    -6567722.40749  -5118232.25449  23653855.5374   23653863.3474
  24311602.870    -9473713.18549  -6912770.18649  24311602.6184   24311610.9384
  22053224.286   -20285137.79149 -15804947.55349  22053224.1514   22053231.4974
  24060206.049   -11750983.00749  -8629715.94549  24060205.3564   24060214.6184
  24358409.447    18598589.72849  14477971.15649  24358409.7244   24358419.9434
  20552331.565    -6138798.62149  -4814087.56149  20552331.6174   20552337.9154
  22860065.734   -18277595.31049 -13899764.69349  22860065.6364   22860072.6484
  21934509.955   -18375485.71949 -13861796.98449  21934510.3244   21934516.2574
 98  1 30 18 55  0.0000000  0  9 19  3 10 31  2 16 18 27 13
  20868716.749   -10697481.74149  -8337342.67449  20868717.0484   20868723.6204
  23657319.154    -6549519.74349  -5104048.44549  23657318.5594   23657327.7684
  24300437.713    -9532386.31549  -6958489.54649  24300437.0874   24300447.3714
  22041948.041   -20344394.76049 -15851121.77749  22041947.8174   22041954.8244
  24041195.446   -11850883.67749  -8707560.53649  24041193.9884   24041204.3904
  24374011.488    18680578.06749  14541858.00249  24374012.1234   24374022.0294
  20555383.934    -6122758.57149  -4801588.86449  20555383.9544   20555390.3634
  22843951.021   -18362278.81049 -13965751.84949  22843951.4614   22843958.6544
  21915920.832   -18473172.23349 -13937916.34349  21915921.4234   21915927.2794
 98  1 30 18 55 30.0000000  0  9 19  3 10 31  2 16 18 27 13
  20861716.591   -10734268.11049  -8366007.39949  20861716.9244   20861723.5244
  23660866.434    -6530879.25449  -5089523.47049  23660867.2024   23660875.1414
  24289359.655    -9590601.94649  -7003852.43249  24289359.7564   24289368.4194
  22030761.806   -20403178.63649 -15896927.36049  22030761.5414   22030768.7104
  24022211.607   -11950643.92349  -8785295.71949  24022211.1894   24022220.7804
  24389603.247    18762512.23849  14605702.63649  24389603.0994   24389613.2504
  20558518.596    -6106285.87949  -4788753.04949  20558518.6744   20558525.0974
  22827830.210   -18446994.51549 -14031764.10449  22827830.2424   22827837.2794
  21897367.421   -18570671.13049 -14013889.51149  21897367.6884   21897373.7864
 98  1 30 18 56  0.0000000  0  9 19  3 10 31  2 16 18 27 13
  20854741.257   -10770923.85449  -8394570.33449  20854741.3834   20854748.1174
  23664499.502    -6511787.66649  -5074646.99649  23664500.7174   23664507.3934
  24278368.334    -9648362.00049  -7048860.31049  24278368.3154   24278377.2104
  22019667.906   -20461477.28349 -15942354.87449  22019667.6914   22019674.6684
  24003254.684   -12050262.70449  -8862920.67249  24003254.1734   24003263.0174
  24405186.705    18844403.27149  14669513.63649  24405187.0914   24405196.3524
  20561734.204    -6089387.83849  -4775585.79949  20561734.2184   20561740.5994
  22811707.411   -18531720.44249 -14097784.31949  22811707.6734   22811714.7274
  21878851.636   -18667972.09849 -14089708.43849  21878852.0564   21878857.9984
 98  1 30 18 56 30.0000000  0  9 19  3 10 31  2 16 18 27 13
  20847791.683   -10807443.92449  -8423027.55049  20847791.7444   20847798.4414
  23668221.387    -6492229.49249  -5059406.93049  23668221.7714   23668229.3734
  24267463.295    -9705668.97649  -7093515.15049  24267462.6454   24267472.4324
  22008667.523   -20519284.66149 -15987399.55049  22008667.3174   22008674.1344
  23984324.987   -12149738.17949  -8940433.96649  23984324.3484   23984334.3574
  24420761.498    18926248.77049  14733289.15149  24420761.3394   24420772.7274
  20565030.279    -6072066.91149  -4762089.02949  20565030.4964   20565036.9894
  22795584.455   -18616447.03949 -14163805.06049  22795584.1754   22795591.7124
  21860377.189   -18765055.81249 -14165358.08949  21860377.7354   21860383.6554
 98  1 30 18 57  0.0000000  0  9 19  3 10 31  2 16 18 27 13
  20840869.304   -10843821.16449  -8451373.47149  20840869.4764   20840876.1064
  23672036.435    -6472181.67049  -5043785.32349  23672037.2304   23672044.5524
  24256643.448    -9762528.03649  -7137820.97649  24256642.4464   24256651.9404
  21997759.088   -20576608.77349 -16032067.68249  21997759.2184   21997766.0514
  23965422.399   -12249071.61549  -9017836.58349  23965421.6844   23965430.9744
  24436324.646    19008033.08649  14797017.03049  24436323.8654   24436335.6124
  20568408.302    -6054315.61849  -4748256.90349  20568408.5874   20568415.0084
  22779460.052   -18701180.96449 -14229831.50849  22779460.3784   22779467.2504
  21841947.306   -18861905.55449 -14240825.42249  21841947.7844   21841953.5564
 98  1 30 18 57 30.0000000  0  9 19  3 10 31  2 16 18 27 13
  20833977.095   -10880039.93349  -8479595.91149  20833977.0984   20833983.9964
  23675947.917    -6451626.95749  -5027768.72049  23675948.1424   23675956.3214
  24245908.946    -9818938.10649  -7181776.92749  24245908.2874   24245917.0984
  21986944.390   -20633440.26649 -16076351.95249  21986944.1154   21986951.0544
  23946550.104   -12348245.66249  -9095115.01349  23946549.8094   23946559.0464
  24451873.203    19089740.86049  14860685.23349  24451872.8114   24451884.2234
  20571871.942    -6036114.19549  -4734074.01749  20571872.0894   20571878.4414
  22763337.768   -18785904.06549 -14295849.52749  22763337.3594   22763345.5964
  21823565.047   -18958504.97749 -14316097.69849  21823565.7704   21823571.6974
 98  1 30 18 58  0.0000000  0  9 19  3 10 31  2 16 18 27 13
  20827114.474   -10916103.27149  -8507697.22749  20827114.7584   20827121.4704
  23679952.894    -6430581.01549  -5011369.36149  23679952.9804   23679960.5944
  24235261.073    -9874893.04549  -7225378.23549  24235260.8884   24235269.3714
  21976225.653   -20689767.51249 -16120243.31549  21976225.4264   21976232.5474
  23927708.431   -12447259.10649  -9172268.31149  23927708.1824   23927717.2054
  24467408.040    19171376.77449  14924297.44049  24467406.9774   24467419.1264
  20575425.645    -6017439.52049  -4719522.35849  20575425.8294   20575432.3504
  22747220.297   -18870602.29049 -14361848.14849  22747220.3374   22747227.8034
  21805232.867   -19054841.21049 -14391164.88949  21805233.1914   21805239.5264
 98  1 30 18 58 30.0000000  0  9 19  3 10 31  2 16 18 27 13
  20820280.307   -10952017.20849  -8535682.12749  20820280.4204   20820287.4024
  23684051.113    -6409044.96149  -4994588.07949  23684051.5324   23684060.4094
  24224700.975    -9930387.09449  -7268620.41149  24224700.5194   24224710.2184
  21965604.730   -20745580.87849 -16163734.24649  21965604.7984   21965611.8294
  23908898.687   -12546104.94549  -9249290.98949  23908898.6644   23908907.7784
  24482927.789    19252933.63349  14987848.04949  24482927.5324   24482939.2274
  20579069.675    -5998290.28849  -4704600.91749  20579069.8664   20579076.1624
  22731105.949   -18955284.16149 -14427834.03449  22731106.1034   22731113.7534
  21786949.770   -19150919.60549 -14466031.17249  21786950.1384   21786956.3554
 98  1 30 18 59  0.0000000  0  9 19  3 10 31  2 16 18 27 13
  20813477.774   -10987765.00649  -8563537.57049  20813478.0394   20813484.6774
  23688241.716    -6387023.39549  -4977428.48349  23688242.7214   23688251.1944
  24214230.837    -9985408.45849  -7311494.25549  24214230.5974   24214239.1284
  21955085.349   -20800860.66549 -16206809.41749  21955085.1414   21955092.2344
  23890124.215   -12644765.25449  -9326169.11349  23890123.9814   23890132.3364
  24498434.002    19334419.02249  15051342.95249  24498434.4474   24498445.4074
  20582808.694    -5978641.88049  -4689290.51949  20582808.8184   20582815.1494
  22714997.337   -19039935.82349 -14493796.37149  22714997.0854   22715004.3674
  21768715.340   -19246742.08249 -14540698.03849  21768715.8624   21768721.8074
 98  1 30 18 59 30.0000000  0  9 19  3 10 31  2 16 18 27 13
  20806707.886   -11023341.19949  -8591259.29849  20806708.0064   20806714.8724
  23692521.157    -6364535.04649  -4959905.15049  23692520.5494   23692530.0294
  24203851.409   -10039953.24949  -7353996.74949  24203850.7034   24203859.7724
  21944672.443   -20855581.03549 -16249448.63649  21944672.7794   21944679.4504
  23871389.494   -12743216.78049  -9402884.54949  23871388.4824   23871398.7414
  24513927.896    19415840.13749  15114787.77949  24513928.0814   24513938.8944
  20586642.570    -5958495.00849  -4673591.70349  20586642.7744   20586648.9944
  22698896.714   -19124545.00049 -14559725.60149  22698896.6414   22698904.2644
  21750529.592   -19342308.97949 -14615165.75449  21750530.2714   21750535.8774
 98  1 30 19  0  0.0000000  0  9 19  3 10 31  2 16 18 27 13
  20799970.911   -11058744.21849  -8618846.08449  20799971.0404   20799977.9194
  23696888.434    -6341584.99249  -4942022.05949  23696888.3764   23696896.9384
  24193564.367   -10094012.11049  -7396120.58949  24193564.0144   24193573.2084
  21934366.158   -20909741.01849 -16291651.22949  21934365.9144   21934373.4334
  23852694.542   -12841459.45149  -9479437.24649  23852693.7244   23852703.2294
  24529411.897    19497209.47549  15178192.25249  24529412.5114   24529422.8524
  20590570.185    -5937855.34549  -4657508.88749  20590570.4454   20590576.8584
  22682804.311   -19209110.94149 -14625621.14549  22682804.1414   22682811.6894
  21732393.627   -19437614.01049 -14689429.41749  21732394.0574   21732400.1304
 98  1 30 19  0 30.0000000  0  9 19  3 10 31  2 16 18 27 13
  20793269.777   -11093959.15149  -8646286.31049  20793270.1694   20793276.7824
  23701348.190    -6318148.85149  -4923760.20849  23701348.1784   23701356.7664
  24183373.270   -10147566.69349  -7437851.50149  24183372.9294   24183380.9594
  21924168.480   -20963330.22549 -16333409.02949  21924167.9944   21924175.4644
  23834044.169   -12939468.08449  -9555807.56849  23834043.0354   23834053.2594
  24544888.888    19578541.55449  15241567.70449  24544888.9974   24544899.8334
  20594591.773    -5916722.05649  -4641041.41949  20594591.9514   20594598.4054
  22666722.912   -19293619.00949 -14691471.58849  22666722.6444   22666730.2304
  21714311.325   -19532637.17649 -14763473.44049  21714311.7454   21714317.8834
 98  1 30 19  1  0.0000000  0  9 19  3 10 31  2 16 18 27 13
  20786614.787   -11128931.51549  -8673537.52549  20786614.9564   20786621.5744
  23705908.705    -6294183.31149  -4905085.81949  23705908.6214   23705917.0794
  24173285.622   -10200578.02349  -7479159.09249  24173285.8124   24173294.7134
  21914088.812   -21016298.99449 -16374683.37749  21914088.6124   21914095.6454
  23815448.053   -13037191.59849  -9631955.73049  23815447.9584   23815456.6844
  24560368.111    19659884.90349  15304951.90949  24560367.9714   24560380.3684
  20598718.253    -5895037.41949  -4624144.34449  20598718.4144   20598724.7774
  22650664.752   -19378005.45449 -14757227.27049  22650664.4414   22650671.4114
  21696294.082   -19627318.63449 -14837251.20449  21696294.4284   21696300.2984
 98  1 30 19  1 30.0000000  0  9 19  3 10 31  2 16 18 27 13
  20780004.539   -11163668.60149  -8700605.40749  20780004.5624   20780011.5304
  23710569.823    -6269689.13349  -4885999.51549  23710570.7234   23710578.8864
  24163301.408   -10253046.04449  -7520043.32849  24163301.5244   24163310.3784
  21904122.622   -21068671.55549 -16415493.13049  21904122.3424   21904129.3664
  23796902.456   -13134649.53249  -9707896.94749  23796902.5274   23796911.8594
  24575846.020    19741221.20349  15368330.65149  24575846.2864   24575857.3634
  20602946.469    -5872818.20949  -4606830.72249  20602946.4774   20602952.8624
  22634627.512   -19462281.92349 -14822897.24749  22634627.7634   22634635.1434
  21678342.318   -19721655.61949 -14910760.54849  21678342.7064   21678348.5104
 98  1 30 19  2  0.0000000  0  9 19  3 10 31  2 16 18 27 13
  20773436.823   -11198182.28449  -8727499.20949  20773436.8894   20773443.7114
  23715333.097    -6244658.20749  -4866494.96749  23715333.4964   23715342.8184
  24153420.985   -10304968.28649  -7560502.27149  24153420.9654   24153430.1744
  21894266.144   -21120467.69049 -16455853.74949  21894265.8554   21894272.9654
  23778404.566   -13231856.82149  -9783642.85449  23778404.7334   23778412.9984
  24591319.077    19822531.15049  15431688.87549  24591319.8344   24591331.9994
  20607276.083    -5850065.79849  -4589101.60949  20607276.2894   20607282.7764
  22618609.783   -19546455.79249 -14888487.27749  22618609.8224   22618617.6144
  21660454.956   -19815654.36949 -14984006.33149  21660455.4694   21660461.4144
 98  1 30 19  2 30.0000000  0  9 19  3 10 31  2 16 18 27 13
  20766905.006   -11232507.08149  -8754245.82949  20766905.1314   20766912.0434
  23720195.518    -6219106.41949  -4846584.55249  23720194.8714   23720204.6554
  24143639.475   -10356370.34649  -7600555.88449  24143640.0264   24143647.9504
  21884513.333   -21171719.11149 -16495789.92549  21884513.3374   21884520.1494
  23759950.310   -13328834.25849  -9859209.67049  23759950.0494   23759959.0354
  24606779.601    19903775.87549  15494996.26449  24606780.2514   24606792.0184
  20611702.859    -5826803.11849  -4570974.89349  20611702.9954   20611709.3524
  22602607.009   -19630550.82449 -14954015.87549  22602606.6614   22602614.7404
  21642627.779   -19909336.71449 -15057005.56149  21642628.0704   21642634.1744
 98  1 30 19  3  0.0000000  0  9 19  3 10 31  2 16 18 27 13
  20760404.879   -11266665.49349  -8780862.79949  20760405.0914   20760411.8794
  23725151.418    -6193063.16349  -4826291.18449  23725151.7294   23725159.0974
  24133951.661   -10407280.26049  -7640225.99449  24133951.3034   24133961.3364
  21874855.975   -21222468.85149 -16535335.16449  21874855.8224   21874862.6474
  23741533.665   -13425614.53249  -9934622.84449  23741533.5884   23741542.1834
  24622219.913    19984914.31349  15558220.80749  24622221.2114   24622231.6054
  20616223.336    -5803048.09549  -4552464.53749  20616223.3564   20616230.0714
  22586613.063   -19714599.48849 -15019508.34249  22586613.1534   22586620.3734
  21624855.174   -20002732.34749 -15129781.38049  21624855.6244   21624861.4674
 98  1 30 19  3 30.0000000  0  9 19  3 10 31  2 16 18 27 13
  20753924.566   -11300719.98049  -8807398.79249  20753924.8074   20753931.5974
  23730190.289    -6166584.01949  -4805658.14649  23730190.4914   23730199.6014
  24124351.733   -10457728.39649  -7679536.28249  24124351.3494   24124361.3844
  21865285.126   -21272763.74449 -16574525.99949  21865285.1884   21865291.5064
  23723145.521   -13522244.90149 -10009919.20549  23723144.9484   23723153.7454
  24637630.053    20065894.16849  15621321.77949  24637630.3334   24637642.5704
  20620824.776    -5778867.48049  -4533622.54949  20620824.9004   20620831.5214
  22570615.287   -19798668.56749 -15085016.72049  22570615.1784   22570622.6164
  21607127.907   -20095889.86249 -15202371.65349  21607128.5664   21607134.5234
 98  1 30 19  4  0.0000000  0  9 19  3 10 31  2 16 18 27 13
  20747459.880   -11334692.38549  -8833870.82149  20747459.9924   20747466.6764
  23735307.968    -6139690.63549  -4784702.33149  23735308.7584   23735316.2874
  24114834.523   -10507742.15549  -7718508.09549  24114835.3374   24114843.7294
  21855803.119   -21322592.27049 -16613353.42849  21855803.0224   21855809.4374
  23704781.368   -13618749.14149 -10085117.30149  23704780.7424   23704789.6154
  24653010.406    20146717.18949  15684300.55449  24653010.1964   24653021.7274
  20625504.170    -5754277.24649  -4514461.38049  20625504.2414   20625510.6504
  22554610.377   -19882775.00749 -15150554.20949  22554610.3384   22554618.0974
  21589443.951   -20188819.79749 -15274784.59249  21589444.1994   21589450.3934
 98  1 30 19  4 30.0000000  0  9 19  3 10 31  2 16 18 27 13
  20741014.447   -11368563.44849  -8860263.88349  20741014.5744   20741021.5424
  23740503.816    -6112386.30449  -4763426.28749  23740504.4314   23740512.3334
  24105400.129   -10557320.63849  -7757140.73749  24105399.6094   24105409.1294
  21846413.064   -21371937.32149 -16651804.12049  21846412.8334   21846419.8004
  23686441.036   -13715127.91049 -10160217.61449  23686440.5784   23686449.8134
  24668365.970    20227410.16649  15747178.00649  24668366.0464   24668377.4594
  20630262.103    -5729274.28649  -4494978.60349  20630262.3374   20630268.8544
  22538598.964   -19966915.55849 -15216118.27249  22538598.8734   22538606.3824
  21571805.559   -20281510.12849 -15347010.83049  21571806.0894   21571811.7444
 98  1 30 19  5  0.0000000  0  9 19  3 10 31  2 16 18 27 13
  20734592.991   -11402308.44949  -8886558.71549  20734593.1404   20734599.9424
  23745776.840    -6084676.73649  -4741834.49149  23745777.8404   23745786.2524
  24096053.090   -10606439.87349  -7795415.52949  24096052.3504   24096061.9284
  21837123.651   -21420753.52749 -16689842.72849  21837123.3744   21837130.4184
  23668126.191   -13811373.14449 -10235213.88749  23668125.1484   23668134.0494
  24683701.043    20307995.40949  15809971.51349  24683700.9994   24683712.3064
  20635101.625    -5703842.53949  -4475161.71849  20635101.7664   20635108.3434
  22522583.650   -20051076.74449 -15281698.42949  22522583.5704   22522591.4834
  21554215.648   -20373945.71949 -15419038.56549  21554216.0974   21554221.9484
 98  1 30 19  5 30.0000000  0  9 19  3 10 31  2 16 18 27 13
  20728197.696   -11435916.13549  -8912746.54549  20728197.7874   20728204.6154
  23751129.141    -6056550.19849  -4719917.77349  23751128.8964   23751137.2394
  24086796.036   -10655085.98349  -7833321.64249  24086795.3594   24086805.1864
  21827943.215   -21468996.84749 -16727434.93049  21827942.8904   21827949.8634
  23649838.302   -13907476.67849 -10310099.74149  23649837.4784   23649846.4804
  24699018.183    20388486.58449  15872691.72649  24699018.9854   24699029.7384
  20640025.263    -5677968.90049  -4455000.50149  20640025.5884   20640032.0094
  22506568.370   -20135237.41949 -15347278.17349  22506568.4174   22506576.0944
  21536679.434   -20466099.08749 -15490846.38849  21536679.9174   21536685.8594
 98  1 30 19  6  0.0000000  0  9 19  3 10 31  2 16 18 27 13
  20721833.740   -11469359.09549  -8938806.02149  20721833.9434   20721840.7144
  23756566.010    -6027979.54849  -4697655.00549  23756566.2314   23756575.3924
  24077629.281   -10703257.86549  -7870858.22949  24077628.6054   24077638.3974
  21818871.566   -21516668.62449 -16764581.78449  21818871.5904   21818878.6164
  23631580.144   -14003423.67449 -10384863.61949  23631579.9084   23631588.7074
  24714319.741    20468895.72049  15935347.96349  24714319.9424   24714332.0214
  20645036.630    -5651634.10449  -4434479.94049  20645036.8584   20645043.4424
  22490556.465   -20219380.58749 -15412844.28749  22490556.2924   22490564.0074
  21519197.729   -20557966.07649 -15562431.05949  21519197.9094   21519203.7864
 98  1 30 19  6 30.0000000  0  9 19  3 10 31  2 16 18 27 13
  20715499.265   -11502647.20549  -8964744.83149  20715499.5084   20715506.3994
  23762086.520    -5998969.37649  -4675049.75349  23762086.3704   23762095.9414
  24068555.247   -10750942.53049  -7908015.16849  24068554.6064   24068564.4094
  21809903.837   -21563794.31449 -16801303.11149  21809903.5984   21809910.6984
  23613356.994   -14099186.86349 -10459484.27049  23613356.4834   23613365.6504
  24729599.176    20549189.06949  15997913.97749  24729599.9444   24729611.4884
  20650133.359    -5624850.85449  -4413609.92949  20650133.3604   20650140.1784
  22474546.786   -20303512.16949 -15478401.36449  22474546.7154   22474554.3824
  21501769.186   -20649553.64949 -15633798.00049  21501769.9244   21501775.6094
 98  1 30 19  7  0.0000000  0  9 19  3 10 31  2 16 18 27 13
  20709196.516   -11535768.28249  -8990553.48749  20709196.5224   20709203.4614
  23767694.589    -5969499.02749  -4652085.92149  23767694.8274   23767704.0734
  24059575.989   -10798129.43249  -7944784.23249  24059575.6424   24059584.8084
  21801041.693   -21610365.04049 -16837592.03349  21801041.3434   21801048.4184
  23595173.773   -14194740.02949 -10533941.27449  23595172.9624   23595182.3214
  24744854.321    20629354.32349  16060380.16849  24744854.1944   24744867.2624
  20655318.145    -5597604.69649  -4392379.20449  20655318.4214   20655325.0334
  22458541.927   -20387618.43649 -15543938.71949  22458542.1454   22458549.2494
  21484396.492   -20740847.75249 -15704936.26549  21484396.9224   21484403.1454
 98  1 30 19  7 30.0000000  0  9 19  3 10 31  2 16 18 27 13
  20702923.741   -11568731.97149  -9016239.50049  20702923.7544   20702930.8364
  23773390.310    -5939568.17349  -4628763.25349  23773390.4044   23773399.5434
  24050687.128   -10844840.89749  -7981182.82349  24050686.5864   24050696.3254
  21792280.279   -21656406.79949 -16873468.74549  21792279.9694   21792287.3234
  23577028.637   -14290093.07049 -10608242.33249  23577028.2934   23577037.5054
  24760083.492    20709382.96249  16122739.92049  24760084.6104   24760096.2284
  20660589.533    -5569903.62949  -4370794.01149  20660589.6714   20660596.4754
  22442539.204   -20471713.04349 -15609466.98149  22442539.4634   22442546.8554
  21467075.489   -20831870.20549 -15775862.85749  21467076.0234   21467082.0714
 98  1 30 19  8  0.0000000  0  9 19  3 10 31  2 16 18 27 13
  20696681.726   -11601533.85849  -9041799.43049  20696681.8054   20696688.6744
  23779171.695    -5909187.16649  -4605089.81249  23779172.2924   23779180.9224
  24041888.860   -10891076.40649  -8017210.54049  24041888.9074   24041898.6124
  21783617.198   -21701931.76049 -16908942.75349  21783617.2564   21783624.2814
  23558922.641   -14385240.36749 -10682383.08649  23558922.1184   23558930.8724
  24775286.286    20789272.72049  16184991.46449  24775286.6964   24775299.4674
  20665944.966    -5541760.90049  -4348864.66749  20665945.2544   20665952.0484
  22426537.274   -20555803.58449 -15674992.07549  22426537.2614   22426544.8034
  21449804.496   -20922629.97949 -15846584.76149  21449805.0994   21449811.0334
 98  1 30 19  8 30.0000000  0  9 19  3 10 31  2 16 18 27 13
  20690468.415   -11634185.20849  -9067242.06249  20690468.5474   20690475.3714
  23785034.739    -5878377.24749  -4581082.16749  23785034.8234   23785043.8884
  24033179.629   -10936843.76949  -8052873.45149  24033179.3664   24033188.1824
  21775053.718   -21746933.24249 -16944008.87649  21775053.8944   21775060.7044
  23540852.343   -14480199.91949 -10756377.53649  23540851.2284   23540861.0544
  24790460.396    20869011.81249  16247125.62749  24790461.2014   24790472.4594
  20671384.686    -5513175.28249  -4326590.20949  20671384.7484   20671391.4914
  22410536.630   -20639887.62249 -15740512.09649  22410536.4384   22410543.9864
  21432585.197   -21013118.00649 -15917094.92049  21432585.6504   21432591.4914
 98  1 30 19  9  0.0000000  0  9 19  3 10 31  2 16 18 27 13
  20684281.691   -11666696.91349  -9092575.88249  20684282.0894   20684288.6954
  23790975.196    -5847160.11049  -4556757.21949  23790975.5704   23790984.8134
  24024552.521   -10982179.37549  -8088199.93449  24024551.2494   24024561.0884
  21766588.070   -21791420.59349 -16978674.37849  21766588.1754   21766595.0824
  23522808.364   -14575021.28249 -10830264.31749  23522807.8594   23522817.5384
  24805604.022    20948590.86049  16309135.02649  24805603.3884   24805617.5504
  20676906.226    -5484159.56549  -4303980.61349  20676906.3264   20676913.0584
  22394534.530   -20723979.33949 -15806038.10649  22394534.8064   22394542.1734
  21415413.638   -21103355.08749 -15987409.53549  21415414.4074   21415420.2254
 98  1 30 19  9 30.0000000  0  9 19  3 10 31  2 16 18 27 13
  20678110.144   -11699128.79649  -9117847.50049  20678110.4724   20678117.2124
  23796982.747    -5815590.65749  -4532157.72849  23796983.0514   23796991.6144
  24015999.666   -11027125.26349  -8123222.74149  24015998.3804   24016009.2534
  21758210.946   -21835442.76149 -17012977.39249  21758210.9544   21758217.9604
  23504779.944   -14669761.01149 -10904087.47149  23504779.8694   23504788.6734
  24820708.015    21027962.38949  16370982.71249  24820708.1014   24820720.7344
  20682499.082    -5454769.10649  -4281079.02049  20682499.2544   20682506.0224
  22378523.276   -20808119.28249 -15871601.69449  22378523.2814   22378530.5004
  21398281.307   -21193385.98549 -16057563.48949  21398281.8684   21398287.6654
 98  1 30 19 10  0.0000000  0  9 19  3 10 31  2 16 18 27 13
  20671955.371   -11731472.55449  -9143050.44649  20671955.6134   20671962.4534
  23803061.179    -5783648.64849  -4507267.94349  23803061.3744   23803070.2214
  24007524.280   -11071664.28049  -8157928.51149  24007524.1174   24007533.1194
  21749925.203   -21878984.84149 -17046906.31749  21749925.2904   21749931.9384
  23486773.018   -14764387.89949 -10977822.70749  23486773.0754   23486782.2204
  24835773.852    21107133.43349  16432674.18649  24835774.3814   24835787.3534
  20688166.753    -5424985.49249  -4257871.08249  20688166.7404   20688173.6684
  22362506.884   -20892285.96649 -15937186.12049  22362507.1984   22362514.2684
  21381194.146   -21283179.74049 -16127532.65249  21381194.6274   21381200.5834
 98  1 30 19 10 30.0000000  0  9 19  3 10 31  2 16 18 27 13
  20665828.856   -11763667.76149  -9168137.63849  20665828.9944   20665835.6914
  23809223.363    -5751266.55649  -4482035.23449  23809223.5484   23809232.2044
  23999138.839   -11115730.55749  -8192265.92149  23999138.2024   23999147.5004
  21741743.458   -21921980.41749 -17080409.38249  21741743.1744   21741750.2604
  23468799.422   -14858839.69549 -11051421.51249  23468799.1984   23468808.3304
  24850814.064    21186169.61649  16494260.57149  24850814.5194   24850826.8554
  20693922.393    -5394739.57949  -4234302.91349  20693922.3964   20693929.4934
  22346498.884   -20976408.54049 -16002736.16949  22346498.9714   22346506.1044
  21364164.251   -21372672.45149 -16197267.23649  21364164.9464   21364170.5954
 98  1 30 19 11  0.0000000  0  9 19  3 10 31  2 16 18 27 13
  20659748.258   -11795621.48349  -9193036.66749  20659748.4244   20659755.3494
  23815487.385    -5718349.34849  -4456385.54949  23815487.2314   23815496.6064
  23990862.107   -11159225.20749  -8226157.90249  23990861.3224   23990870.7144
  21733684.755   -21964329.29149 -17113408.51449  21733684.6634   21733691.6384
  23450878.809   -14953013.13249 -11124803.41449  23450878.4154   23450887.6564
  24865846.790    21265166.62749  16555816.43349  24865846.7434   24865859.4414
  20699783.356    -5363940.08249  -4210303.38249  20699783.4584   20699790.3404
  22330516.404   -21060397.27749 -16068181.93849  22330516.4654   22330524.1304
  21347210.715   -21461763.93849 -16266689.18049  21347211.3234   21347216.9934
 98  1 30 19 11 30.0000000  0  8 19  3 10 31  2 18 27 13
  20653709.825   -11827353.69449  -9217763.08849  20653710.0644   20653716.8284
  23821848.617    -5684921.22849  -4430337.74949  23821849.1274   23821858.0364
  23982691.963   -11202159.34349  -8259613.11649  23982691.5584   23982701.5464
  21725745.137   -22006052.40549 -17145920.06749  21725744.8404   21725752.3204
  23433011.343   -15046907.22749 -11197967.63649  23433010.9644   23433019.3354
  20705746.040    -5332606.19649  -4185887.42749  20705746.3904   20705753.3104
  22314554.683   -21144276.63149 -16133542.46849  22314554.7354   22314562.3464
  21330330.705   -21550469.14149 -16335810.11849  21330331.5694   21330337.0564
 98  1 30 19 12  0.0000000  0  8 19  3 10 31  2 18 27 13
  20647713.511   -11858864.71449  -9242317.14649  20647713.4954   20647720.4614
  23828306.128    -5650986.84149  -4403895.45049  23828306.2674   23828315.3184
  23974626.691   -11244542.72349  -8292639.19049  23974626.3624   23974636.0724
  21717925.417   -22047145.48449 -17177940.66549  21717925.1734   21717932.3964
  23415196.957   -15140522.41749 -11270914.53449  23415196.2774   23415205.2804
  20711808.407    -5300748.59349  -4161063.36549  20711808.6734   20711815.5924
  22298612.289   -21228054.56949 -16198823.97749  22298612.1324   22298619.6634
  21313525.319   -21638782.09349 -16404625.40349  21313525.9834   21313531.8624
 98  1 30 19 12 30.0000000  0  8 19  3 10 31  2 18 27 13
  20641753.304   -11890186.07049  -9266723.41349  20641753.6214   20641760.3454
  23834850.674    -5616595.58649  -4377097.15749  23834850.7664   23834859.3754
  23966658.015   -11286418.78849  -8325269.93649  23966657.7584   23966667.3734
  21710218.354   -22087646.63749 -17209499.99849  21710218.3494   21710225.6534
  23397423.381   -15233923.24349 -11343694.39149  23397423.1414   23397432.1294
  20717958.745    -5268428.72349  -4135879.10449  20717959.0654   20717965.8404
  22282680.078   -21311778.86549 -16264063.68749  22282679.9624   22282687.9164
  21296789.034   -21726732.07149 -16473157.85049  21296789.5594   21296795.5174
 98  1 30 19 13  0.0000000  0  8 19  3 10 31  2 18 27 13
  20635821.006   -11921360.55349  -9291015.23249  20635821.0884   20635828.2104
  23841475.518    -5581782.25749  -4349969.96449  23841476.3594   23841484.9664
  23958777.796   -11327830.00549  -8357538.47349  23958777.6234   23958786.4954
  21702617.015   -22127592.13349 -17240626.39249  21702617.1114   21702624.4004
  23379684.622   -15327141.04149 -11416331.63649  23379683.9724   23379692.6924
  20724188.669    -5235690.36849  -4110368.74349  20724188.9934   20724195.5794
  22266748.659   -21395498.82049 -16329300.02349  22266748.8414   22266755.8954
  21280114.548   -21814357.12949 -16541437.10449  21280115.1634   21280120.9324
 98  1 30 19 13 30.0000000  0  8 19  3 10 31  2 18 27 13
  20629914.690   -11952398.34449  -9315200.54549  20629914.7874   20629921.8464
  23848178.720    -5546557.09349  -4322521.87849  23848179.0894   23848187.3144
  23950983.491   -11368789.42049  -8389454.95849  23950982.8104   23950992.8484
  21695118.836   -22166995.45549 -17271330.32649  21695118.6424   21695125.6954
  23361976.989   -15420195.49749 -11488841.60049  23361977.0604   23361985.5394
  20730493.941    -5202556.24749  -4084549.98849  20730494.2874   20730501.0814
  22250815.678   -21479227.12049 -16394542.86349  22250815.8614   22250823.3704
  21263497.089   -21901682.40249 -16609482.76149  21263497.7574   21263503.1744
 98  1 30 19 14  0.0000000  0  8 19  3 10 31  2 18 27 13
  20624036.643   -11983287.67449  -9339270.16749  20624036.7564   20624043.6734
  23854962.004    -5510911.06049  -4294745.82349  23854962.0434   23854971.4954
  23943277.838   -11409283.27349  -8421008.67249  23943277.2444   23943286.3164
  21687726.981   -22205839.66049 -17301598.57649  21687726.8994   21687734.1534
  23344298.940   -15513094.64949 -11561230.53949  23344299.1384   23344307.5254
  20736875.503    -5169021.46249  -4058419.03349  20736875.7904   20736882.3274
  22234883.540   -21562951.22949 -16459782.43349  22234883.6004   22234891.0334
  21246937.734   -21988702.52149 -16677290.63649  21246938.2114   21246944.0044
 98  1 30 19 14 30.0000000  0  8 19  3 10 31  2 18 27 13
  20618187.932   -12014023.03049  -9363219.81149  20618188.1054   20618195.2004
  23861824.976    -5474846.30849  -4266643.49849  23861825.8824   23861833.8654
  23935664.024   -11449294.62549  -8452186.41249  23935663.8954   23935672.3554
  21680441.313   -22244126.09449 -17331432.15249  21680440.9534   21680447.9804
  23326650.728   -15605836.86849 -11633497.20249  23326650.7764   23326659.4804
  20743337.067    -5135066.08349  -4031960.35949  20743337.2464   20743344.0374
  22218953.958   -21646661.98849 -16525011.60449  22218953.9184   22218961.4194
  21230434.005   -22075430.10449 -16744870.55449  21230434.6964   21230440.4524
 98  1 30 19 15  0.0000000  0  8 19  3 10 31  2 18 27 13
  20612365.415   -12044620.71149  -9387062.17849  20612365.7764   20612372.6064
  23868765.931    -5438371.65649  -4238221.76849  23868765.5974   23868774.9364
  23928141.422   -11488826.31749  -8482990.39849  23928141.6224   23928150.5854
  21673258.831   -22281870.37349 -17360843.32249  21673258.5254   21673265.7684
  23309034.735   -15698409.90449 -11705632.02649  23309034.6114   23309043.0724
  20749881.272    -5100676.16849  -4005163.09849  20749881.4464   20749888.2374
  22203027.039   -21730358.39649 -16590229.59449  22203026.8144   22203034.4164
  21213981.893   -22161886.52349 -16812239.17949  21213982.3864   21213987.9624
 98  1 30 19 15 30.0000000  0  8 19  3 10 31  2 18 27 13
  20606572.435   -12075063.33649  -9410783.71949  20606572.5574   20606579.5034
  23875783.135    -5401496.33149  -4209487.81949  23875783.0794   23875792.5414
  23920710.797   -11527874.49349  -8513417.61349  23920710.3974   23920719.9254
  21666177.981   -22319080.58949 -17389838.31349  21666177.8174   21666185.0644
  23291451.287   -15790811.64949 -11777633.38549  23291450.8844   23291459.4964
  20756509.528    -5065844.83549  -3978021.87949  20756509.8274   20756516.5924
  22187106.609   -21814020.59849 -16655420.93849  22187106.4564   22187114.1104
  21197584.947   -22248053.06749 -16879381.92249  21197585.5374   21197591.0844
 98  1 30 19 16  0.0000000  0  8 19  3 10 31  2 18 27 13
  20600810.239   -12105343.74549  -9434378.85649  20600810.2464   20600817.1804
  23882876.635    -5364220.16949  -4180441.54349  23882877.1884   23882885.7934
  23913372.871   -11566435.71349  -8543465.38449  23913372.4974   23913381.8834
  21659198.319   -22355759.13249 -17418419.00049  21659198.2594   21659205.4394
  23273905.513   -15883015.16149 -11849480.26349  23273905.1714   23273913.8894
  20763223.576    -5030562.72149  -3950529.40549  20763223.6494   20763230.3594
  22171193.844   -21897642.56049 -16720580.91949  22171193.6824   22171201.9114
  21181247.635   -22333905.99449 -16946280.29149  21181248.2574   21181253.6954
 98  1 30 19 16 30.0000000  0  8 19  3 10 31  2 18 27 13
  20595075.525   -12135479.86049  -9457861.55649  20595075.7264   20595082.8254
  23890043.264    -5326559.70249  -4151095.80249  23890043.6974   23890051.7324
  23906122.683   -11604536.34449  -8573154.26149  23906123.0054   23906132.2034
  21652315.628   -22391927.96649 -17446602.50749  21652315.1444   21652322.8034
  23256398.059   -15975017.34849 -11921170.27849  23256397.8614   23256407.0864
  20770020.466    -4994844.93349  -3922697.44249  20770020.5444   20770027.4654
  22155282.998   -21981254.75449 -16785733.28449  22155283.1274   22155290.3454
  21164969.805   -22419446.49749 -17012935.21449  21164970.2464   21164976.1414
 98  1 30 19 17  0.0000000  0  8 19  3 10 31  2 18 27 13
  20589371.281   -12165455.92149  -9481219.53849  20589371.4254   20589378.2834
  23897284.879    -5288504.99149  -4121442.87449  23897284.8844   23897294.2614
  23898958.207   -11642186.37349  -8602492.01449  23898956.8264   23898967.1514
  21645531.091   -22427581.24249 -17474384.28449  21645530.7214   21645538.2394
  23238931.354   -16066805.06849 -11992693.15949  23238931.1134   23238940.1364
  20776899.202    -4958697.12249  -3894530.38749  20776899.3724   20776906.4844
  22139374.005   -22064857.28749 -16850878.12149  22139374.0104   22139381.5024
  21148755.952   -22504650.79949 -17079328.16149  21148756.6004   21148762.2284
 98  1 30 19 17 30.0000000  0  8 19  3 10 31  2 18 27 13
  20583695.958   -12195280.02049  -9504459.10249  20583696.0544   20583703.2264
  23904597.529    -5250077.00149  -4091499.05649  23904597.3924   23904606.0714
  23891876.185   -11679403.00849  -8631492.06949  23891875.8194   23891886.0504
  21638844.588   -22462718.99249 -17501764.34949  21638844.2704   21638851.4884
  23221500.590   -16158404.06249 -12064068.98549  23221499.7104   23221509.6164
  20783854.016    -4922149.63049  -3866051.89649  20783854.2874   20783861.2024
  22123463.657   -22148466.91349 -16916028.47549  22123463.6054   22123471.0704
  21132603.848   -22589530.59649 -17145468.24949  21132604.5024   21132610.1074
 98  1 30 19 18  0.0000000  0  8 19  3 10 31  2 18 27 13
  20578051.482   -12224941.97649  -9527572.33049  20578051.6214   20578058.5384
  23911986.759    -5211246.49349  -4061241.61749  23911987.3964   23911995.0214
  23884881.049   -11716162.88749  -8660136.19449  23884879.7424   23884889.9924
  21632264.221   -22497299.23449 -17528709.99549  21632264.0354   21632271.0504
  23204107.501   -16249805.01749 -12135290.49449  23204107.4314   23204116.1844
  20790888.680    -4885182.55449  -3837246.44849  20790888.9174   20790895.9504
  22107554.769   -22232068.52249 -16981172.59249  22107554.5484   22107562.2144
  21116515.379   -22674076.08949 -17211347.84549  21116515.9904   21116521.5934
 98  1 30 19 18 30.0000000  0  8 19  3 10 31  2 18 27 13
  20572436.896   -12254446.93949  -9550563.22149  20572437.0184   20572444.0894
  23919452.177    -5172016.04749  -4030672.51949  23919451.2384   23919461.1684
  23877972.208   -11752469.04949  -8688426.78649  23877971.6544   23877981.3734
  21625789.668   -22531323.18149 -17555222.16149  21625789.4184   21625796.4674
  23186746.938   -16341035.29549 -12206378.99949  23186746.1504   23186755.8724
  20798001.723    -4847803.51049  -3808119.99049  20798001.9434   20798008.9414
  22091648.020   -22315658.87049 -17046307.92449  22091647.8004   22091655.3324
  21100488.058   -22758300.34549 -17276977.12649  21100488.7564   21100494.2244
 98  1 30 19 19  0.0000000  0  8 19  3 10 31  2 18 27 13
  20566853.451   -12283788.11049  -9573426.48549  20566853.7134   20566860.7034
  23926993.010    -5132388.98049  -3999794.35549  23926994.3764   23927001.7754
  23871151.417   -11788312.72749  -8716357.01849  23871151.2264   23871160.5054
  21619422.902   -22564780.63749 -17581292.93149  21619422.9954   21619430.0864
  23169416.645   -16432106.45449 -12277343.51349  23169416.0774   23169425.6164
  20805193.515    -4810010.71449  -3778671.13549  20805193.7544   20805200.9624
  22075750.351   -22399201.84349 -17111406.33649  22075750.3464   22075757.8254
  21084523.771   -22842193.22949 -17342348.19849  21084524.4174   21084529.8414
 98  1 30 19 19 30.0000000  0  8 19  3 10 31  2 18 27 13
  20561301.792   -12312962.44149  -9596159.74849  20561301.8874   20561308.8164
  23934608.456    -5092369.37949  -3968610.34249  23934608.8354   23934617.6974
  23864422.542   -11823673.51549  -8743910.94749  23864422.1444   23864431.9504
  21613166.137   -22597660.41849 -17606913.56549  21613165.9974   21613173.3184
  23152117.043   -16523016.33349 -12348182.36049  23152116.4934   23152125.9164
  20812463.575    -4771806.54149  -3748901.72549  20812463.6614   20812470.8424
  22059863.331   -22482689.10249 -17176461.33949  22059863.4744   22059870.6014
  21068622.649   -22925754.16349 -17407460.61149  21068623.3364   21068628.9874
 98  1 30 19 20  0.0000000  0  8 19  3 10 31  2 18 27 13
  20555785.464   -12341950.75249  -9618748.05349  20555785.6164   20555792.6204
  23942304.835    -5051924.75349  -3937095.12549  23942305.6774   23942314.1804
  23857789.901   -11858528.64749  -8771070.87149  23857790.1664   23857799.3314
  21607023.329   -22629941.04149 -17632067.31249  21607023.2794   21607030.0464
  23134854.730   -16613730.67849 -12418868.83749  23134854.8034   23134862.8764
  20819816.215    -4733168.32949  -3718794.09249  20819816.4014   20819823.5434
  22043991.467   -22566096.31749 -17241453.95949  22043991.3824   22043998.9424
  21052790.251   -23008954.01949 -17472291.66049  21052790.7864   21052796.5804
 98  1 30 19 20 30.0000000  0  8 19  3 10 31  2 18 27 13
  20550307.443   -12370738.08649  -9641179.75749  20550307.5984   20550314.6494
  23950082.709    -5011052.03649  -3905246.33949  23950083.4924   23950093.0554
  23851253.524   -11892877.94349  -8797836.63549  23851252.9814   23851262.9244
  21600993.869   -22661626.23249 -17656757.07349  21600993.7334   21601000.5364
  23117633.301   -16704230.30649 -12489388.00149  23117633.1964   23117641.6634
  20827252.930    -4694088.43049  -3688342.26649  20827253.0834   20827260.1214
  22028135.398   -22649420.14749 -17306381.61349  22028135.2994   22028142.8864
  21037031.385   -23091767.46849 -17536821.61749  21037032.1664   21037037.6284
 98  1 30 19 21  0.0000000  0  8 19  3 10 31  2 18 27 13
  20544864.558   -12399340.78849  -9663467.59649  20544864.7764   20544871.6574
  23957937.980    -4969772.57949  -3873080.58549  23957938.2944   23957946.9414
  23844810.901   -11926734.26049  -8824218.25349  23844810.3214   23844820.0414
  21595076.741   -22692721.07449 -17680986.82849  21595076.9694   21595083.8794
  23100451.068   -16794524.04749 -12559746.74549  23100451.4604   23100459.5414
  20834771.709    -4654577.21049  -3657554.34249  20834771.9684   20834779.0414
  22012290.263   -22732686.61749 -17371264.57649  22012290.3984   22012297.7904
  21021344.159   -23174204.38049 -17601058.16849  21021344.6564   21021350.4524
 98  1 30 19 21 30.0000000  0  8 19  3 10 31  2 18 27 13
  20539456.514   -12427760.28749  -9685612.67849  20539456.6404   20539463.6464
  23965874.764    -4928064.83649  -3840581.13049  23965875.4504   23965885.4144
  23838464.584   -11960084.52149  -8850205.54549  23838463.7454   23838474.7194
  21589274.663   -22723211.19549 -17704745.36849  21589274.1864   21589281.5334
  23083312.296   -16884589.11349 -12629927.28549  23083312.5054   23083320.3664
  20842375.688    -4614618.11249  -3626417.41749  20842375.8734   20842383.2484
  21996452.550   -22815914.38049 -17436117.37449  21996452.2134   21996459.9534
  21005728.168   -23256266.92249 -17665003.00349  21005728.7974   21005734.3824
 98  1 30 19 22  0.0000000  0  8 19  3 10 31  2 18 27 13
  20534078.589   -12456021.64049  -9707634.53049  20534078.7234   20534085.7844
  23973890.548    -4885941.90149  -3807758.13849  23973891.3304   23973899.9704
  23832210.657   -11992949.46649  -8875814.65549  23832210.2844   23832220.0954
  21583582.298   -22753124.63749 -17728054.55449  21583582.1474   21583589.6124
  23066213.704   -16974442.69049 -12699943.03549  23066213.6334   23066222.1184
  20850063.653    -4574217.80249  -3594936.71149  20850063.7814   20850071.0274
  21980618.570   -22899122.57549 -17500954.92249  21980618.7044   21980626.3804
  20990182.127   -23337962.00049 -17728661.50349  20990182.6994   20990188.4064
 98  1 30 19 22 30.0000000  0  8 19  3 10 31  2 18 27 13
  20528727.293   -12484143.01849  -9729547.31649  20528727.6384   20528734.5614
  23981979.677    -4843433.71549  -3774634.97049  23981980.2114   23981989.2694
  23826046.657   -12025342.20949  -8901055.81049  23826045.8324   23826055.0984
  21577995.093   -22782485.62049 -17750933.25549  21577994.9454   21578002.4274
  23049150.056   -17064112.88949 -12769815.90449  23049150.1954   23049158.9364
  20857831.964    -4533395.25549  -3563127.00849  20857832.1234   20857839.2204
  21964782.858   -22982339.87649 -17565799.56749  21964782.8874   21964790.4654
  20974703.133   -23419304.72249 -17792045.44349  20974703.6354   20974709.4054
 98  1 30 19 23  0.0000000  0  8 19  3 10 31  2 18 27 13
  20523402.791   -12512123.67049  -9751350.44749  20523402.8144   20523409.9734
  23990141.288    -4800544.57449  -3741214.93249  23990141.5814   23990149.5804
  23819975.580   -12057246.21349  -8925916.12549  23819974.8854   23819984.3474
  21572516.076   -22811278.12249 -17773368.98449  21572515.6984   21572522.8514
  23032123.160   -17153589.75149 -12839538.10649  23032122.5234   23032131.8564
  20865678.902    -4492159.56949  -3530995.39649  20865679.1914   20865686.4654
  21948948.038   -23065552.49849 -17630640.57049  21948947.7604   21948955.5734
  20959288.344   -23500310.00849 -17855166.44249  20959288.7864   20959294.5654
 98  1 30 19 23 30.0000000  0  8 19  3 10 31  2 18 27 13
  20518106.704   -12539954.63849  -9773036.94049  20518106.8004   20518113.9244
  23998376.511    -4757268.57749  -3707493.47449  23998376.9094   23998386.2384
  23813999.599   -12088650.47049  -8950387.01349  23813999.5414   23814009.3814
  21567145.308   -22839501.59149 -17795361.30649  21567145.1564   21567152.3314
  23015135.095   -17242862.29749 -12909101.12249  23015134.4844   23015143.1614
  20873603.174    -4450517.55749  -3498547.16649  20873603.2454   20873610.6114
  21933118.140   -23148738.90949 -17695461.15349  21933117.9984   21933126.0764
  20943939.054   -23580971.00149 -17918019.16149  20943939.5924   20943944.9724
 98  1 30 19 24  0.0000000  0  8 19  3 10 31  2 18 27 13
  20512842.442   -12567618.65449  -9794593.33949  20512842.6554   20512849.6134
  24006681.646    -4713625.14549  -3673485.68849  24006681.4004   24006691.1724
  23808115.888   -12119570.01049  -8974480.21349  23808116.3244   23808125.2304
  21561882.778   -22867156.37449 -17816910.50949  21561882.7794   21561889.1884
  22998185.129   -17331934.66349 -12978508.14449  22998184.6084   22998193.4454
  20881603.406    -4408476.34549  -3465787.85749  20881603.6274   20881610.7734
  21917296.418   -23231882.49049 -17760248.36349  21917296.6314   21917303.8644
  20928656.824   -23661279.76649 -17980597.41849  20928657.3724   20928662.9574
 98  1 30 19 24 30.0000000  0  8 19  3 10 31  2 18 27 13
  20507611.465   -12595107.77149  -9816013.45349  20507611.6064   20507618.6064
  24015053.039    -4669633.39049  -3639206.47549  24015053.7644   24015063.5124
  23802321.570   -12150019.77049  -8998207.34849  23802321.2464   23802330.1274
  21556732.387   -22894221.89149 -17838000.54149  21556732.2554   21556739.5544
  22981272.600   -17420810.14549 -13047761.74549  22981272.3564   22981281.3014
  20889678.349    -4366042.53849  -3432722.62949  20889678.6564   20889685.9764
  21901481.861   -23314988.69749 -17825006.44449  21901481.8304   21901489.2834
  20913439.107   -23741249.52149 -18042911.51249  20913439.8174   20913445.4114
 98  1 30 19 25  0.0000000  0  8 19  3 10 31  2 18 27 13
  20502405.979   -12622462.74249  -9837329.03849  20502406.2204   20502413.2704
  24023481.435    -4625342.33249  -3604694.04749  24023482.0394   24023491.5934
  23796606.852   -12180050.65549  -9021608.07149  23796606.2424   23796617.0554
  21551684.174   -22920750.67749 -17858672.35249  21551683.9904   21551690.9304
  22964388.708   -17509535.36349 -13116898.26149  22964387.9254   22964397.6374
  20897818.741    -4323264.83649  -3399389.41949  20897819.0114   20897826.2334
  21885668.620   -23398087.74949 -17889758.95349  21885668.5574   21885676.1134
  20898277.751   -23820922.90749 -18104994.66649  20898278.3234   20898283.9894
 98  1 30 19 25 30.0000000  0  8 19  3 10 31  2 18 27 13
  20497219.764   -12649716.62849  -9858565.85349  20497220.0204   20497226.8224
  24031960.277    -4580786.04149  -3569974.92949  24031960.1704   24031970.2964
  23790961.059   -12209719.24649  -9044726.49049  23790960.9404   23790970.3174
  21546729.198   -22946789.30449 -17878962.21849  21546729.0504   21546736.1154
  22947526.235   -17598147.98449 -13185947.03849  22947525.7394   22947534.6594
  20906019.847    -4280168.02549  -3365807.54349  20906020.1934   20906027.3564
  21869847.330   -23481229.27649 -17954544.55849  21869847.1904   21869854.6974
  20883169.658   -23900316.49249 -18166859.79949  20883170.2524   20883175.7874
 98  1 30 19 26  0.0000000  0  8 19  3 10 31  2 18 27 13
  20492055.285   -12676856.28949  -9879713.66149  20492055.4654   20492062.4074
  24040492.191    -4535950.64449  -3535038.31149  24040492.1444   24040501.8354
  23785384.541   -12239024.30449  -9067561.63649  23785383.7214   23785394.1374
  21541869.015   -22972329.82849 -17898863.94649  21541869.1144   21541876.1634
  22930687.971   -17686633.55149 -13254896.81949  22930687.8054   22930696.3774
  20914285.251    -4236733.18549  -3331962.24049  20914285.4414   20914292.7404
  21854017.849   -23564413.61549 -18019363.52149  21854017.6684   21854025.4804
  20868117.867   -23979414.22549 -18228494.39349  20868118.4224   20868124.1254
 98  1 30 19 26 30.0000000  0  8 19  3 10 31  2 18 27 13
  20486916.000   -12703863.36549  -9900758.15449  20486916.1534   20486922.9784
  24049086.855    -4490785.95749  -3499845.10349  24049087.2834   24049096.1674
  23779885.787   -12267920.93149  -9090078.52449  23779885.1984   23779894.9284
  21537106.826   -22997355.25349 -17918364.30549  21537106.5514   21537114.0214
  22913878.420   -17774968.04949 -13323728.87649  22913878.2024   22913887.1094
  20922618.629    -4192941.41149  -3297838.83149  20922618.8624   20922625.9484
  21838185.679   -23647612.31049 -18084193.66849  21838185.6594   21838193.2324
  20853130.210   -24058174.87649 -18289866.33049  20853130.7784   20853136.3414
 98  1 30 19 27  0.0000000  0  8 19  3 10 31  2 18 27 13
  20481809.654   -12730697.52349  -9921667.90849  20481809.9384   20481816.9014
  24057757.505    -4445222.04749  -3464340.81649  24057757.8814   24057766.8104
  23774476.545   -12296346.90349  -9112228.66249  23774475.7134   23774486.2614
  21532448.674   -23021833.90749 -17937438.61349  21532448.4664   21532456.0474
  22897109.573   -17863088.75049 -13392394.34849  22897109.5814   22897118.5124
  20931029.046    -4148744.27449  -3263399.55949  20931029.0904   20931036.4914
  21822364.858   -23730751.37449 -18148977.35049  21822364.8914   21822372.1274
  20838219.532   -24136530.94049 -18350923.00349  20838220.0604   20838225.6634
 98  1 30 19 27 30.0000000  0  8 19  3 10 31  2 18 27 13
  20476731.319   -12757384.40449  -9942462.89949  20476731.5744   20476738.6684
  24066499.420    -4399283.09549  -3428544.27549  24066500.0694   24066509.9444
  23769152.149   -12324326.53849  -9134031.01649  23769151.3994   23769161.8484
  21527891.536   -23045782.01249 -17956099.50149  21527891.4714   21527898.5814
  22880377.046   -17951018.84549 -13460911.29549  22880376.6054   22880385.7764
  20939512.544    -4104163.35349  -3228661.22649  20939512.6474   20939519.8744
  21806548.814   -23813865.14649 -18213741.32149  21806548.6514   21806556.4404
  20823380.596   -24214509.93849 -18411685.86149  20823381.1434   20823386.9424
 98  1 30 19 27 59.9990000  0  8 19  3 10 31  2 18 27 13
  20471675.171   -12783954.83949  -9963167.16149  20471675.4244   20471682.4484
  24075306.459    -4353002.18549  -3392481.28549  24075306.2324   24075316.5534
  23763909.101   -12351878.59049  -9155500.18649  23763908.7484   23763919.0074
  21523430.424   -23069225.28749 -17974367.02249  21523430.0794   21523437.2374
  22863674.225   -18038793.05649 -13529306.77049  22863674.1784   22863683.3394
  20948061.758    -4059237.10449  -3193653.81149  20948062.1584   20948069.2864
  21790735.636   -23896963.76949 -18278493.48749  21790735.6184   21790743.4104
  20808607.753   -24292141.80949 -18472178.23149  20808608.3004   20808613.8544
 98  1 30 19 28 29.9990000  0  8 19  3 10 31  2 18 27 13
  20466643.010   -12810399.28749  -9983773.25149  20466643.0784   20466650.0984
  24084177.269    -4306386.07249  -3356157.08949  24084177.6614   24084186.7434
  23758750.229   -12378988.97549  -9176625.20149  23758749.6204   23758760.4724
  21519066.862   -23092156.01449 -17992235.16949  21519066.9004   21519074.3564
  22847000.953   -18126412.03849 -13597581.29649  22847000.8604   22847009.6844
  20956678.453    -4013956.42349  -3158370.21249  20956678.7034   20956685.9824
  21774927.195   -23980037.78749 -18343226.47549  21774927.3514   21774934.6144
  20793900.849   -24369427.04749 -18532400.49649  20793901.4124   20793906.9944
 98  1 30 19 28 59.9990000  0  8 19  3 10 31  2 18 27 13
  20461639.751   -12836691.62549 -10004260.79749  20461639.8414   20461647.0084
  24093110.103    -4259443.91249  -3319578.81749  24093110.4874   24093120.2214
  23753675.860   -12405655.43949  -9197404.28949  23753675.2434   23753684.3594
  21514806.833   -23114542.96849 -18009679.58949  21514806.4594   21514813.9384
  22830360.904   -18213856.35849 -13665719.70849  22830360.5204   22830369.2834
  20965368.785    -3968288.71749  -3122785.02949  20965368.9674   20965376.3014
  21759126.002   -24063073.72749 -18407929.79349  21759125.8914   21759133.6324
  20779260.114   -24446364.56549 -18592351.81349  20779260.8374   20779266.2184
 98  1 30 19 29 29.9990000  0  8 19  3 10 31  2 18 27 13
  20456670.907   -12862803.12849 -10024607.44249  20456670.9914   20456677.9304
  24102107.166    -4212164.24349  -3282737.56449  24102107.0484   24102117.0254
  23748688.902   -12431862.37049  -9217825.31049  23748688.6754   23748698.4664
  21510657.825   -23136346.32449 -18026669.24949  21510658.0214   21510665.1594
  22813752.870   -18301132.31949 -13733726.93449  22813752.4384   22813761.3284
  20974138.699    -3922202.63049  -3086873.85149  20974138.9164   20974146.4014
  21743331.433   -24146074.69749 -18472605.86149  21743331.4754   21743339.1904
  20764687.408   -24522944.67949 -18652024.63249  20764687.9564   20764693.7854
 98  1 30 19 29 59.9990000  0  8 19  3 10 31  2 18 27 13
  20451741.142   -12888709.19149 -10044794.00149  20451741.2644   20451748.4394
  24111172.052    -4164527.93149  -3245618.38949  24111171.9934   24111181.5364
  23743793.587   -12457587.95049  -9237871.25449  23743793.0944   23743803.0674
  21506625.384   -23157537.19949 -18043181.66649  21506625.3934   21506632.6924
  22797180.891   -18388218.54349 -13801586.31149  22797180.6004   22797188.9654
  20982992.506    -3875675.88949  -3050619.30549  20982992.7164   20982999.9584
  21727548.301   -24229015.74549 -18537235.23849  21727548.2114   21727555.8714
  20750189.146   -24599133.48849 -18711392.53549  20750189.6634   20750195.3154
 98  1 30 19 30 29.9990000  0  8 19  3 10 31  2 18 27 13
  20446854.475   -12914388.76949 -10064804.08349  20446854.4974   20446861.5724
  24120309.202    -4116511.95349  -3208203.37649  24120309.4274   24120318.9724
  23738995.184   -12482803.72549  -9257519.94649  23738994.6464   23739005.0184
  21502714.453   -23178089.37649 -18059196.40349  21502714.4214   21502721.8114
  22780648.601   -18475096.04249 -13869283.03949  22780648.3054   22780657.3544
  20991935.020    -3828682.80749  -3014001.37749  20991935.4064   20991942.7584
  21711779.995   -24311878.65049 -18601803.72249  21711779.9084   21711787.2644
  20735771.246   -24674900.09249 -18770431.45149  20735771.9244   20735777.4704
 98  1 30 19 30 59.9990000  0  8 19  3 10 31  2 18 27 13
  20441992.138   -12939940.59649 -10084714.61849  20441992.2534   20441999.2414
  24129504.361    -4068191.34249  -3170550.98249  24129503.7924   24129514.8424
  23734275.879   -12507603.92149  -9276844.82749  23734275.8834   23734285.3294
  21498908.932   -23198087.79849 -18074779.65549  21498909.2154   21498916.1134
  22764137.534   -18561861.96149 -13936892.83249  22764137.1464   22764146.0884
  21000947.141    -3781324.02549  -2977098.50249  21000947.4674   21000954.6754
  21696007.885   -24394761.48149 -18666387.73749  21696008.0364   21696015.7234
  20721418.610   -24750323.67649 -18829203.08549  20721419.2704   20721424.6214
 98  1 30 19 31 29.9990000  0  8 19  3 10 31  2 18 27 13
  20437149.971   -12965386.34249 -10104542.48549  20437150.3054   20437157.1814
  24138756.572    -4019570.50749  -3132664.64949  24138755.6874   24138766.5314
  23729637.505   -12531978.56849  -9295838.11749  23729637.2544   23729646.6744
  21495206.014   -23217547.00849 -18089942.72649  21495206.1784   21495213.3194
  22747648.756   -18648510.81149 -14004411.38149  22747648.3814   22747657.3644
  21010022.210    -3733634.50549  -2939937.90249  21010022.5144   21010029.8344
  21680230.829   -24477670.54149 -18730992.18349  21680231.1584   21680238.2424
  20707132.488   -24825397.87249 -18887702.45749  20707133.0804   20707138.7454
 98  1 30 19 31 59.9990000  0  8 19  3 10 31  2 18 27 13
  20432332.365   -12990703.34149 -10124270.03149  20432332.6104   20432339.4814
  24148069.156    -3970632.62049  -3094531.26549  24148069.2204   24148079.6284
  23725085.272   -12555900.95449  -9314478.98749  23725084.7264   23725094.8164
  21491607.921   -23236455.46949 -18104676.64049  21491607.8894   21491615.0084
  22731192.453   -18734989.01749 -14071796.96649  22731191.9934   22731200.8434
  21019160.001    -3685615.11549  -2902520.25149  21019160.1584   21019167.5504
  21664456.575   -24560565.00949 -18795585.25749  21664456.6794   21664463.9484
  20692920.491   -24900082.66349 -18945898.39849  20692921.1194   20692926.6344
 98  1 30 19 32 29.9990000  0  8 19  3 10 31  2 18 27 13
  20427544.333   -13015864.64149 -10143876.25349  20427544.4154   20427551.4994
  24157449.384    -3921339.37949  -3056120.97349  24157448.7664   24157458.4904
  23720624.814   -12579341.42149  -9332744.33549  23720624.8934   23720633.3784
  21488118.757   -23254791.16349 -18118964.24949  21488119.0554   21488126.0134
  22714775.231   -18821262.07849 -14139022.69049  22714774.6694   22714783.9634
  21028364.752    -3637244.13749  -2864828.63349  21028364.8064   21028372.3424
  21648691.473   -24643411.28849 -18860140.78849  21648691.5534   21648698.7254
  20678787.086   -24974354.34149 -19003772.42749  20678787.7334   20678793.3154
 98  1 30 19 32 59.9990000  0  8 19  3 10 31  2 18 27 13
  20422792.392   -13040836.33249 -10163334.72649  20422792.4054   20422799.5544
  24166901.733    -3871666.81749  -3017415.11749  24166901.1924   24166911.1354
  23716260.573   -12602276.09549  -9350615.56049  23716260.1254   23716270.6014
  21484743.536   -23272528.33949 -18132785.46749  21484743.9614   21484750.9364
  22698406.177   -18907281.94449 -14206051.11249  22698406.1204   22698415.0044
  21037642.334    -3588490.46549  -2826838.80849  21037642.7234   21037649.9004
  21632939.910   -24726186.10249 -18924640.62849  21632939.5284   21632947.0104
  20664736.092   -25048192.99949 -19061309.04349  20664736.5514   20664742.1094
 98  1 30 19 33 29.9990000  0  8 19  3 10 31  2 18 27 13
  20418082.396   -13065587.51949 -10182621.37849  20418082.5164   20418089.6104
  24176428.006    -3821605.93149  -2978406.64649  24176427.4284   24176438.4964
  23711995.906   -12624686.89849  -9368078.58349  23711996.0874   23712005.6044
  21481484.604   -23289654.40249 -18146130.50149  21481484.5284   21481491.8944
  22682090.906   -18993019.52949 -14272859.58049  22682091.0254   22682098.9834
  21046998.405    -3539324.16949  -2788527.45849  21046998.6764   21047005.8834
  21617206.416   -24808865.97649 -18989066.49849  21617206.4794   21617213.4174
  20650769.288   -25121588.98849 -19118500.72249  20650769.8504   20650775.5444
 98  1 30 19 33 59.9990000  0  8 19  3 10 31  2 18 27 13
  20413416.613   -13090106.48549 -10201727.07749  20413416.7564   20413423.6714
  24186029.387    -3771150.55949  -2939090.79249  24186030.2004   24186038.1424
  23707826.892   -12646595.04249  -9385149.94049  23707826.9934   23707836.1854
  21478340.978   -23306174.32649 -18159003.21249  21478340.7544   21478348.1774
  22665826.129   -19078491.70449 -14339461.23149  22665825.9654   22665834.4524
  21056435.834    -3489730.36449  -2749882.99349  21056435.9034   21056443.3664
  21601490.763   -24891452.13149 -19053419.33249  21601490.9394   21601498.0734
  20636884.974   -25194551.53249 -19175354.65049  20636885.5314   20636891.3334
 98  1 30 19 34 29.9990000  0  8 19  3 10 31  2 18 27 13
  20408795.444   -13114390.79549 -10220649.93149  20408795.6354   20408802.7174
  24195707.624    -3720291.11649  -2899460.05949  24195708.6694   24195717.0804
  23703754.483   -12667996.20749  -9401826.23949  23703754.1034   23703763.5734
  21475313.338   -23322084.78649 -18171400.98349  21475313.1804   21475320.4274
  22649610.822   -19163703.74949 -14405860.18349  22649610.3414   22649618.8254
  21065957.882    -3439692.07149  -2710892.16649  21065958.0914   21065965.1724
  21585792.485   -24973947.38649 -19117701.33949  21585792.4574   21585800.0264
  20623082.199   -25267085.53049 -19231874.64449  20623082.7874   20623088.5114
 98  1 30 19 34 59.9990000  0  8 19  3 10 31  2 18 27 13
  20404220.009   -13138434.85649 -10239385.57749  20404220.3824   20404227.4104
  24205458.906    -3669048.04049  -2859530.39149  24205458.1904   24205467.9344
  23699777.680   -12688895.01249  -9418111.10549  23699777.4454   23699787.7174
  21472401.485   -23337386.74449 -18183324.60149  21472401.1764   21472409.1674
  22633446.662   -19248646.89949 -14472049.61049  22633446.5514   22633454.7284
  21075565.163    -3389205.77349  -2671552.24349  21075565.2704   21075572.6434
  21570111.586   -25056351.06349 -19181911.98649  21570111.7224   21570118.8924
  20609360.195   -25339194.93749 -19288063.78449  20609360.8064   20609366.3954
 98  1 30 19 35 29.9990000  0  8 19  3 10 31  2 18 27 13
  20399690.332   -13162238.79849 -10257934.12149  20399690.6084   20399697.6774
  24215281.086    -3617431.73949  -2819309.90249  24215281.3104   24215289.1874
  23695893.692   -12709305.73449  -9434015.61249  23695892.6754   23695903.0134
  21469604.858   -23352083.27349 -18194776.44649  21469604.8024   21469611.8664
  22617329.270   -19333344.08649 -14538047.37549  22617328.8394   22617337.5624
  21085253.505    -3338293.48949  -2631880.38749  21085253.8724   21085260.8324
  21554450.018   -25138653.16349 -19246043.47649  21554449.8154   21554457.4244
  20595719.879   -25410875.23649 -19343918.55649  20595720.4594   20595726.1114
 98  1 30 19 35 59.9990000  0  8 19  3 10 31  2 18 27 13
  20395202.912   -13185820.61349 -10276309.56649  20395203.0454   20395210.0624
  24225170.930    -3565460.41049  -2778812.76049  24225171.1634   24225180.1384
  23692099.762   -12729242.86849  -9449551.10949  23692098.6514   23692110.1844
  21466921.154   -23366186.26049 -18205765.78349  21466920.9704   21466928.1974
  22601255.560   -19417811.65549 -14603866.22549  22601255.1374   22601264.1414
  21095017.336    -3286984.47049  -2591899.39449  21095017.5434   21095025.0054
  21538807.274   -25220856.22149 -19310097.79349  21538807.0644   21538814.5104
  20582163.678   -25482113.56049 -19399428.92949  20582164.2944   20582169.8324
 98  1 30 19 36 29.9990000  0  8 19  3 10 31  2 18 27 13
  20390757.350   -13209182.12749 -10294513.35249  20390757.4524   20390764.6044
  24235125.144    -3513150.85949  -2738052.09749  24235125.5324   24235133.4754
  23688397.049   -12748700.71649  -9464713.13249  23688397.7434   23688407.0904
  21464351.611   -23379689.40749 -18216287.71049  21464351.4794   21464358.5704
  22585227.322   -19502040.36749 -14669498.95449  22585226.8834   22585236.1394
  21104854.880    -3235288.05049  -2551616.53249  21104855.0834   21104862.2194
  21523183.564   -25302959.38549 -19374074.27249  21523183.4704   21523190.7204
  20568694.032   -25552896.95349 -19454584.81349  20568694.5294   20568700.3074
 98  1 30 19 36 59.9990000  0  8 19  3 10 31  2 18 27 13
  20386354.913   -13232316.97749 -10312540.52149  20386355.1204   20386362.1884
  24245141.873    -3460512.78049  -2697035.40449  24245141.5684   24245150.9234
  23684784.405   -12767685.96549  -9479506.89349  23684783.8954   23684794.4804
  21461896.959   -23392588.67749 -18226339.07449  21461897.0484   21461904.1224
  22569244.295   -19586031.51849 -14734946.57149  22569243.9284   22569252.3824
  21114763.531    -3183217.65749  -2511042.26549  21114763.7034   21114771.1824
  21507578.023   -25384967.06349 -19437976.33449  21507578.0144   21507585.2214
  20555312.741   -25623216.08549 -19509378.93749  20555313.1434   20555319.0124
 98  1 30 19 37 29.9990000  0  8 19  3 10 31  2 18 27 13
  20381993.555   -13255236.11349 -10330399.60549  20381993.7694   20382000.8514
  24255222.396    -3407539.30349  -2655757.37049  24255222.6594   24255231.4784
  23681261.973   -12786196.92049  -9493931.08049  23681261.6644   23681271.6684
  21459556.112   -23404889.93249 -18235924.44649  21459555.9994   21459563.2294
  22553301.844   -19669809.60849 -14800228.16349  22553301.6844   22553310.3484
  21124739.672    -3130792.77149  -2470191.76349  21124739.8674   21124747.3994
  21491988.753   -25466889.00349 -19501811.58549  21491988.5064   21491996.3124
  20542022.715   -25693055.66649 -19563799.38049  20542023.1034   20542028.8624
 98  1 30 19 37 59.9990000  0  8 19  3 10 31  2 18 27 13
  20377670.693   -13277953.04949 -10348101.13149  20377670.8224   20377677.9124
  24265365.887    -3354234.88349  -2614221.44549  24265365.7174   24265376.4354
  23677831.063   -12804226.81049  -9507980.39849  23677830.6894   23677841.3544
  21457327.770   -23416600.07049 -18245049.19249  21457327.8214   21457335.1004
  22537400.546   -19753371.41349 -14865341.22849  22537400.1534   22537408.3294
  21134785.008    -3078004.29349  -2429057.93949  21134785.1034   21134792.7674
  21476412.810   -25548741.14349 -19565592.44649  21476412.7594   21476420.0064
  20528820.821   -25762432.01949 -19617858.87049  20528821.2334   20528826.9574
 98  1 30 19 38 29.9990000  0  8 19  3 10 31  2 18 27 13
  20373386.880   -13300464.85149 -10365642.81649  20373387.0584   20373394.3024
  24275574.364    -3300589.19549  -2572419.61349  24275574.5794   24275584.0014
  23674492.248   -12821772.51849  -9521652.43349  23674491.8404   23674502.5374
  21455213.260   -23427712.33249 -18253708.07449  21455212.8454   21455220.1114
  22521540.169   -19836718.01449 -14930286.59549  22521539.6634   22521548.6384
  21144901.606    -3024841.54749  -2387632.48649  21144901.9294   21144909.4544
  21460849.672   -25630525.89449 -19629320.80449  21460849.6634   21460856.9934
  20515703.018   -25831366.53449 -19671574.07149  20515703.6644   20515709.3614
 98  1 30 19 38 59.9990000  0  8 19  3 10 31  2 18 27 13
  20369143.083   -13322766.17149 -10383020.48149  20369143.2264   20369150.3594
  24285848.236    -3246599.94849  -2530350.06449  24285848.4074   24285857.5774
  23671246.442   -12838829.47749  -9534943.63049  23671245.8084   23671256.0674
  21453212.032   -23438228.93549 -18261902.80149  21453211.9104   21453218.7684
  22505719.917   -19919854.09349 -14995067.92949  22505719.7644   22505728.5044
  21155090.699    -2971297.52449  -2345909.93949  21155091.0654   21155098.4084
  21445299.523   -25712242.43749 -19692996.00449  21445299.4284   21445307.0414
  20502670.815   -25899851.16349 -19724938.70949  20502671.6264   20502676.8964
 98  1 30 19 39 29.9990000  0  8 19  3 10 31  2 18 27 13
  20364938.435   -13344861.79349 -10400237.86349  20364938.5464   20364945.7004
  24296188.591    -3192261.28949  -2488008.25249  24296188.7894   24296198.2764
  23668094.406   -12855393.71149  -9547850.88449  23668094.7794   23668104.3984
  21451324.572   -23448147.44449 -18269631.47549  21451324.4474   21451331.8034
  22489938.941   -20002783.52549 -15059688.23149  22489938.4204   22489946.9464
  21165355.153    -2917357.90449  -2303879.13249  21165355.4794   21165362.8314
  21429765.194   -25793875.77149 -19756606.36749  21429764.9624   21429772.6804
  20489723.489   -25967889.85649 -19777955.86549  20489724.0694   20489729.5024
 98  1 30 19 39 59.9990000  0  8 19  3 10 31  2 18 27 13
  20360776.655   -13366732.12149 -10417279.69549  20360776.7084   20360783.9274
  24306597.500    -3137562.17549  -2445385.55149  24306597.8524   24306607.3254
  23665036.813   -12871461.87049  -9560371.57049  23665036.5964   23665046.6514
  21449553.971   -23457451.83649 -18276881.63849  21449553.6634   21449560.5614
  22474202.386   -20085479.58249 -15124126.69049  22474202.0144   22474210.5514
  21175699.946    -2862995.96249  -2261519.24949  21175700.1184   21175707.8184
  21414250.419   -25875406.22049 -19820136.56649  21414250.3734   21414257.7614
  20476862.164   -26035476.54149 -19830620.80849  20476862.6734   20476868.3894
 98  1 30 19 40 29.9990000  0  8 19  3 10 31  2 18 27 13
  20356660.872   -13388360.79349 -10434133.21649  20356661.0374   20356668.2254
  24317075.139    -3082501.96749  -2402481.51649  24317075.8694   24317085.0804
  23662072.102   -12887042.09349  -9572512.06049  23662071.0194   23662081.8464
  21447900.511   -23466140.71849 -18283652.17049  21447900.3684   21447907.5984
  22458511.323   -20167936.52449 -15188378.82349  22458510.9664   22458519.4774
  21186124.794    -2808213.44149  -2218831.64249  21186124.9514   21186132.5594
  21398756.294   -25956828.14149 -19883582.19249  21398755.9894   21398763.5444
  20464091.253   -26102588.09349 -19882915.51649  20464091.9044   20464097.4984
 98  1 30 19 40 59.9990000  0  8 19  3 10 31  2 18 27 13
  20352592.973   -13409737.78649 -10450790.62549  20352593.2434   20352600.3144
  24327621.710    -3027079.64149  -2359295.29349  24327620.9784   24327631.0024
  23659200.647   -12902131.85449  -9584270.36849  23659200.3864   23659210.6504
  21446364.976   -23474209.93749 -18289939.85449  21446364.8014   21446372.0414
  22442867.287   -20250146.34349 -15252438.39849  22442867.1064   22442875.8744
  21196631.287    -2753001.67349  -2175809.55349  21196631.4474   21196639.1144
  21383283.939   -26038135.81049 -19946938.79349  21383283.9714   21383291.2884
  20451414.306   -26169205.93349 -19934825.51249  20451414.7904   20451420.5044
 98  1 30 19 41 29.9990000  0  8 19  3 10 31  2 18 27 13
  20348571.981   -13430868.28549 -10467255.95749  20348572.0074   20348579.1864
  24338238.269    -2971289.36349  -2315822.36149  24338237.6194   24338247.4274
  23656421.106   -12916738.29249  -9595652.04949  23656420.9814   23656430.5594
  21444947.285   -23481659.83449 -18295744.95149  21444946.5724   21444954.5054
  22427272.715   -20332096.05649 -15316295.29549  22427272.3224   22427281.0524
  21207219.167    -2697362.27649  -2132454.24549  21207219.2184   21207226.8914
  21367836.068   -26119314.92049 -20010195.21849  21367835.8454   21367843.3954
  20438829.775   -26235338.06849 -19986357.03549  20438830.2224   20438836.0304
 98  1 30 19 41 59.9990000  0  8 19  3 10 31  2 18 27 13
  20344596.997   -13451756.93449 -10483532.83449  20344597.0894   20344604.2664
  24348921.944    -2915146.34249  -2272074.57249  24348921.7424   24348931.9914
  23653732.255   -12930868.21549  -9606662.42949  23653731.8724   23653741.6014
  21443645.380   -23488501.19949 -18301075.86349  21443644.9634   21443652.2214
  22411728.727   -20413780.25449 -15379945.30049  22411728.0244   22411737.3184
  21217885.621    -2641309.78449  -2088777.04049  21217885.7434   21217893.6914
  21352410.804   -26200375.26549 -20073359.10649  21352410.5944   21352417.8364
  20426338.184   -26300981.76049 -20037507.95049  20426338.7104   20426344.4154
 98  1 30 19 42 29.9990000  0  8 19  3 10 31  2 18 27 13
  20340668.452   -13472401.71649 -10499619.68349  20340668.6684   20340675.9524
  24359675.059    -2858638.33749  -2228042.36549  24359674.3084   24359684.7364
  23651137.950   -12944501.55349  -9617285.85249  23651137.0794   23651148.1934
  21442463.588   -23494711.46949 -18305915.00849  21442463.5714   21442470.7064
  22396236.910   -20495190.35049 -15443381.71849  22396236.6084   22396245.4134
  21228632.170    -2584836.66949  -2044772.07949  21228632.5244   21228640.0324
  21337011.413   -26281299.50049 -20136416.93349  21337011.5144   21337018.7084
  20413943.611   -26366115.62449 -20088261.60049  20413943.9714   20413949.7714
 98  1 30 19 42 59.9990000  0  8 19  3 10 31  2 18 27 13
  20336799.003   -13492736.00249 -10515464.58149  20336799.2174   20336806.0894
  24370515.187    -2801672.70449  -2183653.61649  24370515.0444   24370524.3424
  23648655.918   -12957545.10249  -9627449.71249  23648655.3074   23648666.1634
  21441419.675   -23500197.10549 -18310189.50349  21441419.3344   21441426.7434
  22380814.094   -20576237.66349 -15506535.44649  22380813.6654   22380822.5184
  21239471.227    -2527877.27649  -2000388.19449  21239471.4304   21239479.0884
  21321655.189   -26361996.88149 -20199297.99449  21321655.0054   21321662.5424
  20401661.640   -26430657.84749 -20138554.22549  20401662.1034   20401667.8524
 98  1 30 19 43 29.9990000  0  8 19  3 10 31  2 18 27 13
  20332986.462   -13512771.06249 -10531076.31449  20332986.5764   20332993.7174
  24381439.454    -2744264.52449  -2138919.93049  24381439.7804   24381449.3454
  23646286.230   -12969998.32149  -9637153.57049  23646286.1074   23646295.7454
  21440511.320   -23504970.47749 -18313908.99749  21440511.2034   21440518.5784
  22365459.966   -20656924.12649 -15569408.00049  22365459.4654   22365468.2704
  21250398.485    -2470454.53449  -1955643.25549  21250398.5654   21250406.2614
  21306341.146   -26442472.51249 -20262006.26349  21306341.3074   21306348.6974
  20389490.571   -26494617.30449 -20188392.74749  20389491.1594   20389496.6984
 98  1 30 19 43 59.9990000  0  8 19  3 10 31  2 18 27 13
  20329224.966   -13532537.85149 -10546479.00449  20329225.1704   20329232.2434
  24392438.529    -2686464.31649  -2093880.77249  24392438.6864   24392448.6684
  23644023.705   -12981887.94449  -9646418.24349  23644023.1534   23644033.8314
  21439730.045   -23509075.97749 -18317108.09049  21439729.8244   21439736.8494
  22350165.089   -20737299.06149 -15632037.81649  22350164.8034   22350173.1954
  21261405.665    -2412611.68449  -1910570.95149  21261406.0154   21261413.7414
  21291059.087   -26522780.32049 -20324583.75149  21291059.0274   21291066.4054
  20377423.033   -26558032.55849 -20237807.21649  20377423.6134   20377429.1764
 98  1 30 19 44 29.9990000  0  8 19  3 10 31  2 18 27 13
  20325509.839   -13552061.08049 -10561691.91749  20325510.0824   20325516.9414
  24403505.848    -2628305.28049  -2048562.04849  24403505.6754   24403516.3824
  23641863.053   -12993242.55049  -9655266.02049  23641862.1594   23641873.9064
  21439071.006   -23512539.40749 -18319806.85149  21439070.5804   21439078.1324
  22334920.887   -20817407.67449 -15694460.08849  22334920.6564   22334929.1364
  21272486.192    -2354383.41449  -1865198.32649  21272486.2844   21272494.1184
  21275801.552   -26602959.22749 -20387060.81249  21275801.5994   21275808.7354
  20365450.932   -26620946.48449 -20286831.04049  20365451.4314   20365456.8674
 98  1 30 19 44 59.9990000  0  8 19  3 10 31  2 18 27 13
  20321842.702   -13571331.99349 -10576708.21649  20321842.9314   20321849.8934
  24414634.119    -2569825.62649  -2002993.44849  24414634.3904   24414643.8124
  23639800.435   -13004081.67249  -9663712.13249  23639800.6374   23639809.5144
  21438529.183   -23515386.68249 -18322025.49249  21438528.8554   21438535.8264
  22319725.517   -20897259.82149 -15756682.51649  22319725.3464   22319733.7814
  21283638.363    -2295778.74549  -1819532.41549  21283638.4744   21283646.3394
  21260564.349   -26683031.32049 -20449454.63149  21260564.3184   21260571.4864
  20353568.394   -26683389.65949 -20335488.04149  20353568.8874   20353574.3604
 98  1 30 19 45 29.9990000  0  8 19  3 10 31  2 18 27 13
  20318228.615   -13590324.14749 -10591507.30149  20318228.7534   20318235.7464
  24425822.266    -2511031.37149  -1957179.68649  24425822.7054   24425831.8514
  23637834.912   -13014410.97149  -9671760.97049  23637834.5384   23637845.6214
  21438105.900   -23517610.86549 -18323758.62049  21438105.6084   21438112.8604
  22304578.800   -20976856.23449 -15818705.67749  22304578.3924   22304587.2284
  21294868.059    -2236766.43449  -1773548.86349  21294868.3694   21294875.9504
  21245348.696   -26762990.17749 -20511760.21149  21245348.6214   21245355.7384
  20341776.650   -26745355.72349 -20383773.26949  20341777.2414   20341782.5984
 98  1 30 19 45 59.9990000  0  8 19  3 10 31  2 18 27 13
  20314666.445   -13609043.45749 -10606093.77849  20314666.6194   20314673.6384
  24437068.466    -2451931.93549  -1911128.15349  24437067.9504   24437077.3674
  23635960.199   -13024262.87149  -9679437.80649  23635959.0664   23635970.0254
  21437801.447   -23519210.82549 -18325005.35049  21437801.1694   21437808.1864
  22289476.631   -21056218.86149 -15880546.66549  22289476.2874   22289485.0214
  21306173.736    -2177355.08449  -1727254.36749  21306174.1134   21306181.8404
  21230153.306   -26842842.40549 -20573982.70449  21230153.0714   21230160.5964
  20330074.806   -26806849.20449 -20431690.24749  20330075.2924   20330080.7914
 98  1 30 19 46 29.9990000  0  8 19  3 10 31  2 18 27 13
  20311157.759   -13627481.71149 -10620461.24649  20311157.7884   20311165.0624
  24448376.931    -2392505.55949  -1864821.84349  24448376.7814   24448385.7384
  23634172.737   -13033656.11749  -9686757.23649  23634172.0034   23634182.8474
  21437619.831   -23520165.06749 -18325748.94749  21437619.3754   21437626.6954
  22274421.623   -21135333.57349 -15942194.47149  22274421.0994   22274429.8734
  21317554.821    -2117547.30649  -1680650.97449  21317554.8944   21317562.8034
  21214982.107   -26922567.35049 -20636106.01449  21214982.0744   21214989.2744
  20318465.802   -26867854.91749 -20479227.15349  20318466.3984   20318472.0184
 98  1 30 19 46 59.9990000  0  8 19  3 10 31  2 18 27 13
  20307706.506   -13645618.12449 -10634593.51549  20307706.4574   20307713.6304
  24459751.839    -2332730.08949  -1818243.51649  24459751.5064   24459761.1954
  23632473.324   -13042586.49049  -9693715.99949  23632473.1094   23632483.2334
  21437561.803   -23520470.04549 -18325986.61949  21437561.9354   21437568.9424
  22259418.527   -21214175.30249 -16003629.55649  22259418.1064   22259426.6034
  21329012.717    -2057335.78749  -1633732.97149  21329012.8124   21329020.5774
  21199841.938   -27002129.38549 -20698102.37849  21199841.8354   21199849.1974
  20306957.280   -26928332.44049 -20526352.47649  20306957.7864   20306963.3294
 98  1 30 19 47 29.9990000  0  7 19 10 31  2 18 27 13
  20304308.676   -13663473.72849 -10648506.97749  20304308.8494   20304316.0724
  23630861.795   -13051055.52149  -9700315.27149  23630861.3354   23630872.3364
  21437625.308   -23520136.43349 -18325726.68449  21437625.1014   21437632.4484
  22244464.978   -21292756.69249 -16064861.77949  22244464.2784   22244473.3454
  21340542.355    -1996747.26149  -1586521.19549  21340542.6804   21340550.5004
  21184734.014   -27081522.05649 -20759966.76349  21184734.0044   21184741.1374
  20295552.555   -26988264.61449 -20573052.85949  20295553.1414   20295558.6314
 98  1 30 19 47 59.9990000  0  7 19 10 31  2 18 27 13
  20300950.584   -13681120.82549 -10662257.96349  20300950.6344   20300957.6174
  23629326.897   -13059121.79249  -9706600.70049  23629326.6384   23629335.9024
  21437795.567   -23519241.75049 -18325029.55449  21437795.3234   21437802.8844
  22229547.750   -21371147.06949 -16125945.16549  22229547.2954   22229555.9064
  21352127.790    -1935865.72049  -1539081.10449  21352128.0394   21352136.0284
  21169646.067   -27160809.78949 -20821749.37749  21169646.1094   21169653.0354
  20284239.770   -27047713.66349 -20619376.78249  20284240.1734   20284245.7744
 98  1 30 19 48 29.9990000  0  7 19 10 31  2 18 27 13
  20297631.746   -13698561.42849 -10675848.03749  20297631.8124   20297639.0314
  23627873.338   -13066760.38449  -9712552.88549  23627871.8954   23627883.1824
  21438071.264   -23517792.97049 -18323900.65349  21438070.9824   21438078.5504
  22214668.413   -21449338.48149 -16186873.52149  22214668.1754   22214676.7114
  21363770.641    -1874682.26449  -1491405.74449  21363770.6594   21363778.8324
  21154577.398   -27239995.93149 -20883452.82949  21154577.1314   21154584.6174
  20273020.776   -27106669.71749 -20665316.55149  20273021.1594   20273026.9614
 98  1 30 19 48 59.9990000  0  7 19 10 31  2 18 27 13
  20294366.236   -13715721.77149 -10689219.73849  20294366.2934   20294373.4254
  23626522.222   -13073860.50349  -9718085.47949  23626521.3604   23626532.3614
  21438467.994   -23515708.23649 -18322276.21349  21438467.9084   21438475.0134
  22199841.142   -21527256.10249 -16247588.53549  22199840.8604   22199849.3564
  21375489.797    -1813097.82549  -1443417.93449  21375489.9064   21375497.7944
  21139540.820   -27319013.57849 -20945024.99449  21139540.6514   21139548.1544
  20261912.954   -27165041.62149 -20710801.15049  20261913.4294   20261918.9704
 98  1 30 19 49 29.9990000  0  7 19 10 31  2 18 27 13
  20291155.273   -13732595.54449 -10702368.14149  20291155.4254   20291162.4764
  23625278.623   -13080395.46749  -9723177.68449  23625277.4314   23625288.7014
  21438991.609   -23512956.61549 -18320132.12649  21438991.5254   21438998.7284
  22185068.158   -21604888.65949 -16308081.41849  22185067.5974   22185076.0064
  21387290.144    -1751086.87949  -1395097.78049  21387290.2774   21387298.3084
  21124536.229   -27397863.06049 -21006466.11149  21124536.1584   21124543.3124
  20250916.194   -27222829.99249 -20755831.04549  20250916.7724   20250922.1524
 98  1 30 19 49 59.9990000  0  7 19 10 31  2 18 27 13
  20287999.556   -13749178.94849 -10715290.27749  20287999.6304   20288006.8944
  23624142.569   -13086365.56749  -9727829.73249  23624141.4874   23624153.1834
  21439644.307   -23509526.75049 -18317459.53049  21439644.1734   21439651.5384
  22170350.777   -21682228.86549 -16368346.48849  22170350.3664   22170359.3814
  21399174.089    -1688636.51149  -1346435.21549  21399174.2604   21399182.1864
  21109562.768   -27476548.92649 -21067779.73449  21109562.6944   21109570.0934
  20240031.605   -27280028.75349 -20800401.50349  20240032.1474   20240037.8474
 98  1 30 19 50 29.9990000  0  7 19 10 31  2 18 27 13
  20284890.679   -13765516.19849 -10728020.59949  20284890.8424   20284897.8804
  23623105.416   -13091815.97849  -9732076.83449  23623104.6554   23623115.1054
  21440418.387   -23505458.99549 -18314289.87049  21440418.1474   21440425.7514
  22155681.633   -21759315.51749 -16428413.97749  22155681.4314   22155689.6824
  21411133.578    -1625789.31649  -1297463.43349  21411133.7914   21411141.5764
  21094610.434   -27555123.80349 -21129006.87249  21094610.3354   21094617.4004
  20229251.273   -27336679.71449 -20844545.10749  20229251.9104   20229257.5254
 98  1 30 19 50 59.9990000  0  7 19 10 31  2 18 27 13
  20281830.119   -13781599.65649 -10740553.15849  20281830.0514   20281837.2374
  23622164.110   -13096762.76849  -9735931.51149  23622163.6664   23622175.0094
  21441312.165   -23500762.27749 -18310630.10649  21441311.9794   21441319.5604
  22141061.468   -21836144.75849 -16488280.88449  22141061.1524   22141069.5314
  21423165.486    -1562561.49549  -1248195.06249  21423165.7214   21423173.5424
  21079680.068   -27633583.36549 -21190144.15549  21079679.9214   21079687.1974
  20218573.110   -27392793.79149 -20888270.35949  20218573.7534   20218579.1354
 98  1 30 19 51 29.9990000  0  7 19 10 31  2 18 27 13
  20278816.709   -13797435.16149 -10752892.51349  20278816.7474   20278823.8824
  23621311.249   -13101244.83649  -9739424.06449  23621310.6374   23621321.5964
  21442320.905   -23495461.30249 -18306499.48449  21442320.6904   21442328.0274
  22126488.937   -21912723.86349 -16547952.87149  22126488.7214   22126497.0534
  21435263.714    -1498985.22149  -1198655.17949  21435264.2954   21435271.7714
  21064772.880   -27711921.07349 -21251186.49349  21064772.7714   21064779.9964
  20207993.129   -27448392.02349 -20931593.65549  20207993.6874   20207999.1944
 98  1 30 19 51 59.9990000  0  7 19 10 31  2 18 27 13
  20275846.080   -13813046.00849 -10765056.80849  20275846.2544   20275853.3014
  23620537.563   -13105310.58149  -9742592.21749  23620537.1124   23620547.4564
  21443436.001   -23489601.43149 -18301933.36749  21443435.8884   21443443.2114
  22111958.896   -21989079.73949 -16607450.91049  22111958.7104   22111967.0724
  21447424.670    -1435079.47749  -1148858.57349  21447425.2564   21447433.0464
  21049884.381   -27790160.47049 -21312152.22249  21049884.3884   21049891.4984
  20197505.796   -27503503.33949 -20974537.54049  20197506.4074   20197511.8914
 98  1 30 19 52 29.9990000  0  7 19 10 31  2 18 27 13
  20272916.294   -13828442.14349 -10777053.79449  20272916.4724   20272923.3784
  23619837.788   -13108988.21049  -9745457.93749  23619837.1874   23619848.4504
  21444652.010   -23483211.53649 -18296954.22049  21444651.7574   21444659.2624
  22097468.438   -22065227.50049 -16666786.76449  22097468.0014   22097476.3594
  21459644.122    -1370866.19149  -1098822.30949  21459644.4374   21459652.1034
  21035011.329   -27868318.63849 -21373054.65349  21035011.0854   21035018.5634
  20187102.910   -27558170.92249 -21017135.65549  20187103.4894   20187108.9894
 98  1 30 19 52 59.9990000  0  7 19 10 31  2 18 27 13
  20270025.528   -13843633.17349 -10788890.96449  20270025.4834   20270032.4424
  23619208.421   -13112295.72449  -9748035.26849  23619208.2524   23619218.0654
  21445967.242   -23476300.20149 -18291568.75649  21445967.2464   21445974.4164
  22083017.156   -22141169.13949 -16725962.01349  22083016.6264   22083025.2364
  21471919.847    -1306357.23449  -1048555.65249  21471920.1894   21471927.7774
  21020155.072   -27946388.70849 -21433888.44449  21020154.8104   21020162.1834
  20176781.988   -27612407.75149 -21059398.12349  20176782.5344   20176788.0204
 98  1 30 19 53 29.9990000  0  7 19 10 31  2 18 27 13
  20267181.844   -13858576.58449 -10800535.18149  20267181.9224   20267188.9934
  23618659.214   -13115182.03649  -9750284.37549  23618659.3924   23618668.8484
  21447390.664   -23468820.18049 -18285740.16849  21447390.3314   21447397.6064
  22068613.465   -22216860.60949 -16784942.31949  22068613.1874   22068621.4514
  21484262.273    -1241497.41549   -998015.60049  21484262.6444   21484270.4014
  21005326.739   -28024312.06549 -21494607.90549  21005326.5054   21005333.7534
  20166552.660   -27666163.26449 -21101285.53849  20166553.2864   20166558.7734
 98  1 30 19 53 59.9990000  0  7 19 10 31  2 18 27 13
  20264392.374   -13873235.51849 -10811957.73249  20264392.5634   20264399.5134
  23618200.445   -13117593.05949  -9752163.14949  23618200.4104   23618210.7484
  21448929.404   -23460733.88349 -18279439.14249  21448929.2854   21448936.1994
  22054264.208   -22292266.15149 -16843699.81749  22054263.8914   22054272.4294
  21496678.504    -1176249.91849   -947173.47149  21496678.4594   21496686.3704
  20990532.579   -28102055.69849 -21555187.32649  20990532.3174   20990539.5134
  20156421.831   -27719401.10649 -21142769.57249  20156422.4594   20156428.0154
 98  1 30 19 54 29.9990000  0  7 19 10 31  2 18 27 13
  20261653.711   -13887627.36449 -10823172.16449  20261653.7494   20261660.9844
  23617833.662   -13119520.57649  -9753665.15049  23617832.8954   23617843.7044
  21450583.798   -23452039.94049 -18272664.62249  21450584.0204   21450591.0234
  22039967.071   -22367397.97749 -16902244.03549  22039966.5794   22039975.2574
  21509158.989    -1110664.50849   -896068.03949  21509159.1494   21509167.0224
  20975772.036   -28179622.69049 -21615629.10849  20975771.9754   20975779.1524
  20146388.494   -27772126.78749 -21183854.52349  20146389.0954   20146394.7334
 98  1 30 19 54 59.9990000  0  7 19 10 31  2 18 27 13
  20258965.023   -13901756.54449 -10834181.91749  20258965.3004   20258972.3174
  23617560.403   -13120956.42749  -9754784.05349  23617559.8744   23617571.0544
  21452355.390   -23442730.15649 -18265410.22249  21452355.2834   21452362.2574
  22025720.690   -22442262.95249 -16960580.31749  22025720.4114   22025728.8384
  21521702.562    -1044747.74949   -844704.41449  21521702.6754   21521710.8564
  20961049.062   -28256992.40949 -21675917.16749  20961048.9584   20961056.1124
  20136457.398   -27824314.96849 -21224520.63649  20136458.1404   20136463.5744
 98  1 30 19 55 29.9990000  0  7 19 10 31  2 18 27 13
  20256313.833   -13915688.73549 -10845038.16449  20256313.9064   20256321.0064
  23617365.541   -13121980.58549  -9755582.14349  23617365.3084   23617375.2684
  21454229.849   -23432879.70149 -18257734.51249  21454229.3764   21454236.8324
  22011508.894   -22516946.43149 -17018775.16749  22011508.4204   22011516.7814
  21534295.097     -978573.76849   -793140.35549  21534295.2484   21534303.3624
  20946347.227   -28334250.88949 -21736118.54149  20946347.3454   20946354.3014
  20126616.071   -27876031.58449 -21264819.29349  20126616.6734   20126622.1494
 98  1 30 19 55 59.9990000  0  7 19 10 31  2 18 27 13
  20253689.821   -13929477.90749 -10855782.97849  20253689.8824   20253696.8844
  23617236.532   -13122659.00649  -9756110.82849  23617236.3084   23617246.0884
  21456198.293   -23422535.27349 -18249673.90549  21456198.1434   21456205.7454
  21997320.807   -22591505.16349 -17076872.81949  21997320.7124   21997328.9454
  21546925.978     -912198.21149   -741419.22349  21546926.2234   21546934.4634
  20931651.868   -28411475.56949 -21796293.58449  20931651.7594   20931659.1044
  20116854.756   -27927327.56949 -21304790.18649  20116855.4314   20116860.8794
 98  1 30 19 56 29.9990000  0  7 19 10 31  2 18 27 13
  20251099.712   -13943089.00049 -10866389.02749  20251100.0054   20251106.9464
  23617178.353   -13122965.49949  -9756349.70149  23617177.1884   23617188.7574
  21458268.662   -23411655.41649 -18241196.07549  21458268.4204   21458275.7094
  21983164.065   -22665899.33549 -17134842.24149  21983163.7924   21983171.9794
  21559604.421     -845572.75749   -689503.36549  21559604.6264   21559612.9614
  20916969.990   -28488629.20549 -21856413.26949  20916969.9034   20916977.0424
  20107182.466   -27978155.80749 -21344396.59749  20107182.9874   20107188.6364
 98  1 30 19 56 59.9990000  0  7 19 10 31  2 18 27 13
  20248551.603   -13956479.39349 -10876823.10549  20248551.5594   20248558.8024
  23617196.841   -13122868.33849  -9756274.04349  23617196.5854   23617207.0024
  21460446.177   -23400212.48849 -18232279.48849  21460445.8134   21460452.9934
  21969047.138   -22740084.12449 -17192648.50349  21969046.6254   21969054.7464
  21572343.821     -778627.09149   -637337.98749  21572344.1574   21572352.5714
  20902307.100   -28565682.83749 -21916455.03449  20902306.8744   20902314.2304
  20097608.892   -28028465.29049 -21383598.78049  20097609.4444   20097614.7844
 98  1 30 19 57 29.9990000  0  7 19 10 31  2 18 27 13
  20246042.902   -13969662.61549 -10887095.75049  20246043.0164   20246050.0774
  23617289.520   -13122381.11449  -9755894.44149  23617289.0114   23617299.4424
  21462727.578   -23388223.59649 -18222937.47649  21462727.2334   21462734.4404
  21954966.960   -22814075.63149 -17250304.16549  21954966.5734   21954974.9294
  21585143.354     -711365.55949   -584926.47849  21585143.5564   21585151.9784
  20887654.760   -28642681.30249 -21976453.80949  20887654.8474   20887661.7954
  20088128.670   -28078284.18449 -21422418.68549  20088129.2874   20088134.7724
 98  1 30 19 57 59.9990000  0  7 19 10 31  2 18 27 13
  20243560.077   -13982710.07749 -10897262.60049  20243560.2554   20243567.3184
  23617448.936   -13121543.42049  -9755241.73649  23617448.7404   23617458.8794
  21465103.279   -23375739.13349 -18213209.30249  21465103.0584   21465110.6494
  21940914.761   -22887920.24249 -17307845.37649  21940914.3414   21940922.8134
  21597991.781     -643846.90949   -532314.62549  21597992.4814   21598000.2264
  20873006.103   -28719660.46849 -22036437.54849  20873006.1194   20873013.2174
  20078732.015   -28127663.90949 -21460896.38149  20078732.6234   20078738.1734
 98  1 30 19 58 29.9990000  0  7 19 10 31  2 18 27 13
  20241100.192   -13995636.73249 -10907335.30749  20241100.2784   20241107.2344
  23617673.582   -13120362.93249  -9754321.91449  23617672.9854   23617683.7684
  21467567.256   -23362790.91549 -18203119.75549  21467567.1724   21467574.0974
  21926886.162   -22961640.68549 -17365289.84149  21926885.4934   21926894.1314
  21610882.166     -576107.76449   -479530.95549  21610882.5074   21610890.5944
  20858359.055   -28796631.19249 -22096414.70649  20858359.1884   20858365.7334
  20069416.475   -28176617.33249 -21499041.88849  20069417.0824   20069422.4784
 98  1 30 19 58 59.9990000  0  7 19 10 31  2 18 27 13
  20238685.900   -14008323.96749 -10917221.46749  20238685.8994   20238693.0294
  23617983.017   -13118736.94449  -9753054.96649  23617982.2514   23617992.9934
  21470138.805   -23349277.25149 -18192589.61549  21470138.3134   21470145.8304
  21912901.333   -23035131.29549 -17422555.22249  21912901.1344   21912909.0974
  21623832.840     -508051.83649   -426500.44049  21623832.9424   21623841.1114
  20843734.042   -28873486.06949 -22156301.59449  20843733.9334   20843740.8694
  20060202.494   -28225037.03449 -21536771.51049  20060203.0804   20060208.5304
 98  1 30 19 59 29.9990000  0  7 19 10 31  2 18 27 13
  20236315.169   -14020782.40949 -10926929.35249  20236315.2904   20236322.4284
  23618372.032   -13116693.40949  -9751462.63849  23618371.9814   23618383.6584
  21472814.879   -23335214.33149 -18181631.48349  21472814.5904   21472821.9464
  21898955.986   -23108414.30449 -17479658.83549  21898955.5094   21898963.4754
  21636837.658     -439711.39249   -373248.22649  21636838.0594   21636846.2414
  20829130.160   -28950229.85949 -22216101.92049  20829129.9034   20829136.9064
  20051085.028   -28272949.57149 -21574105.93849  20051085.6424   20051091.0824
 98  1 30 19 59 59.9990000  0  7 19 10 31  2 18 27 13
  20233992.116   -14032990.19449 -10936441.91649  20233992.1694   20233999.1914
  23618840.108   -13114234.00049  -9749546.25349  23618839.8974   23618850.1994
  21475595.629   -23320601.58949 -18170244.91949  21475595.6454   21475602.9434
  21885052.754   -23181476.17949 -17536590.12849  21885052.3644   21885060.5304
  21649895.418     -371092.73749   -319779.21549  21649895.5794   21649903.7194
  20814553.656   -29026829.66249 -22275790.04349  20814553.6044   20814560.7874
  20042068.180   -28320333.36949 -21611028.35849  20042068.7254   20042074.0554
 98  1 30 20  0 29.9990000  0  7 19 10 31  2 18 27 13
  20231708.396   -14044990.96749 -10945793.16149  20231708.4104   20231715.6014
  23619370.352   -13111447.36349  -9747374.90449  23619369.1814   23619379.9364
  21478467.002   -23305512.39649 -18158487.08949  21478466.7574   21478473.6744
  21871176.981   -23254393.92349 -17593409.11049  21871176.5004   21871184.9024
  21662993.215     -302263.59449   -266146.19949  21662993.6324   21663001.4754
  20799989.855   -29103362.96649 -22335426.34849  20799989.8674   20799996.7734
  20033136.549   -28367269.24249 -21647601.74749  20033136.9484   20033142.6004
 98  1 30 20  0 59.9980000  0  7 19 10 31  2 18 27 13
  20229461.322   -14056799.39649 -10954994.52549  20229461.6154   20229468.6334
  23619958.839   -13108354.90949  -9744965.24249  23619958.3334   23619969.0024
  21481428.576   -23289949.27549 -18146359.96849  21481428.3474   21481436.0114
  21857326.636   -23327177.73649 -17650123.72549  21857326.3584   21857334.2204
  21676130.992     -233224.35849   -212349.47049  21676131.8264   21676139.6454
  20785438.890   -29179828.73149 -22395010.01649  20785438.7804   20785445.8664
  20024285.695   -28413780.74949 -21683844.46349  20024286.3554   20024291.7974
 98  1 30 20  1 29.9980000  0  8  7 19 10 31  2 18 27 13
  24143763.567    -4634499.44649  -3279008.86949  24143762.4914   24143776.7964
  20227249.537   -14068422.62149 -10964051.58049  20227249.6264   20227256.5204
  23620605.525   -13104956.48149  -9742317.14849  23620605.2854   23620616.4494
  21484481.981   -23273903.55749 -18133856.80249  21484482.0634   21484488.9564
  21843499.632   -23399838.76749 -17706742.65549  21843499.0004   21843507.3264
  21689307.759     -163980.52249   -158393.30849  21689308.2444   21689316.0484
  20770900.632   -29256227.61749 -22454541.57649  20770900.5254   20770907.4174
  20015515.529   -28459868.48649 -21719756.97049  20015516.1664   20015521.4604
 98  1 30 20  1 59.9980000  0  8  7 19 10 31  2 18 27 13
  24118634.299    -4766554.06749  -3381908.34249  24118633.1084   24118646.5044
  20225083.539   -14079805.09649 -10972921.03349  20225083.6564   20225090.8354
  23621323.231   -13101185.22049  -9739378.53649  23621322.6294   23621333.2454
  21487640.884   -23257303.12149 -18120921.39649  21487640.3764   21487647.7054
  21829708.559   -23472310.66349 -17763214.20749  21829708.1584   21829716.2274
  21702534.669      -94472.85349   -104231.55749  21702534.9684   21702543.0934
  20756387.076   -29332496.90949 -22513972.14649  20756386.9124   20756394.0254
  20006839.142   -28505463.10549 -21755285.22349  20006839.6034   20006845.0614
 98  1 30 20  2 29.9980000  0  8  7 19 10 31  2 18 27 13
  24093503.827    -4898615.09649  -3484812.77849  24093502.8554   24093515.5374
  20222970.952   -14090906.89949 -10981571.78149  20222971.0184   20222977.9524
  23622125.481   -13096969.61249  -9736093.66049  23622125.0834   23622135.6614
  21490916.419   -23240089.78049 -18107508.40549  21490916.0584   21490923.2254
  21815965.426   -23544531.15949 -17819489.86149  21815965.1624   21815973.3444
  21715823.539      -24639.64149    -49816.13049  21715823.8684   21715831.9294
  20741907.683   -29408586.44349 -22573262.64649  20741907.5364   20741914.4204
  19998267.119   -28550509.35949 -21790386.18449  19998267.5774   19998273.1024
 98  1 30 20  2 59.9980000  0  8  7 19 10 31  2 18 27 13
  24068386.225    -5030608.51049  -3587664.53749  24068385.2844   24068398.9004
  20220916.967   -14101700.70349 -10989982.53249  20220916.8114   20220924.0014
  23623023.898   -13092248.40249  -9732414.81449  23623022.7824   23623032.7854
  21494316.255   -23222223.53049 -18093586.64849  21494315.8554   21494323.5414
  21802281.069   -23616442.93649 -17875524.95749  21802280.6254   21802288.8384
  21729182.847       45563.92949      4887.87349  21729182.9804   21729191.1314
  20727471.502   -29484448.79349 -22632376.11149  20727471.3004   20727478.3684
  19989812.113   -28594940.62249 -21825007.93549  19989812.5014   19989818.0554
 98  1 30 20  3 29.9980000  0  8  7 19 10 31  2 18 27 13
  24043265.030    -5162620.74049  -3690531.01949  24043264.2054   24043277.7584
  20218905.566   -14112270.45749 -10998218.68849  20218905.5634   20218912.4204
  23624000.486   -13087116.33249  -9728415.80649  23624000.0454   23624009.6434
  21497819.491   -23203813.87449 -18079241.46849  21497819.2294   21497826.8084
  21788640.574   -23688124.17849 -17931380.41149  21788640.2184   21788648.2304
  21742595.394      116046.73649     59809.49349  21742595.3644   21742603.7424
  20713060.812   -29560177.19449 -22691385.21749  20713060.6664   20713067.5384
  19981460.992   -28638826.09349 -21859204.39149  19981461.4524   19981466.8904
 98  1 30 20  3 59.9980000  0  8  7 19 10 31  2 18 27 13
  24018145.907    -5294622.58149  -3793389.40449  24018145.6144   24018157.6754
  20216942.789   -14122584.87649 -11006255.88749  20216942.7924   20216949.9104
  23625060.094   -13081547.77049  -9724076.69549  23625059.9014   23625069.8854
  21501427.238   -23184854.55049 -18064467.98149  21501426.8724   21501434.3744
  21775049.147   -23759547.54049 -17987034.90249  21775048.6184   21775057.1744
  21756066.771      186839.07849    114972.29349  21756067.0184   21756075.3844
  20698678.997   -29635753.89449 -22750276.11649  20698678.8734   20698685.8494
  19973217.186   -28682147.46649 -21892961.27849  19973217.7894   19973223.1344
 98  1 30 20  4 29.9980000  0  8  7 19 10 31  2 18 27 13
  23993048.513    -5426509.67149  -3896158.39049  23993047.7094   23993060.2504
  20215046.929   -14132547.53649 -11014018.99949  20215046.8744   20215054.0624
  23626219.268   -13075456.16449  -9719330.00049  23626219.5594   23626228.8074
  21505152.965   -23165275.72749 -18049211.78449  21505152.6634   21505160.1954
  21761523.914   -23830622.79649 -18042418.15249  21761523.3314   21761531.8384
  21769612.960      258024.58749    170441.44549  21769613.4404   21769621.5934
  20684341.919   -29711095.60249 -22808983.90749  20684341.7784   20684348.7754
  19965097.024   -28724819.24549 -21926212.00049  19965097.4914   19965103.1614
 98  1 30 20  4 59.9980000  0  8  7 19 10 31  2 18 27 13
  23967952.284    -5558390.50449  -3998922.48049  23967951.4524   23967964.2104
  20213198.311   -14142262.11149 -11021588.79549  20213198.4144   20213205.3914
  23627452.137   -13068977.62649  -9714281.81449  23627451.2864   23627462.0234
  21508974.914   -23145191.37549 -18033561.66849  21508974.7474   21508982.1964
  21748042.481   -23901467.93749 -18097622.08249  21748041.9944   21748050.3464
  21783211.390      329484.60849    226124.50849  21783211.6364   21783219.8324
  20670028.553   -29786312.84849 -22867594.70949  20670028.4874   20670035.4884
  19957078.456   -28766957.04749 -21959046.62849  19957078.9724   19957084.2944
 98  1 30 20  5 29.9980000  0  8  7 19 10 31  2 18 27 13
  23942871.522    -5690190.38949  -4101623.51049  23942870.6364   23942883.6004
  20211415.756   -14151629.60049 -11028888.13449  20211415.8484   20211422.9554
  23628772.949   -13062037.59649  -9708874.02649  23628772.6814   23628783.5534
  21512912.833   -23124497.65249 -18017436.70949  21512912.6704   21512919.9674
  21734620.237   -23972002.15549 -18152583.74349  21734619.6864   21734627.8154
  21796876.838      401296.87549    282082.04749  21796876.9264   21796885.5484
  20655757.079   -29861309.84849 -22926033.89849  20655756.8974   20655763.8154
  19949176.549   -28808481.92249 -21991403.65749  19949177.1324   19949182.4344
 98  1 30 20  5 59.9980000  0  8  7 19 10 31  2 18 27 13
  23917789.722    -5821996.03149  -4204329.04349  23917789.3694   23917801.0574
  20209681.673   -14160742.24549 -11035988.89649  20209681.7884   20209688.9424
  23630165.804   -13054718.48549  -9703170.84049  23630165.1574   23630174.9264
  21516955.416   -23103253.84249 -18000883.11149  21516955.7914   21516962.8364
  21721239.034   -24042320.54949 -18207377.24049  21721238.7194   21721246.7444
  21810589.304      473356.08749    338232.01849  21810589.3434   21810597.9254
  20641512.247   -29936166.81749 -22984363.97949  20641512.1384   20641519.0474
  19941372.049   -28849494.86749 -22023361.77549  19941372.6354   19941378.0054
 98  1 30 20  6 29.9980000  0  8  7 19 10 31  2 18 27 13
  23892705.714    -5953812.94049  -4307043.36049  23892704.8054   23892716.4194
  20207996.044   -14169600.24349 -11042891.22849  20207996.1454   20208003.1434
  23631632.375   -13047011.05549  -9697165.07649  23631632.2514   23631643.2894
  21521106.995   -23081437.30149 -17983883.24549  21521106.5384   21521113.6844
  21707900.929   -24112412.50349 -18261994.28649  21707900.5034   21707908.5574
  21824350.012      545668.97549    394579.65949  21824350.1774   21824358.4334
  20627297.607   -30010865.02949 -23042570.35049  20627297.4194   20627304.4804
  19933669.412   -28889972.40549 -22054902.69449  19933670.0374   19933675.2774
 98  1 30 20  6 59.9980000  0  8  7 19 10 31  2 18 27 13
  23867604.307    -6085720.46449  -4409828.24249  23867603.0624   23867615.2074
  20206347.424   -14178263.91949 -11049642.14949  20206347.7974   20206354.7124
  23633160.140   -13038981.66649  -9690908.43549  23633159.3344   23633170.1904
  21525358.848   -23059093.59849 -17966472.59249  21525358.6144   21525365.7844
  21694593.250   -24182344.64449 -18316486.79749  21694592.8664   21694600.7794
  21838146.166      618168.11149    451072.43149  21838146.3264   21838154.7824
  20613102.247   -30085461.94449 -23100697.79149  20613102.0664   20613108.9974
  19926059.111   -28929964.85549 -22086065.62249  19926059.5664   19926065.0294
 98  1 30 20  7 29.9980000  0  8  7 19 10 31  2 18 27 13
  23842489.409    -6217699.11049  -4512668.52249  23842488.6394   23842500.8354
  20204740.782   -14186707.12749 -11056221.28349  20204740.9994   20204748.0144
  23634754.957   -13030600.21349  -9684377.45749  23634754.1404   23634766.4364
  21529715.970   -23036196.85349 -17948630.99649  21529716.1284   21529723.1984
  21681320.617   -24252092.53049 -18370835.73349  21681320.2444   21681328.1944
  21851980.607      690868.27449    507721.83349  21851980.5194   21851989.0944
  20598932.317   -30159925.32649 -23158721.18149  20598932.1964   20598939.2404
  19918546.902   -28969441.57749 -22116826.68249  19918547.3674   19918552.7234
 98  1 30 20  7 59.9980000  0  8  7 19 10 31  2 18 27 13
  23817367.673    -6349713.73749  -4615536.82549  23817366.9004   23817379.2114
  20203179.803   -14194909.97249 -11062613.10349  20203179.7704   20203186.9844
  23636423.612   -13021831.71949  -9677544.88749  23636423.3254   23636434.3054
  21534179.456   -23012741.13749 -17930353.83549  21534179.3484   21534186.6154
  21668087.786   -24321631.34149 -18425021.74749  21668087.3754   21668095.5234
  21865859.438      763801.63149    564552.94549  21865859.5604   21865867.7074
  20584791.307   -30234236.80449 -23216626.20549  20584791.3454   20584798.2054
  19911136.791   -29008381.85649 -22147169.73849  19911137.1874   19911142.6394
 98  1 30 20  8 29.9980000  0  8  7 19 10 31  2 18 27 13
  23792246.263    -6481726.16049  -4718403.34549  23792244.2924   23792256.7594
  20201668.585   -14202851.57049 -11068801.35849  20201668.8164   20201675.6914
  23638169.771   -13012656.77349  -9670395.61449  23638170.6054   23638181.2244
  21538747.979   -22988733.56749 -17911646.65049  21538747.5554   21538755.0994
  21654899.712   -24390934.80249 -18479024.38149  21654899.2354   21654907.4024
  21879791.156      837013.22049    621600.86349  21879791.6354   21879799.6334
  20570684.584   -30308368.17649 -23274390.88949  20570684.4914   20570691.5134
  19903834.056   -29046757.98349 -22177073.19349  19903834.5124   19903839.9674
 98  1 30 20  8 59.9980000  0  8  7 19 10 31  2 18 27 13
  23767119.646    -6613765.84649  -4821291.12849  23767118.4764   23767130.9174
  20200198.184   -14210578.51649 -11074822.35649  20200198.2744   20200205.3974
  23639979.921   -13003145.33049  -9662984.13749  23639979.4634   23639989.9894
  21543408.118   -22964244.49249 -17892564.25849  21543407.7094   21543415.0894
  21641744.949   -24460063.30649 -18532890.67949  21641744.5524   21641752.6254
  21893765.056      910446.36149    678821.41649  21893765.1424   21893774.2284
  20556603.629   -30382363.76449 -23332049.76349  20556603.5394   20556610.5774
  19896626.598   -29084633.20949 -22206586.33749  19896626.9624   19896632.4424
 98  1 30 20  9 29.9980000  0  8  7 19 10 31  2 18 27 13
  23742007.728    -6745728.97149  -4924119.25349  23742006.8714   23742018.7574
  20198785.145   -14218004.03349 -11080608.46249  20198785.2024   20198792.1754
  23641871.629   -12993204.90749  -9655238.41249  23641871.5134   23641881.7664
  21548175.297   -22939192.67649 -17873043.36549  21548175.1294   21548182.2624
  21628641.457   -24528922.37249 -18586547.04449  21628641.1034   21628648.8594
  21907800.315      984201.82749    736293.13349  21907800.5854   21907808.7184
  20542567.966   -30456121.52549 -23389523.31749  20542567.8864   20542574.7574
  19889531.876   -29121916.01949 -22235637.86949  19889532.2234   19889537.8524
 98  1 30 20  9 59.9980000  0  8  7 19 10 31  2 18 27 13
  23716913.753    -6877597.70249  -5026873.84049  23716912.1134   23716926.0324
  20197434.211   -14225103.17249 -11086140.26949  20197434.4274   20197441.4034
  23643848.262   -12982817.58049  -9647144.41049  23643848.0154   23643858.3964
  21553051.749   -22913566.90549 -17853075.26149  21553051.4334   21553058.5254
  21615592.245   -24597495.97749 -18639980.94849  21615591.6774   21615599.9654
  21921902.444     1058308.75549    794038.69949  21921902.3434   21921911.3954
  20528578.670   -30529635.66549 -23446807.04349  20528578.7914   20528585.4254
  19882553.853   -29158585.67449 -22264211.60549  19882554.3744   19882559.7184
 98  1 30 20 10 29.9980000  0  8  7 19 10 31  2 18 27 13
  23691825.963    -7009433.23049  -5129602.44749  23691823.8024   23691837.6004
  20196137.918   -14231915.22749 -11091448.34749  20196137.9454   20196145.1574
  23645896.968   -12972050.73449  -9638754.69549  23645896.1674   23645908.2414
  21558027.694   -22887417.94049 -17832699.45649  21558027.6284   21558034.7784
  21602588.208   -24665832.35949 -18693230.00549  21602587.7604   21602595.5344
  21936059.262     1132702.92249    852008.09549  21936059.5324   21936068.5764
  20514626.094   -30602956.85649 -23503940.40949  20514625.9104   20514632.6854
  19875685.069   -29194681.38049 -22292338.11349  19875685.7394   19875690.9684
 98  1 30 20 10 59.9980000  0  8  7 19 10 31  2 18 27 13
  23666747.011    -7141222.65549  -5232295.15649  23666745.8934   23666757.4794
  20194903.228   -14238403.44149 -11096504.08949  20194903.2194   20194910.3424
  23648021.648   -12960885.16549  -9630054.28549  23648021.1564   23648032.4374
  21563112.717   -22860695.92349 -17811877.12049  21563112.7384   21563119.8004
  21589633.895   -24733907.52949 -18746275.53449  21589633.4884   21589641.2714
  21950270.471     1207383.04949    910200.30449  21950270.9544   21950279.3754
  20500710.932   -30676081.36549 -23560920.51649  20500710.7734   20500717.8504
  19868930.398   -29230177.40249 -22319997.34349  19868930.9654   19868936.2454
 98  1 30 20 11 29.9980000  0  8  7 19 10 31  2 18 27 13
  23641656.798    -7273071.36349  -5335034.08249  23641655.9024   23641668.2884
  20193710.245   -14244672.53549 -11101389.10049  20193710.3754   20193717.4904
  23650206.351   -12949404.70549  -9621108.50249  23650207.1824   23650217.0514
  21568288.898   -22833495.01249 -17790681.62849  21568288.8344   21568296.1044
  21576710.990   -24801817.73449 -18799192.52349  21576710.3344   21576718.4214
  21964515.659     1282241.69949    968531.62949  21964516.1324   21964524.8654
  20486810.045   -30749130.91649 -23617842.21649  20486809.9974   20486816.7164
  19862270.070   -29265177.71249 -22347270.30249  19862270.7164   19862276.0034
 98  1 30 20 11 59.9980000  0  8  7 19 10 31  2 18 27 13
  23616549.004    -7405012.15849  -5437844.71349  23616548.3444   23616560.2594
  20192552.027   -14250759.21749 -11106131.96849  20192552.0674   20192559.1544
  23652443.703   -12937647.71849  -9611947.25349  23652443.4244   23652453.8894
  21573547.777   -22805859.61749 -17769147.56549  21573547.4044   21573555.3664
  21563810.529   -24869609.99049 -18852017.60249  21563810.0254   21563817.8284
  21978785.379     1357229.11349   1026963.28549  21978785.9534   21978794.8344
  20472914.935   -30822150.12049 -23674740.25949  20472914.7064   20472921.6554
  19855695.610   -29299726.77149 -22374191.63449  19855696.2384   19855701.4624
 98  1 30 20 12 29.9980000  0  8  7 19 10 31  2 18 27 13
  23591439.260    -7536963.49749  -5540663.57649  23591437.5484   23591449.3014
  20191436.970   -14256618.75749 -11110697.83249  20191437.0794   20191443.9864
  23654744.870   -12925555.38249  -9602524.68549  23654745.1114   23654755.3504
  21578901.127   -22777727.68249 -17747226.59449  21578900.4684   21578908.1614
  21550942.221   -24937233.31749 -18904711.05549  21550941.7044   21550949.8524
  21993088.612     1432392.61149   1085532.14549  21993088.9014   21993097.5644
  20459038.819   -30895069.28349 -23731560.35649  20459038.8424   20459045.7444
  19849216.885   -29333772.60049 -22400720.84549  19849217.5434   19849222.8134
 98  1 30 20 12 59.9980000  0  8  7 19 10 31  2 18 27 13
  23566337.573    -7668872.58349  -5643449.56149  23566336.2854   23566348.6874
  20190371.790   -14262216.42949 -11115059.64949  20190371.9164   20190379.0344
  23657118.820   -12913079.92149  -9592803.58949  23657118.6584   23657130.3884
  21584356.260   -22749060.97549 -17724888.90749  21584355.5824   21584363.5444
  21538112.416   -25004654.04349 -18957246.63349  21538111.8154   21538119.9824
  22007433.887     1507777.40849   1144273.44449  22007434.0304   22007443.2484
  20445191.823   -30967835.69949 -23788261.42649  20445191.5484   20445198.7324
  19842842.027   -29367272.77949 -22426824.87549  19842842.6364   19842847.9424
 98  1 30 20 13 29.9980000  0  8  7 19 10 31  2 18 27 13
  23541241.395    -7800753.01549  -5746213.22049  23541241.0184   23541251.7394
  20189352.063   -14267574.96949 -11119235.12249  20189352.0224   20189359.1324
  23659560.952   -12900246.54249  -9582803.58349  23659560.9474   23659572.0794
  21589904.735   -22719903.66749 -17702168.93749  21589904.9204   21589912.4654
  21525316.387   -25071897.47449 -19009644.06649  21525315.9244   21525323.9954
  22021819.214     1583372.33849   1203178.48949  22021819.5424   22021828.8204
  20431372.756   -31040455.17549 -23844847.99249  20431372.8554   20431379.7284
  19836566.739   -29400249.51749 -22452521.02749  19836567.4404   19836572.5514
 98  1 30 20 13 59.9980000  0  8  7 19 10 31  2 18 27 13
  23516144.737    -7932635.81549  -5848978.76249  23516143.9224   23516155.4064
  20188371.332   -14272728.75549 -11123251.05549  20188371.2514   20188378.2974
  23662063.342   -12887096.76649  -9572557.03949  23662063.1954   23662074.3854
  21595539.846   -22690291.46749 -17679094.50849  21595539.9094   21595547.1394
  21512548.906   -25138990.81749 -19061924.55349  21512548.2434   21512556.1094
  22036238.430     1659145.24249   1262222.21549  22036238.8094   22036247.5474
  20417579.784   -31112937.64949 -23901327.80749  20417579.7344   20417586.4714
  19830384.972   -29432735.04149 -22477834.41649  19830385.5704   19830390.8084
 98  1 30 20 14 29.9980000  0  8  7 19 10 31  2 18 27 13
  23491039.117    -8064566.03249  -5951781.26049  23491038.0134   23491049.6614
  20187421.189   -14277721.66349 -11127141.62949  20187421.1794   20187428.3104
  23664617.362   -12873675.86649  -9562099.23449  23664616.6174   23664627.9754
  21601253.484   -22660266.11649 -17655698.15549  21601252.9644   21601260.6124
  21499804.504   -25205962.86549 -19114110.53049  21499804.0954   21499811.6174
  22050684.586     1735060.18349   1321376.61349  22050684.4294   22050693.8314
  20403803.798   -31185330.85049 -23957738.06449  20403803.6714   20403810.7434
  19824288.486   -29464772.25549 -22502798.47549  19824289.0804   19824294.2664
 98  1 30 20 14 59.9980000  0  8  7 19 10 31  2 18 27 13
  23465926.586    -8196532.14549  -6054611.74649  23465925.5384   23465936.9454
  20186507.979   -14282520.53249 -11130881.00449  20186508.0414   20186514.9494
  23667228.459   -12859954.86249  -9551407.59049  23667228.8884   23667238.4694
  21607051.201   -22629798.86949 -17631957.46649  21607051.1004   21607058.3914
  21487091.354   -25272770.78449 -19166168.61549  21487090.9164   21487098.6524
  22065164.680     1811153.14749   1380669.74049  22065165.5144   22065174.2884
  20390049.696   -31257609.08049 -24014058.73149  20390049.7924   20390056.4374
  19818282.275   -29496335.10849 -22527392.89649  19818282.7384   19818288.1594
 98  1 30 20 15 29.9980000  0  8  7 19 10 31  2 18 27 13
  23440827.322    -8328428.36149  -6157387.79649  23440826.0144   23440836.8574
  20185648.157   -14287038.85449 -11134401.77649  20185648.3864   20185655.4534
  23669914.997   -12845837.22649  -9540406.87749  23669913.8304   23669924.7224
  21612953.132   -22598783.97749 -17607790.04149  21612953.0844   21612960.4174
  21474430.332   -25339304.58549 -19218013.11049  21474429.6624   21474437.5164
  22079698.696     1887529.56249   1440183.73249  22079699.3024   22079707.9274
  20376334.989   -31329680.13549 -24070217.97049  20376334.9174   20376341.8464
  19812382.706   -29527337.40749 -22551550.53049  19812383.2134   19812388.4504
 98  1 30 20 15 59.9980000  0  8  7 19 10 31  2 18 27 13
  23415740.180    -8460261.04349  -6260114.37149  23415739.2014   23415750.6264
  20184838.610   -14291293.12349 -11137716.78249  20184838.7374   20184845.8674
  23672674.948   -12831333.55449  -9529105.36749  23672674.4984   23672684.9624
  21618959.720   -22567219.08049 -17583194.04049  21618959.0964   21618966.6314
  21461821.188   -25405566.04349 -19269645.38649  21461820.7214   21461828.6414
  22094284.853     1964180.00249   1499911.24649  22094284.9254   22094294.0094
  20362658.808   -31401548.90349 -24126219.58649  20362658.7454   20362665.4694
  19806588.215   -29557787.76049 -22575278.07549  19806588.7644   19806593.9864
